     2.11           OBSERVATION DATA    G (GPS)             RINEX VERSION / TYPE
teqc 2010Oct21 OPUS Account 20111027 14:12:26UTC            PGM / RUN BY / DATE
X 1523                                                      MARKER NAME
1202                                                        MARKER NUMBER
CSMIDDLETON NGS                                             OBSERVER / AGENCY
4820152812 TRIMBLE R7 2.32                                  REC # / TYPE / VERS
60244996 TRM41249.00 NONE                                   ANT # / TYPE
  -751475.6655 -5521584.1146  3092669.8981                  APPROX POSITION XYZ
        2.0030        0.0000        0.0000                  ANTENNA: DELTA H/E/N
     1     1                                                WAVELENGTH FACT L1/2
     5    L1    L2    C1    P1    P2                        # / TYPES OF OBSERV
    15                                                      LEAP SECONDS
  2011     8    13    16    30   30.0000000     GPS         TIME OF FIRST OBS
                                                            END OF HEADER
 11  8 13 16 30 30.0000000  0  9G03G10G16G06G08G07G13G19G23
  -3300716.89857  -2563478.40255  21048036.7194                   21048034.0204
   2309961.85556   1807232.74253  23934492.4064                   23934490.3404
  16858484.58257  13152973.63754  23083150.9064                   23083147.3524
   6150852.59457   4798194.27755  22688691.0554                   22688688.8014
  -1428648.92256  -1105967.31653  24360825.0474                   24360823.4804
  -3553347.67657  -2764722.86355  22370052.6094                   22370049.6214
  -8333756.59858  -6485628.45356  20143821.5164                   20143817.3484
  -7976553.68458  -6205598.45756  21315282.5784                   21315277.8284
   -738896.46158   -571006.02056  20402306.0004                   20402300.2934
 11  8 13 16 31  0.0000000  0  9G03G10G16G06G08G07G13G19G23
  -3227546.24648  -2506462.30545  21061961.0164                   21061957.8094
   2360818.92646   1846861.61343  23944170.2194                   23944168.4654
  16989267.05547  13254882.01644  23108037.7974                   23108034.4184
   6248940.39147   4874626.29745  22707357.0864                   22707354.3164
  -1454626.47346  -1126209.51243  24355881.2814                   24355880.0704
  -3568858.15647  -2776808.94945  22367101.4064                   22367097.5984
  -8305310.68048  -6463462.81246  20149234.3054                   20149230.8914
  -7977260.37148  -6206149.10946  21315148.2584                   21315143.3324
   -651992.36348   -503288.56646  20418843.1334                   20418837.8914
 11  8 13 16 31 30.0000000  0  9G03G10G16G06G08G07G13G19G23
  -3153734.02048  -2448946.28945  21076006.7814                   21076003.7814
   2412177.82046   1886881.51244  23953943.1804                   23953941.5004
  17120130.49247  13356853.49644  23132940.6334                   23132936.9804
   6347530.82047   4951449.98845  22726117.8364                   22726115.1094
  -1480631.28146  -1146472.93743  24350933.2504                   24350931.4614
  -3584305.25447  -2788845.63745  22364161.8834                   22364158.5354
  -8276269.83248  -6440833.58246  20154760.7814                   20154756.5944
  -7977392.69948  -6206252.21546  21315123.0474                   21315118.1524
   -564509.67248   -435120.26246  20435490.6804                   20435485.1414
 11  8 13 16 32  0.0000000  0  9G03G10G16G06G08G07G13G19G23
  -3079131.35548  -2390814.35545  21090203.1804                   21090199.9734
   2464186.98446   1927408.12943  23963840.5474                   23963839.0664
  17251222.60247  13459003.14844  23157886.5784                   23157882.9734
   6446771.70747   5028780.52745  22745002.9534                   22744999.8984
  -1506513.53546  -1166640.85943  24346007.5164                   24346006.6914
  -3599538.68747  -2800715.82845  22361263.2424                   22361259.5944
  -8246482.99248  -6417623.07446  20160429.1094                   20160425.1414
  -7976799.11347  -6205789.67246  21315236.0084                   21315231.1564
   -476300.15248   -366385.58646  20452276.0784                   20452270.3484
 11  8 13 16 32 30.0000000  0  9G03G10G16G06G08G07G13G19G23
  -3003730.98848  -2332060.82445  21104551.4844                   21104548.5164
   2516853.17646   1968446.69143  23973862.6484                   23973860.7704
  17382550.03147  13561336.17644  23182877.5944                   23182873.6214
   6546669.85247   5106623.21545  22764012.9694                   22764010.2384
  -1532265.15246  -1186706.97743  24341107.7424                   24341105.7344
  -3614549.34047  -2812412.43045  22358407.0634                   22358403.3164
  -8215940.68748  -6393823.88346  20166241.0704                   20166237.2384
  -7975469.18047  -6204753.35246  21315488.9694                   21315484.2344
   -387356.21548   -297078.64846  20469201.7664                   20469196.3094
 11  8 13 16 33  0.0000000  0  9G03G10G16G06G08G07G13G19G23
  -2927640.42648  -2272769.48045  21119031.0634                   21119027.7974
   2570068.78147   2009913.37943  23983989.3524                   23983987.5164
  17514004.75047  13663768.37944  23207892.5004                   23207888.8554
   6647117.21947   5184893.86745  22783127.3284                   22783124.6524
  -1557992.40246  -1206754.15643  24336211.4064                   24336209.9964
  -3629442.70747  -2824017.63345  22355572.2344                   22355569.1174
  -8184747.67248  -6369517.64546  20172176.6954                   20172172.7934
  -7973507.07847  -6203224.43446  21315862.4064                   21315857.6724
   -297784.77048   -227282.73046  20486246.6804                   20486241.0704
 11  8 13 16 33 30.0000000  0  9G03G10G16G06G08G07G13G19G23
  -2850897.57048  -2212969.86345  21133634.6884                   21133631.8244
   2623795.57846   2051778.38343  23994212.7194                   23994211.1454
  17645548.01647  13766269.59844  23232924.5004                   23232920.1484
   6748075.06647   5263562.30145  22802338.9774                   22802336.8554
  -1583731.99746  -1226810.92543  24331313.4924                   24331311.9844
  -3644255.30947  -2835559.90645  22352753.5784                   22352750.1484
  -8152939.63748  -6344732.16846  20178229.6024                   20178225.6844
  -7970947.59447  -6201230.02046  21316349.4224                   21316344.9144
   -207623.88348   -157027.50846  20503403.8284                   20503398.3874
 11  8 13 16 34  0.0000000  0  9G03G10G16G06G08G07G13G19G23
  -2773534.27048  -2152686.78545  21148356.5394                   21148353.3634
   2678002.08646   2094017.21943  24004527.6724                   24004526.4844
  17777148.00447  13868815.00444  23257967.0314                   23257963.0594
   6849511.36347   5342603.55545  22821641.5394                   22821639.2274
  -1609514.21146  -1246900.91044  24326407.2974                   24326405.5984
  -3659016.71547  -2847062.29745  22349944.7974                   22349940.7584
  -8120545.70347  -6319490.14546  20184394.1094                   20184390.0824
  -7967818.78147  -6198791.96146  21316944.5084                   21316939.7034
   -116904.59048    -86337.17246  20520667.1024                   20520661.3524
 11  8 13 16 34 30.0000000  0  9G03G10G16G06G08G07G13G19G23
  -4270982.70748  -3319529.73045  20863401.5004                   20863398.8714
   1157255.00847    909019.47343  23715139.6334                   23715137.9694
  16333373.07447  12743795.54344  22983225.5784                   22983221.8714
   5375993.64847   4194407.90645  22541240.8204                   22541238.3204
  -3210773.83646  -2494635.63343  24021697.4224                   24021695.7894
  -5249160.64547  -4086135.47345  22047350.3204                   22047347.0164
  -9662997.22748  -7521400.43446  19890875.3754                   19890871.4024
  -9539552.94547  -7423519.86746  21017853.5784                   21017848.7934
  -1601059.14148  -1242821.25446  20238242.1564                   20238236.1994
 11  8 13 16 35  0.0000000  0  9G03G10G16G06G08G07G13G19G23
  -4192422.39148  -3258313.90645  20878351.1724                   20878348.1254
   1212376.33646    951971.10543  23725628.8914                   23725627.3914
  16465039.45347  12846392.66844  23008281.2114                   23008277.5594
   5478340.34447   4274158.54345  22560716.6644                   22560714.1764
  -3236682.04746  -2514823.80144  24016767.5084                   24016766.0594
  -5263858.30447  -4097588.17745  22044553.6954                   22044550.3054
  -9629468.77748  -7495274.37546  19897255.5634                   19897251.6214
  -9535321.09847  -7420222.31946  21018658.7814                   21018654.0314
  -1509266.97348  -1171294.91046  20255709.3284                   20255703.9614
 11  8 13 16 35 30.0000000  0  9G03G10G16G06G08G07G13G19G23
  -4113279.98448  -3196644.51645  20893411.2814                   20893408.4694
   1267938.52346    995266.31643  23736201.9064                   23736200.6294
  16596722.26247  12949002.61744  23033339.6724                   23033335.8284
   5581125.21147   4354250.64145  22580276.0234                   22580272.9774
  -3262667.41446  -2535072.09844  24011822.0474                   24011820.9964
  -5278537.54347  -4109026.50445  22041759.9614                   22041756.4844
  -9595385.71548  -7468716.15646  19903741.7424                   19903737.2974
  -9530549.02748  -7416503.80546  21019566.8834                   21019562.0514
  -1416954.44948  -1099363.09446  20273275.9844                   20273270.1994
 11  8 13 16 36  0.0000000  0  9G03G10G16G06G08G07G13G19G23
  -4033562.25048  -3134526.80945  20908581.3054                   20908578.0354
   1323934.21946   1038899.30543  23746858.2814                   23746856.4024
  16728413.82847  13051619.39144  23058399.3524                   23058395.7344
   5684340.39447   4434678.02645  22599917.4064                   22599914.5904
  -3288736.06646  -2555385.26644  24006861.7034                   24006860.1764
  -5293203.29747  -4120454.35945  22038969.2974                   22038965.3984
  -9560752.57848  -7441729.30546  19910331.7974                   19910328.0554
  -9525240.70347  -7412367.44546  21020577.2734                   21020572.4144
  -1324128.48048  -1027031.19546  20290939.9924                   20290934.7274
 11  8 13 16 36 30.0000000  0  9G03G10G16G06G08G07G13G19G23
  -3953282.90248  -3071971.49245  20923858.0234                   20923854.8364
   1380349.66446   1082859.34043  23757593.2734                   23757591.7854
  16860100.09847  13154232.00844  23083458.7034                   23083455.1254
   5787971.74647   4515429.69145  22619637.1724                   22619634.9964
  -3314900.30146  -2575772.94544  24001883.0004                   24001881.3954
  -5307867.36747  -4131880.89145  22036178.7894                   22036175.2584
  -9525580.68748  -7414322.64846  19917024.6804                   19917021.2154
  -9519406.64548  -7407821.41446  21021687.1884                   21021682.0984
  -1230802.46548   -954309.65246  20308699.2974                   20308693.9264
 11  8 13 16 37  0.0000000  0  9G03G10G16G06G08G07G13G19G23
  -3872440.91048  -3008977.74445  20939241.4224                   20939238.6764
   1437185.91946   1127147.31643  23768408.4224                   23768407.5164
  16991781.35947  13256840.74244  23108516.5164                   23108513.5204
   5892019.62147   4596505.94945  22639437.4064                   22639434.9184
  -3341157.63346  -2596233.13344  23996886.2194                   23996884.5434
  -5322526.58747  -4143303.64045  22033389.0554                   22033385.6644
  -9489866.55547  -7386493.46546  19923821.1644                   19923817.1564
  -9513042.55148  -7402862.36046  21022898.3674                   21022893.5044
  -1136974.97548   -881197.35446  20326554.3134                   20326549.0164
 11  8 13 16 37 30.0000000  0  9G03G10G16G06G08G07G13G19G23
  -3791051.65248  -2945557.55945  20954729.3054                   20954726.1334
   1494427.93047   1171751.45343  23779301.2274                   23779300.6294
  17123442.69947  13359433.95344  23133571.2114                   23133567.6054
   5996468.70347   4677894.80945  22659313.2734                   22659310.6914
  -3367521.73446  -2616776.53544  23991869.3364                   23991867.8404
  -5337194.07447  -4154732.84845  22030597.9534                   22030594.5474
  -9453623.10248  -7358251.82846  19930718.1724                   19930714.0314
  -9506160.32048  -7397499.57046  21024208.0314                   21024202.8554
  -1042660.87548   -807705.87546  20344501.6254                   20344496.1134
 11  8 13 16 38  0.0000000  0  9G03G10G16G06G08G07G13G19G23
  -3709108.61348  -2881705.84445  20970322.3984                   20970319.3794
   1552081.46946   1216676.23843  23790272.8914                   23790271.6764
  17255089.39147  13462015.74244  23158622.7344                   23158619.4414
   6101324.31647   4759600.46945  22679266.9614                   22679264.2934
  -3393984.46147  -2637396.79344  23986833.5474                   23986831.9884
  -5351861.37148  -4166161.89545  22027807.2034                   22027803.8634
  -9416841.54748  -7329590.88746  19937717.2504                   19937713.5004
  -9498750.34848  -7391725.55146  21025618.2424                   21025613.2074
   -947854.11348   -733830.50046  20362542.6254                   20362537.0864
 11  8 13 16 38 30.0000000  0  9G03G10G16G06G08G07G13G19G23
  -3626616.33648  -2817426.16045  20986020.8834                   20986017.4734
   1610142.34846   1261918.45344  23801321.5634                   23801320.6994
  17386716.96147  13564582.64144  23183670.7814                   23183667.3054
   6206581.62547   4841619.12544  22699296.2584                   22699294.3324
  -3420549.37546  -2658096.67643  23981778.0234                   23981776.5394
  -5366530.84447  -4177592.65245  22025015.7814                   22025012.0744
  -9379523.74248  -7300512.08246  19944818.6804                   19944814.5514
  -9490814.24647  -7385541.57046  21027128.6884                   21027123.4024
   -852558.51648   -659574.21546  20380677.1174                   20380671.2504
 11  8 13 16 39  0.0000000  0  9G03G10G16G06G08G07G13G19G23
  -3543593.98448  -2752733.43745  21001819.2424                   21001816.0784
   1668591.18846   1307462.96143  23812444.2114                   23812442.8874
  17518306.18447  13667119.64144  23208711.4454                   23208708.4574
   6312221.10947   4923935.59444  22719398.4534                   22719396.8634
  -3447233.60946  -2678889.52044  23976700.5234                   23976698.8914
  -5381219.19548  -4189038.11345  22022220.5314                   22022217.3444
  -9341686.45748  -7271028.50046  19952019.3364                   19952014.9024
  -9482367.53947  -7378959.69946  21028735.9694                   21028730.8914
   -756792.92248   -584951.69946  20398900.5084                   20398894.9534
 11  8 13 16 39 30.0000000  0  9G03G10G16G06G08G07G13G19G23
  -3460038.60248  -2687625.36745  21017719.6024                   21017716.2704
   1727430.51246   1353311.76243  23823640.4844                   23823640.0474
  17649859.20746  13769628.43044  23233745.4144                   23233742.2464
   6418244.65247   5006551.30944  22739574.4844                   22739571.9264
  -3474033.37146  -2699772.40643  23971600.3914                   23971599.1604
  -5395921.62947  -4200494.55545  22019422.8914                   22019419.4414
  -9303324.69147  -7241136.22746  19959318.4844                   19959314.7384
  -9473404.71947  -7371975.66446  21030441.2424                   21030436.3134
   -660554.43048   -509960.69146  20417214.2974                   20417208.7704
 11  8 13 16 40  0.0000000  0 10G03G10G16G28G06G08G07G13G19G23
  -3375955.83148  -2622106.33845  21033719.2894                   21033716.6134
   1786654.74246   1399460.47344  23834910.7344                   23834910.1254
  17781370.80746  13872104.94744  23258770.9774                   23258767.9884
  -1611068.97356  -1247775.17253  24608020.3834                   24608018.9414
   6524646.58147   5089461.86544  22759822.1644                   22759819.9024
  -3500952.45046  -2720748.25843  23966477.9064                   23966476.0354
  -5410641.31247  -4211964.42645  22016621.9144                   22016618.6454
  -9264441.34048  -7210837.52346  19966717.8364                   19966714.0554
  -9463927.83647  -7364591.07146  21032244.6484                   21032239.8634
   -563848.23448   -434605.23446  20435616.8204                   20435611.3754
 11  8 13 16 40 30.0000000  0 10G03G10G16G28G06G08G07G13G19G23
  -3291348.10948  -2556178.25045  21049819.8834                   21049817.0474
   1846261.93447   1445907.60243  23846254.3444                   23846252.7624
  17912838.34847  13974547.13344  23283789.0634                   23283785.3794
  -1644336.55946  -1273697.95743  24601689.7504                   24601687.7304
   6631424.20747   5172665.19944  22780141.1024                   22780138.8324
  -3527990.86346  -2741817.09043  23961333.3364                   23961331.2974
  -5425378.38748  -4223447.85545  22013817.2274                   22013814.0204
  -9225036.12548  -7180132.16846  19974216.5474                   19974212.4964
  -9453935.78548  -7356805.04346  21034146.0784                   21034141.2584
   -466676.36748   -358886.91846  20454108.2424                   20454102.8594
 11  8 13 16 41  0.0000000  0 10G03G10G16G28G06G08G07G13G19G23
  -3206225.94548  -2489849.30945  21066018.2894                   21066015.2384
   1906240.71146   1492644.27343  23857666.7194                   23857666.1214
  18044250.53146  14076946.18844  23308795.8364                   23308792.4304
  -1677464.10546  -1299511.58243  24595386.1024                   24595384.6524
   6738565.80947   5256152.12944  22800530.3914                   22800527.0044
  -3555158.70346  -2762986.75043  23956162.5234                   23956160.7464
  -5440141.46148  -4234951.52746  22011007.9614                   22011004.5004
  -9185117.78148  -7149026.97746  19981812.9144                   19981808.3794
  -9443436.63347  -7348623.86346  21036143.7894                   21036138.7974
   -369049.74648   -282814.25446  20472685.7894                   20472680.4924
 11  8 13 16 41 30.0000000  0 10G03G10G16G28G06G08G07G13G19G23
  -3120590.48048  -2423120.37545  21082313.9694                   21082311.1214
   1966590.34046   1539669.89843  23869152.0474                   23869150.6954
  18175606.41047  14179301.37144  23333792.0704                   23333787.8444
  -1710450.69146  -1325215.37943  24589108.5394                   24589106.8164
   6846070.11747   5339921.68044  22820986.9304                   22820984.8054
  -3582454.82447  -2784256.41043  23950968.0164                   23950966.5744
  -5454929.00847  -4246474.28145  22008193.9224                   22008190.1564
  -9144684.93747  -7117520.87546  19989506.8444                   19989502.9184
  -9432428.17648  -7340045.83246  21038238.9694                   21038233.9144
   -270969.04748   -206387.77046  20491349.8134                   20491344.3244
 11  8 13 16 42  0.0000000  0 10G03G10G16G28G06G08G07G13G19G23
  -3034447.54748  -2355996.02745  21098706.3134                   21098703.6374
   2027305.06646   1586980.05143  23880705.6484                   23880703.5124
  18306900.45347  14281608.37144  23358776.2974                   23358772.7584
  -1743299.72746  -1350812.00043  24582857.0474                   24582856.6374
   6953931.16847   5423969.21544  22841512.5554                   22841509.5124
  -3609883.18046  -2805629.11343  23945749.0004                   23945746.8094
  -5469744.04747  -4258018.46545  22005374.7344                   22005371.2034
  -9103740.59848  -7085616.20746  19997298.4774                   19997294.3794
  -9420912.58247  -7331072.61746  21040430.0554                   21040425.1054
   -172439.28548   -129611.36346  20510099.5634                   20510093.7154
 11  8 13 16 42 30.0000000  0 10G03G10G16G28G06G08G07G13G19G23
  -2947805.98448  -2288483.14845  21115193.8284                   21115190.8874
   2088375.61746   1634567.45743  23892326.4454                   23892325.2344
  18438123.53946  14383860.07044  23383746.9224                   23383743.8094
  -1776018.06646  -1376306.78143  24576631.5314                   24576630.8754
   7062139.18047   5508287.12544  22862103.8674                   22862101.4844
  -3637451.48446  -2827110.87143  23940502.9924                   23940500.3794
  -5484593.52747  -4269589.47345  22002548.6884                   22002545.8054
  -9062291.49248  -7053318.21546  20005186.2034                   20005182.3204
  -9408895.94147  -7321708.99646  21042716.7504                   21042711.8014
    -73469.72348    -52492.24246  20528932.8204                   20528927.0084
 11  8 13 16 43  0.0000000  0 11G03G10G16G28G06G08G07G13G19G23G11
  -2860668.24248  -2220583.60945  21131775.6884                   21131772.3914
   2149799.59046   1682430.24644  23904015.1644                   23904013.6884
  18569272.98846  14486054.40244  23408703.6334                   23408700.2664
  -1808606.01246  -1401699.91443  24570430.2034                   24570429.0864
   7170691.31647   5592873.16044  22882760.7034                   22882758.4454
  -3665159.96147  -2848701.84044  23935230.1024                   23935227.8284
  -5499477.51647  -4281187.37545  21999716.5634                   21999713.0904
  -9020337.84847  -7020627.08246  20013169.4844                   20013165.5634
  -9396377.29347  -7311954.18046  21045098.9304                   21045094.0664
     25937.59048     24967.96946  20547849.2584                   20547844.1174
  -1627596.80956  -1250517.77052  24740499.2974                   24740500.8874
 11  8 13 16 43 30.0000000  0 11G03G10G16G28G06G08G07G13G19G23G11
  -2773035.12148  -2152298.08245  21148451.6954                   21148448.9654
   2211576.22346   1730567.85243  23915770.3834                   23915769.2384
  18700348.49246  14588191.10244  23433647.1254                   23433643.5234
  -1841061.97347  -1426990.23843  24564254.7504                   24564253.8054
   7279586.65647   5677726.65244  22903482.2194                   22903480.4384
  -3693007.64847  -2870401.32443  23929930.4844                   23929928.5044
  -5514394.28147  -4292810.82045  21996877.9454                   21996874.5904
  -8977877.65248  -6987541.23046  20021249.6644                   20021245.2584
  -9383354.23848  -7301806.33246  21047577.3594                   21047572.4144
    125782.37148    102769.06646  20566849.2424                   20566843.9224
  -1661911.87546  -1277256.76243  24733968.9924                   24733970.7424
 11  8 13 16 44  0.0000000  0 11G03G10G16G28G06G08G07G13G19G23G11
  -2684911.47348  -2083630.32445  21165221.3284                   21165218.0084
   2273700.48446   1778976.34443  23927592.7814                   23927591.0704
  18831344.85246  14690266.13744  23458574.0634                   23458571.0084
  -1873388.74647  -1452179.86743  24558102.6724                   24558101.8014
   7388819.73447   5762843.30144  22924269.4774                   22924267.0354
  -3720997.61747  -2892211.64843  23924604.3284                   23924602.3404
  -5529345.91447  -4304461.42645  21994032.7344                   21994029.1294
  -8934913.25448  -6954062.49246  20029425.4384                   20029421.4144
  -9369828.66448  -7291266.91046  21050150.9224                   21050146.0864
    226059.85248    180907.32446  20585931.1174                   20585926.1604
  -1696454.56246  -1304173.12943  24727395.2344                   24727397.1024
 11  8 13 16 44 30.0000000  0 11G03G10G16G28G06G08G07G13G19G23G11
  -2596304.99248  -2014586.33245  21182082.2274                   21182079.1764
   2336164.69546   1827649.73443  23939479.7424                   23939477.0864
  18962254.55146  14792273.65244  23483486.2274                   23483482.8634
  -1905592.12146  -1477273.32843  24551974.5004                   24551973.9224
   7498382.19547   5848216.61344  22945117.8284                   22945116.1334
  -3749135.92247  -2914137.56644  23919250.2814                   23919247.5234
  -5544338.07447  -4316143.60545  21991180.1564                   21991176.1724
  -8891450.66047  -6920195.55146  20037695.7664                   20037692.3404
  -9355805.29348  -7280339.59846  21052819.7194                   21052815.1174
    326762.32048    259376.75446  20605094.1414                   20605088.9804
  -1731228.53346  -1331269.67043  24720778.1644                   24720779.0474
 11  8 13 16 45  0.0000000  0 11G03G10G16G28G06G08G07G13G19G23G11
  -2507224.52348  -1945172.99845  21199033.9534                   21199031.0514
   2398960.27747   1876581.32443  23951428.7974                   23951426.9884
  19093069.30147  14894207.15644  23508379.3984                   23508375.9454
  -1937678.65346  -1502275.75643  24545868.2274                   24545866.6994
   7608265.21547   5933839.70344  22966028.3674                   22966025.8794
  -3777429.06247  -2936184.12743  23913866.3754                   23913863.2274
  -5559376.38747  -4327861.76545  21988317.9384                   21988314.3484
  -8847495.88048  -6885945.09446  20046060.2814                   20046056.1644
  -9341289.55548  -7269028.61746  21055582.0234                   21055576.4614
    427881.59448    338170.96646  20624336.8204                   20624331.3404
  -1766238.19146  -1358549.81643  24714116.3364                   24714115.6134
 11  8 13 16 45 30.0000000  0 11G03G10G16G28G06G08G07G13G19G23G11
  -2417667.07248  -1875387.99445  21216076.1094                   21216072.9264
   2462089.82046   1925773.16843  23963442.1644                   23963440.2424
  19223791.44947  14996068.52544  23533255.1024                   23533251.4884
  -1969643.23546  -1527183.20442  24539784.7424                   24539783.8054
   7718471.01847   6019714.32345  22986999.7734                   22986997.5784
  -3805872.57447  -2958347.87943  23908453.0554                   23908451.1254
  -5574455.84547  -4339611.97645  21985448.5084                   21985445.1024
  -8803043.69648  -6851307.04746  20054519.3444                   20054515.3364
  -9326275.42548  -7257329.28446  21058438.7424                   21058433.7664
    529420.48848    417292.15846  20643659.4224                   20643653.3954
  -1801477.17646  -1386008.68743  24707410.7814                   24707409.6644
 11  8 13 16 46  0.0000000  0 11G03G10G16G28G06G08G07G13G19G23G11
  -2327629.48048  -1805228.85245  21233209.8674                   21233206.9804
   2525556.55946   1975227.71943  23975519.9454                   23975517.8134
  19354424.73446  15097860.63744  23558113.8914                   23558110.5044
  -2001480.29346  -1551991.28942  24533726.4064                   24533725.6844
   7829002.61347   6105842.80144  23008033.6884                   23008031.5634
  -3834461.21547  -2980624.68744  23903013.2974                   23903011.1024
  -5589570.47747  -4351389.59845  21982572.5864                   21982568.8134
  -8758088.07048  -6816276.70746  20063074.1254                   20063069.9884
  -9310756.36348  -7245236.50846  21061391.8284                   21061387.0594
    631382.48448    496743.03546  20663061.9144                   20663056.6484
  -1836937.74647  -1413640.23443  24700662.6414                   24700662.2894
 11  8 13 16 46 30.0000000  0 11G03G10G16G28G06G08G07G13G19G23G11
  -2237118.47548  -1734700.82145  21250433.0084                   21250430.5434
   2589353.85946   2024939.86343  23987659.5784                   23987658.5784
  19484962.89847  15199578.64144  23582954.6334                   23582951.0984
  -2033194.31646  -1576703.40642  24527691.3284                   24527690.9804
   7939853.08447   6192219.74344  23029128.1174                   23029125.2464
  -3863199.19447  -3003017.90144  23897544.0004                   23897542.1414
  -5604723.87947  -4363197.42245  21979688.4224                   21979685.6994
  -8712633.54348  -6780857.62146  20071724.0004                   20071719.5084
  -9294736.02348  -7232753.11746  21064440.5704                   21064435.8014
    733761.52848    576518.87846  20682544.1254                   20682538.8484
  -1872622.10347  -1441446.15543  24693872.1174                   24693872.0514
 11  8 13 16 47  0.0000000  0 11G03G10G16G28G06G08G07G13G19G23G11
  -2146131.34048  -1663801.78145  21267747.4224                   21267744.7664
   2653484.23846   2074911.55943  23999863.4774                   23999861.5984
  19615408.58247  15301224.56344  23607777.3204                   23607774.2544
  -2064780.27046  -1601315.79342  24521681.5944                   24521680.7894
   8051024.39847   6278846.71144  23050282.6644                   23050280.5044
  -3892082.46547  -3025524.32444  23892048.3984                   23892045.8014
  -5619911.14147  -4375031.64545  21976798.6174                   21976795.2274
  -8666675.40248  -6745046.09446  20080469.4144                   20080465.2274
  -9278208.85248  -7219874.78946  21067585.6644                   21067580.5824
    836560.04748    656621.59446  20702105.7034                   20702100.9964
  -1908523.79746  -1469421.41043  24687039.4224                   24687040.6134
 11  8 13 16 47 30.0000000  0 11G03G10G16G28G06G08G07G13G19G23G11
  -2054671.64848  -1592534.52045  21285151.8674                   21285148.9964
   2717943.84046   2125139.80144  24012129.6174                   24012128.5744
  19745758.64547  15402796.00444  23632582.3984                   23632578.6024
  -2096240.02346  -1625829.78142  24515694.5944                   24515694.0434
   8162512.51247   6365720.52744  23071498.1174                   23071495.5394
  -3921112.57847  -3048145.17244  23886523.7194                   23886522.1334
  -5635132.87547  -4386892.73846  21973901.9534                   21973898.4884
  -8620214.96948  -6708843.17646  20089310.2274                   20089306.3484
  -9261175.13348  -7206601.75446  21070827.0634                   21070821.8914
    939774.87548    737048.70346  20721746.9534                   20721741.7194
  -1944642.22346  -1497565.55543  24680166.3204                   24680166.9414
 11  8 13 16 48  0.0000000  0 11G03G10G16G28G06G08G07G13G19G23G11
  -1962747.57448  -1520905.39545  21302644.3984                   21302641.7344
   2782724.69946   2175618.34043  24024456.9144                   24024455.9574
  19876005.43846  15504286.94944  23657367.5164                   23657364.6374
  -2127578.69546  -1650249.48842  24509730.5234                   24509729.7544
   8274309.28147   6452834.86744  23092772.0234                   23092769.9534
  -3950295.58247  -3070885.16844  23880970.5084                   23880968.4304
  -5650394.59047  -4398784.98045  21970997.9924                   21970994.2734
  -8573257.82048  -6672253.20746  20098246.2274                   20098242.2344
  -9243639.92248  -7192937.94146  21074163.8674                   21074158.9804
   1043398.21148    817794.12146  20741465.8204                   20741460.2154
  -1980981.27346  -1525881.61343  24673251.2584                   24673251.2074
 11  8 13 16 48 30.0000000  0 11G03G10G16G28G06G08G07G13G19G23G11
  -1870362.44148  -1448917.00845  21320224.7734                   21320221.8984
   2847823.71946   2226344.80943  24036844.7664                   24036843.7774
  20006145.65647  15605694.86344  23682131.9924                   23682129.0864
  -2158797.80146  -1674575.98843  24503789.8054                   24503788.3794
   8386410.96947   6540186.79744  23114104.7114                   23114101.6954
  -3979632.50847  -3093745.06244  23875387.9844                   23875386.2034
  -5665697.09847  -4410709.00046  21968085.9924                   21968082.3594
  -8525804.70748  -6635276.77346  20107275.9534                   20107271.8874
  -9225603.33648  -7178883.45346  21077595.9534                   21077590.6644
   1147427.02048    898855.50046  20761261.8524                   20761256.5704
  -2017539.71946  -1554368.64543  24666293.9064                   24666293.9384
 11  8 13 16 49  0.0000000  0 11G03G10G16G28G06G08G07G13G19G23G11
  -1777518.40648  -1376571.03945  21337892.3204                   21337889.3364
   2913238.61346   2277317.40644  24049293.5084                   24049292.2504
  20136178.09846  15707018.77344  23706876.4694                   23706873.3204
  -2189896.82846  -1698808.94543  24497872.4224                   24497870.0594
   8498815.30947   6627774.56644  23135494.1334                   23135492.2304
  -4009123.11347  -3116724.71943  23869776.1954                   23869774.0394
  -5681039.17247  -4422663.86346  21965166.2734                   21965162.7664
  -8477855.18748  -6597913.52446  20116400.7344                   20116396.8754
  -9207064.26648  -7164437.42646  21081123.9924                   21081118.9064
   1251859.51648    980231.43046  20781135.1884                   20781129.6604
  -2054315.40746  -1583024.92043  24659296.6644                   24659295.7734
 11  8 13 16 49 30.0000000  0 11G03G10G16G28G06G08G07G13G19G23G11
  -1684223.73848  -1303873.92245  21355646.1564                   21355642.6844
   2978961.39546   2328529.95744  24061799.2814                   24061798.7234
  20266094.57047  15808252.31644  23731598.8914                   23731595.4104
  -2220881.83646  -1722953.02343  24491976.0864                   24491974.6684
   8611513.91047   6715591.61744  23156940.0784                   23156938.3794
  -4038773.66046  -3139829.03144  23864133.1414                   23864132.1094
  -5696426.25047  -4434653.79346  21962238.1174                   21962234.7814
  -8429415.10548  -6560168.02346  20125618.3984                   20125614.3554
  -9188027.90248  -7149603.88746  21084746.4304                   21084741.3204
   1356687.81648   1061915.78546  20801082.6484                   20801077.6374
  -2091312.19946  -1611853.48043  24652256.4534                   24652255.2544
 11  8 13 16 50  0.0000000  0 11G03G10G16G28G06G08G07G13G19G23G11
  -1590481.37948  -1230827.96545  21373484.4384                   21373481.5434
   3044988.55946   2379979.66044  24074364.0004                   24074363.2154
  20395892.06347  15909393.18044  23756298.9534                   23756295.9024
  -2251754.12147  -1747009.27343  24486101.6884                   24486100.2424
   8724502.54347   6803634.67644  23178440.7504                   23178438.8674
  -4068585.82446  -3163059.24243  23858460.4224                   23858458.7544
  -5711859.08648  -4446679.37945  21959301.4064                   21959297.9884
  -8380485.76648  -6522041.28546  20134929.4064                   20134925.6764
  -9168494.71948  -7134383.21946  21088463.2734                   21088458.4654
   1461908.43048   1143905.83646  20821105.9064                   20821100.5784
  -2128529.20346  -1640853.68443  24645173.7274                   24645173.9964
 11  8 13 16 50 30.0000000  0 11G03G10G16G28G06G08G07G13G19G23G11
  -1496293.24348  -1157434.63145  21391408.2664                   21391404.9104
   3111318.55946   2431665.34444  24086986.5004                   24086984.9414
  20525569.66447  16010440.60543  23780975.7034                   23780972.0704
  -2282512.71947  -1770976.93043  24480248.4614                   24480246.8794
   8837779.76847   6891902.61444  23199997.7274                   23199994.6764
  -4098558.51647  -3186414.54344  23852756.7504                   23852755.3874
  -5727336.19848  -4458739.46346  21956356.4614                   21956352.5234
  -8331066.64548  -6483532.90646  20144333.7814                   20144329.4694
  -9148462.80548  -7118773.92646  21092275.3754                   21092270.6134
   1567520.14848   1226200.65246  20841203.0084                   20841197.7074
  -2165963.54346  -1670023.19543  24638050.0944                   24638050.5474
 11  8 13 16 51  0.0000000  0 11G03G10G16G28G06G08G07G13G19G23G11
  -1401661.34848  -1083695.52045  21409415.5864                   21409412.9614
   3177949.52746   2483585.54743  24099665.7194                   24099664.2774
  20655126.12947  16111393.63744  23805629.1724                   23805625.9454
  -2313156.98047  -1794855.48044  24474416.6644                   24474415.4414
   8951343.25047   6980393.60944  23221607.8674                   23221605.6054
  -4128691.42647  -3209894.65644  23847022.4144                   23847021.2544
  -5742856.69148  -4470833.34845  21953402.7734                   21953399.4494
  -8281157.28548  -6444642.51646  20153831.0864                   20153826.8054
  -9127931.33248  -7102775.36346  21096182.3204                   21096177.4454
   1673521.43848   1308799.02046  20861374.6024                   20861369.0784
  -2203612.76646  -1699360.12543  24630885.5084                   24630885.7194
 11  8 13 16 51 30.0000000  0 11G03G10G16G28G06G08G07G13G19G23G11
  -1306591.44547  -1009615.10245  21427506.5084                   21427503.7854
   3244875.71146   2535735.76644  24112401.8594                   24112399.9774
  20784556.08246  16212248.10244  23830258.7974                   23830255.4804
  -2343690.80947  -1818648.01243  24468606.1334                   24468605.0354
   9065187.17647   7069103.11744  23243271.4304                   23243268.9414
  -4158987.83247  -3233502.21544  23841257.3984                   23841256.3014
  -5758423.24248  -4482963.10946  21950440.6884                   21950437.2814
  -8230760.97348  -6405372.68046  20163421.1804                   20163417.0554
  -9106902.76648  -7086389.46146  21100183.8754                   21100178.9024
   1779906.83648   1391696.69146  20881619.1884                   20881613.8284
  -2241477.84446  -1728865.30143  24623680.5234                   24623679.9184
 11  8 13 16 52  0.0000000  0 11G03G10G16G28G06G08G07G13G19G23G11
  -1211093.46247   -935201.11545  21445679.8364                   21445676.4304
   3312086.80146   2588108.01243  24125191.3054                   24125189.8284
  20913849.84446  16312996.43844  23854862.8914                   23854859.7624
  -2374122.10247  -1842360.61343  24462814.7274                   24462813.9304
   9179300.61547   7158022.63044  23264986.6174                   23264984.0394
  -4189456.00447  -3257243.58244  23835458.9454                   23835458.1334
  -5774043.20347  -4495134.50446  21947468.0704                   21947464.6414
  -8179885.53548  -6365729.50846  20173102.6564                   20173098.3834
  -9085384.52048  -7069621.98446  21104278.6484                   21104273.7154
   1886666.15248   1474885.74246  20901934.6094                   20901929.5704
  -2279564.89046  -1758543.41943  24616432.3524                   24616432.5084
 11  8 13 16 52 30.0000000  0 11G03G10G16G28G06G08G07G13G19G23G11
  -1115166.31647   -860452.72345  21463934.2814                   21463931.1884
   3379583.76247   2640702.98843  24138035.7504                   24138034.3324
  21043008.84447  16413639.77044  23879440.9924                   23879437.8404
  -2404447.32047  -1865990.55943  24457043.9774                   24457043.0514
   9293684.60947   7247153.00044  23286753.2034                   23286750.9344
  -4220092.41547  -3281116.11444  23829629.6954                   23829627.7584
  -5789712.45347  -4507344.29746  21944486.6644                   21944482.6844
  -8128527.26648  -6325710.09846  20182875.6024                   20182871.5664
  -9063372.69948  -7052469.91846  21108467.4064                   21108462.5474
   1993800.78148   1558367.22346  20922321.6884                   20922316.4024
  -2317868.07446  -1788389.94543  24609144.2664                   24609142.9064
 11  8 13 16 53  0.0000000  0 11G03G10G16G28G06G08G07G13G19G23G11
  -1018815.37547   -785374.09045  21482269.1024                   21482266.4414
   3447362.38046   2693517.44843  24150933.1484                   24150931.6604
  21172029.14846  16514175.00443  23903993.3134                   23903989.3284
  -2434669.00847  -1889539.82843  24451293.0084                   24451291.5514
   9408334.29747   7336490.36744  23308570.3444                   23308567.9654
  -4250899.53947  -3305121.62144  23823767.0004                   23823765.7774
  -5805432.67647  -4519593.80946  21941495.0234                   21941491.1414
  -8076689.42648  -6285316.99646  20192740.0394                   20192735.9144
  -9040868.75848  -7034934.37546  21112749.5634                   21112744.6294
   2101306.13748   1642137.59846  20942779.5164                   20942774.0784
  -2356388.02046  -1818405.31643  24601812.9774                   24601813.3244
 11  8 13 16 53 30.0000000  0 11G03G10G16G28G06G08G07G13G19G23G11
   -922040.07047   -709964.80145  21500684.4304                   21500681.9304
   3515422.28946   2746551.10244  24163885.2814                   24163883.2194
  21300911.36747  16614602.62943  23928518.3134                   23928514.8914
  -2464784.72747  -1913006.54743  24445561.8364                   24445560.6214
   9523249.09447   7426034.33244  23330438.1644                   23330435.5554
  -4281875.20347  -3329258.49644  23817872.1254                   23817871.0004
  -5821200.95748  -4531880.77746  21938494.2974                   21938490.9774
  -8024369.30548  -6244548.09846  20202696.1804                   20202692.3834
  -9017869.62148  -7017012.97746  21117126.5554                   21117121.5474
   2209182.45348   1726197.02746  20963307.5234                   20963302.4494
  -2395119.87946  -1848585.93742  24594442.4534                   24594442.9534
 11  8 13 16 54  0.0000000  0 11G03G10G16G28G06G08G07G13G19G23G11
  -2400263.96947  -1861827.60245  21219388.1484                   21219385.5824
   2008338.89247   1572200.38044  23877096.6564                   23877095.2114
  19854233.93446  15487321.50843  23653224.6414                   23653221.0204
  -4070219.80547  -3163994.81643  24140058.0164                   24140056.6134
   8063006.08647   6288182.60944  23052563.0394                   23052560.7934
  -5888444.26247  -4581130.46944  23512152.4694                   23512151.4024
  -7412441.32448  -5771808.33246  21635691.3134                   21635688.3984
  -9546989.77048  -7431005.62946  19912951.3524                   19912947.7344
 -10569798.09448  -8226307.89146  20821804.3594                   20821799.5164
    742007.00848    582943.40246  20684113.4534                   20684108.3554
  -4009487.12946  -3106534.30542  24287238.9774                   24287238.5554
 11  8 13 16 54 30.0000000  0 11G03G10G16G28G06G08G07G13G19G23G11
  -2302658.55548  -1785771.46945  21237961.8364                   21237958.7304
   2076943.49246   1625658.47744  23890152.1024                   23890150.2814
  19982824.09046  15587521.54743  23677694.1564                   23677691.3094
  -4100134.45746  -3187304.86743  24134364.9694                   24134364.1684
   8178432.77347   6378125.43844  23074527.7114                   23074525.3984
  -5919767.07447  -4605537.84844  23506192.3364                   23506190.8324
  -7428314.20748  -5784176.81646  21632670.7274                   21632667.5514
  -9493716.36348  -7389493.89846  19923088.9224                   19923084.5434
 -10545817.64148  -8207621.81646  20826367.2274                   20826362.6374
    850608.12548    667567.60246  20704779.4064                   20704774.4574
  -4048647.00846  -3137048.37142  24279787.4774                   24279786.3914
 11  8 13 16 55  0.0000000  0 11G03G10G16G28G06G08G07G13G19G23G11
  -2204640.94547  -1709394.13745  21256613.7814                   21256611.1054
   2145817.37546   1679326.38543  23903257.8134                   23903256.7664
  20111266.25046  15687606.30943  23702136.3984                   23702133.1684
  -4129947.81246  -3210535.95743  24128691.4224                   24128690.8094
   8294112.10947   6468265.13344  23096540.8054                   23096539.0164
  -5951263.25047  -4630080.27744  23500198.3364                   23500196.7344
  -7444237.57048  -5796584.62146  21629640.7114                   21629637.4774
  -9439966.08248  -7347610.58146  19933317.2974                   19933313.0594
 -10521345.14148  -8188552.33246  20831024.3834                   20831019.4924
    959569.09848    752472.21946  20725514.2504                   20725509.1094
  -4088017.10746  -3167726.29442  24272294.7114                   24272294.5864
 11  8 13 16 55 30.0000000  0 11G03G10G16G28G06G08G07G13G19G23G11
  -2106213.39148  -1632697.36345  21275344.2034                   21275341.3204
   2214958.32446   1733202.39144  23916414.9534                   23916413.9024
  20239559.34447  15787574.90643  23726550.2274                   23726546.4264
  -4159660.16446  -3233688.37143  24123037.7974                   24123036.5044
   8410041.61346   6558599.77044  23118601.3754                   23118599.4844
  -5982932.06647  -4654757.27044  23494172.1024                   23494170.6954
  -7460210.46548  -5809031.04746  21626601.2034                   21626597.5944
  -9385738.76648  -7305355.55146  19943636.3754                   19943632.4924
 -10496379.88348  -8169098.88746  20835775.0234                   20835770.1644
   1068887.91048    837655.66846  20746316.7894                   20746311.5514
  -4127594.89546  -3198566.02743  24264763.6884                   24264762.9924
 11  8 13 16 56  0.0000000  0 11G03G10G16G28G06G08G07G13G19G23G11
  -2007378.89148  -1555683.49645  21294152.0864                   21294148.5274
   2284363.95746   1787284.66444  23929622.3914                   23929621.2704
  20367701.23847  15887425.67243  23750934.4924                   23750930.9614
  -4189271.60246  -3256762.13743  24117403.8284                   24117401.4654
   8526218.57047   6649127.22744  23140709.7034                   23140706.9964
  -6014773.89547  -4679569.05144  23488112.9534                   23488111.4224
  -7476232.67648  -5821515.87946  21623552.2584                   21623548.9614
  -9331034.53948  -7262728.90246  19954046.3054                   19954042.2624
 -10470921.29748  -8149261.02746  20840619.8364                   20840615.2154
   1178562.09448    923116.03946  20767186.9224                   20767181.8484
  -4167378.15246  -3229565.89543  24257192.6724                   24257192.5234
 11  8 13 16 56 30.0000000  0 11G03G10G16G28G06G08G07G13G19G23G11
  -1908143.47347  -1478357.22745  21313035.6884                   21313032.7114
   2354027.66846   1841568.00444  23942879.1334                   23942878.2854
  20495685.91147  15987153.92443  23775289.1724                   23775286.4924
  -4218785.90246  -3279760.23843  24111787.2734                   24111785.3954
   8642635.98847   6739842.08244  23162862.9534                   23162861.2384
  -6046792.73847  -4704518.77044  23482019.7034                   23482017.9384
  -7492307.36648  -5834041.59946  21620493.1484                   21620489.6294
  -9275858.24648  -7219734.41446  19964545.7424                   19964542.0204
 -10444973.28948  -8129041.79746  20845557.0864                   20845552.1094
   1288585.11748   1008848.22746  20788123.9144                   20788118.4734
  -4207368.87546  -3260727.40643  24249582.7194                   24249582.6054
 11  8 13 16 57  0.0000000  0 11G03G10G16G28G06G08G07G13G19G23G11
  -1808512.18747  -1400722.47745  21331994.8754                   21331991.3324
   2423945.24246   1896049.16043  23956184.6254                   23956182.6414
  20623510.22346  16086757.22343  23799613.5704                   23799610.6484
  -4248205.59446  -3302684.59843  24106187.9844                   24106186.1294
   8759289.46547   6830740.84044  23185061.2114                   23185059.8524
  -6078990.25047  -4729607.73043  23475892.9774                   23475890.9804
  -7508435.43748  -5846608.93446  21617424.3364                   21617420.7114
  -9220211.83248  -7176373.59046  19975134.8054                   19975131.0394
 -10418537.27748  -8108442.31246  20850587.9224                   20850583.0474
   1398952.98848   1094849.12146  20809126.0234                   20809121.0784
  -4247566.67246  -3292050.25043  24241933.4144                   24241932.7034
 11  8 13 16 57 30.0000000  0 11G03G10G16G28G06G08G07G13G19G23G11
  -1708482.47347  -1322777.27345  21351030.1094                   21351026.8754
   2494118.66447   1950729.73043  23969538.1414                   23969536.6094
  20751176.76646  16186237.59843  23823907.6564                   23823904.3014
  -4277525.80146  -3325531.41043  24100607.8674                   24100607.3914
   8876180.90647   6921825.04744  23207305.1024                   23207303.2344
  -6111361.88747  -4754832.36744  23469732.9774                   23469730.1024
  -7524611.76648  -5859213.86346  21614346.2034                   21614342.7664
  -9164091.05548  -7132643.14146  19985814.4924                   19985810.5944
 -10391608.02748  -8087458.48046  20855712.5784                   20855707.7074
   1509667.94148   1181120.46946  20830194.4224                   20830189.2234
  -4287964.60546  -3323529.09043  24234245.3754                   24234245.8484
 11  8 13 16 58  0.0000000  0 11G03G10G16G28G06G08G07G13G19G23G11
  -1608054.66047  -1244521.86745  21370140.6954                   21370137.7194
   2564548.00046   2005609.66443  23982940.1094                   23982938.4344
  20878686.71947  16285595.95343  23848172.3674                   23848168.7704
  -4306744.32446  -3348299.00043  24095047.3834                   24095047.2544
   8993310.12547   7013094.52744  23229594.0084                   23229592.1844
  -6143905.44947  -4780190.94944  23463539.9384                   23463538.2344
  -7540832.81648  -5871853.64546  21611259.0314                   21611255.7194
  -9107493.61348  -7088541.26246  19996584.4224                   19996580.4264
 -10364182.60948  -8066088.02746  20860931.2194                   20860926.5864
   1620730.37148   1267662.57846  20851329.0634                   20851323.5594
  -4328557.69546  -3355159.99243  24226520.7814                   24226520.2114
 11  8 13 16 58 30.0000000  0 11G03G10G16G28G06G08G07G13G19G23G11
  -1507228.14147  -1165955.78545  21389327.3674                   21389324.5204
   2635233.55546   2060689.28943  23996390.9614                   23996388.9774
  21006041.02346  16384833.00844  23872406.6884                   23872403.9884
  -4335858.71546  -3370985.45743  24089507.5084                   24089506.1484
   9110677.32047   7104549.44144  23251928.7274                   23251926.0744
  -6176617.77047  -4805681.05544  23457314.8444                   23457313.2194
  -7557095.39048  -5884525.75546  21608164.3364                   21608161.0784
  -9050417.21148  -7044066.16846  20007446.0944                   20007442.0904
 -10336258.06848  -8044328.63646  20866245.6334                   20866240.3204
   1732140.52048   1354475.63746  20872529.9534                   20872525.0904
  -4369341.56646  -3386939.52343  24218760.3834                   24218759.7304
 11  8 13 16 59  0.0000000  0 11G03G10G16G28G06G08G07G13G19G23G11
  -1406007.75047  -1087082.78945  21408589.1564                   21408585.9694
   2706170.87546   2115965.07043  24009889.9774                   24009888.3634
  21133236.75846  16483946.49244  23896611.0394                   23896608.8054
  -4364870.45746  -3393591.90643  24083987.1094                   24083984.3324
   9228278.07447   7196186.35544  23274307.0704                   23274305.1414
  -6209499.95747  -4831303.52044  23451057.2424                   23451055.4224
  -7573400.28948  -5897230.85946  21605062.1094                   21605058.2584
  -8992863.78148  -6999219.35946  20018397.8594                   20018394.1174
 -10307835.99248  -8022181.57046  20871653.8204                   20871648.7704
   1843894.53948   1441556.64546  20893795.8674                   20893790.3404
  -4410315.08246  -3418866.87143  24210962.2734                   24210962.3714
 11  8 13 16 59 30.0000000  0 11G03G10G16G28G06G08G07G13G19G23G11
  -1304386.45747  -1007897.38745  21427926.7424                   21427924.0314
   2777366.91446   2171442.46343  24023437.9614                   24023436.4024
  21260281.46946  16582942.30043  23920787.6804                   23920784.0084
  -4393770.67646  -3416111.48043  24078487.8524                   24078485.0354
   9346118.88747   7288010.32444  23296731.4694                   23296729.3674
  -6242543.01246  -4857051.32844  23444769.4064                   23444767.6374
  -7589737.31647  -5909961.00046  21601952.8054                   21601949.2384
  -8934824.60948  -6953994.05946  20029442.7424                   20029438.8554
 -10278906.36748  -7999638.99646  20877158.7504                   20877153.6094
   1955999.32848   1528910.97446  20915128.4304                   20915123.4534
  -4451466.89146  -3450933.11543  24203131.8674                   24203131.4064
 11  8 13 17  0  0.0000000  0 11G03G10G16G28G06G08G07G13G19G23G11
  -1202363.06647   -928398.66845  21447341.2424                   21447338.0394
   2848822.62546   2227122.18843  24037035.2274                   24037033.8954
  21387177.23447  16681822.05943  23944934.7974                   23944931.2544
  -4422555.67246  -3438541.29743  24073010.5634                   24073007.7704
   9464200.70346   7380022.09844  23319201.4384                   23319199.3054
  -6275743.38346  -4882921.71144  23438451.4224                   23438450.1644
  -7606101.84848  -5922712.60946  21598839.1804                   21598834.9494
  -8876296.43748  -6908387.71146  20040580.0084                   20040575.9144
 -10249465.55548  -7976698.10246  20882761.4614                   20882756.7074
   2068456.54348   1616539.92646  20936528.7424                   20936523.4104
  -4492790.98847  -3483133.62543  24195268.2814                   24195267.8054
 11  8 13 17  0 30.0000000  0 11G03G10G16G28G06G08G07G13G19G23G11
  -1099931.70047   -848582.04445  21466833.6954                   21466830.9064
   2920544.29646   2283009.12743  24050683.6174                   24050682.0274
  21513930.62246  16780590.86943  23969054.8134                   23969052.8284
  -4451217.19247  -3460874.89143  24067556.5554                   24067554.3134
   9582529.24646   7472226.11744  23341718.5944                   23341716.7704
  -6309092.22946  -4908907.80144  23432105.5634                   23432104.0474
  -7622484.79548  -5935478.53346  21595721.3204                   21595717.6684
  -8817271.61848  -6862394.36846  20051811.8914                   20051807.9494
 -10219504.93648  -7953352.16646  20888462.4534                   20888457.8634
   2181271.49648   1704447.63446  20957996.3984                   20957991.4104
  -4534276.47146  -3515459.88943  24187373.8754                   24187373.3094
 11  8 13 17  1  0.0000000  0 11G03G10G16G28G06G08G07G13G19G23G11
   -997088.96948   -768444.88345  21486403.5314                   21486400.8284
   2992535.30946   2339105.94543  24064383.1804                   24064381.2464
  21640546.97346  16879252.89143  23993149.6414                   23993146.2154
  -4479749.21946  -3483107.55543  24062125.9694                   24062124.2504
   9701108.02746   7564625.11744  23364283.6254                   23364281.2464
  -6342583.16846  -4935004.60944  23425732.3834                   23425730.0664
  -7638878.91848  -5948253.16446  21592602.0004                   21592597.9534
  -8757743.83648  -6816009.11346  20063140.1644                   20063135.7894
 -10189017.64848  -7929595.84846  20894264.6024                   20894259.3094
   2294448.48448   1792637.44146  20979533.7814                   20979528.4344
  -4575914.82446  -3547905.25843  24179450.1094                   24179449.6414
 11  8 13 17  1 30.0000000  0 11G03G10G16G28G06G08G07G13G19G23G11
   -893831.72748   -687984.73845  21506053.0864                   21506050.2624
   3064799.53546   2395415.64843  24078135.1414                   24078133.7934
  21767030.20446  16977811.17543  24017218.7734                   24017215.4534
  -4508145.78147  -3505234.65243  24056722.1094                   24056721.1844
   9819940.63946   7657221.89144  23386896.7584                   23386894.8674
  -6376209.91046  -4961207.25844  23419333.4224                   23419331.1024
  -7655277.64848  -5961031.39146  21589481.2894                   21589477.4344
  -8697707.60948  -6769227.66846  20074564.1644                   20074560.3404
 -10157997.60248  -7905424.37946  20900167.6254                   20900161.9924
   2407991.21948   1881112.25846  21001139.7814                   21001135.0164
  -4617697.58447  -3580463.12643  24171499.2584                   24171498.5084
 11  8 13 17  2  0.0000000  0 11G03G10G16G28G06G08G07G13G19G23G11
   -790160.99248   -607202.37945  21525781.0554                   21525778.3284
   3137335.41046   2451937.05543  24091938.0704                   24091936.4694
  21893380.41446  17076265.80943  24041262.4924                   24041259.6484
  -4536405.68047  -3527255.29344  24051345.7664                   24051343.8404
   9939025.47346   7750015.25844  23409558.2664                   23409555.4694
  -6409970.95747  -4987514.52344  23412908.8444                   23412906.9734
  -7671678.29748  -5973811.11746  21586360.0084                   21586356.1724
  -8637162.12948  -6722049.39546  20086085.8444                   20086082.1484
 -10126443.45348  -7880836.74246  20906171.5944                   20906166.5274
   2521898.35548   1969871.00846  21022815.7664                   21022810.8324
  -4659621.14146  -3613130.73043  24163521.5864                   24163520.7664
 11  8 13 17  2 30.0000000  0 11G03G10G16G28G06G08G07G13G19G23G11
   -686070.98048   -526093.30145  21545588.3134                   21545585.4614
   3210149.14146   2508674.95343  24105794.5864                   24105793.1094
  22019605.02346  17174622.59943  24065282.4064                   24065279.2774
  -4564520.59047  -3549162.93744  24045994.5944                   24045993.8324
  10058368.34446   7843009.62944  23432268.5474                   23432266.3914
  -6443857.73647  -5013919.76544  23406460.4534                   23406458.6844
  -7688071.68748  -5986585.17646  21583240.2894                   21583236.7774
  -8576099.32048  -6674468.00846  20097705.6334                   20097701.6094
 -10094346.18748  -7855825.89146  20912279.7894                   20912274.4104
   2636176.44148   2058918.81646  21044562.4064                   21044557.3364
  -4701674.46046  -3645899.41743  24155518.7034                   24155518.1174
 11  8 13 17  3  0.0000000  0 11G03G10G16G28G06G08G07G13G19G23G11
   -581560.39547   -444656.51245  21565476.2814                   21565473.1684
   3283241.78147   2565630.23043  24119704.1334                   24119702.4384
  22145705.95346  17272883.00043  24089278.7344                   24089275.5234
  -4592486.92647  -3570954.81243  24040672.7734                   24040671.2074
  10177970.73046   7936206.25444  23455027.5314                   23455025.3364
  -6477866.13747  -5040419.78144  23399988.7114                   23399986.9884
  -7704452.96148  -5999349.80146  21580123.6174                   21580119.7894
  -8514516.13348  -6626481.14146  20109424.5004                   20109421.0704
 -10061701.94947  -7830388.82446  20918491.7974                   20918486.5634
   2750827.03948   2148256.89846  21066379.7424                   21066374.8874
  -4743850.95346  -3678764.11343  24147492.3204                   24147491.4184
 11  8 13 17  3 30.0000000  0 11G03G10G16G28G06G08G07G13G19G23G11
   -476626.61347   -362889.94945  21585444.2974                   21585441.7034
   3356616.24246   2622805.03143  24133666.2344                   24133665.2034
  22271686.86346  17371049.88343  24113251.7974                   24113248.5044
  -4620299.75146  -3592627.11143  24035379.7504                   24035378.7194
  10297834.86346   8029606.83644  23477837.0474                   23477835.1214
  -6511990.62147  -5067010.25844  23393495.2194                   23393492.8284
  -7720816.24248  -6012100.40646  21577009.2974                   21577006.0944
  -8452408.00848  -6578085.21946  20121243.5004                   20121239.4144
 -10028505.71548  -7804521.64146  20924808.9454                   20924803.5824
   2865852.67648   2237887.20346  21088268.1564                   21088263.1174
  -4786143.77746  -3711719.42643  24139443.7584                   24139443.4414
 11  8 13 17  4  0.0000000  0 11G03G10G16G28G06G08G07G13G19G23G11
   -371272.21947   -280795.66045  21605492.8674                   21605490.3244
   3430270.01246   2680197.54343  24147681.6564                   24147680.8164
  22397546.71946  17469122.42243  24137202.4224                   24137198.6994
  -4647958.95746  -3614179.68443  24030116.3204                   24030115.3404
  10417958.26246   8123209.42244  23500695.8524                   23500693.6604
  -6546230.30147  -5093690.50844  23386979.5394                   23386977.0354
  -7737160.32048  -6024836.04746  21573899.1484                   21573895.3984
  -8389775.14848  -6529280.41846  20133161.9384                   20133158.2194
  -9994757.01648  -7778223.94946  20931230.8674                   20931225.8324
   2981250.91448   2327807.85246  21110227.9454                   21110223.0274
  -4828549.88346  -3744763.03143  24131374.3364                   24131373.4694
 11  8 13 17  4 30.0000000  0 11G03G10G16G28G06G08G07G13G19G23G11
   -265494.39847   -198371.42245  21625622.0394                   21625619.0904
   3504205.72346   2737809.77743  24161751.0634                   24161749.9924
  22523289.48046  17567103.72743  24161130.7664                   24161127.1024
  -4675459.04746  -3635608.25843  24024883.1024                   24024882.0314
  10538343.59046   8217016.14144  23523603.8364                   23523602.5944
  -6580580.41447  -5120456.80944  23380443.0554                   23380440.4844
  -7753478.40648  -6037551.44546  21570793.7194                   21570790.3874
  -8326612.46948  -6480062.76646  20145181.8054                   20145177.4804
  -9960450.07448  -7751491.27746  20937759.1644                   20937754.4104
   3097024.74248   2418021.17646  21132258.8754                   21132253.8364
  -4871061.40646  -3777888.77043  24123285.3134                   24123284.0234
 11  8 13 17  5  0.0000000  0 11G03G10G16G28G06G08G07G13G19G23G11
   -159295.14847   -115618.78545  21645830.4924                   21645827.6454
   3578422.34846   2795640.82043  24175874.0164                   24175872.8754
  22648914.93846  17664993.66443  24185036.1644                   24185033.1914
  -4702799.38346  -3656912.38743  24019680.5704                   24019679.1914
  10658989.47746   8311025.86343  23546563.6644                   23546560.9414
  -6615038.98447  -5147307.59844  23373885.5394                   23373883.1884
  -7769768.92648  -6050245.33646  21567694.1884                   21567690.8364
  -8262919.88748  -6430432.20346  20157301.8984                   20157297.8324
  -9925584.20748  -7724323.07446  20944393.9774                   20944388.8754
   3213172.99648   2508526.24646  21154361.3834                   21154356.4694
  -4913674.59446  -3811093.74243  24115175.9454                   24115174.7894
 11  8 13 17  5 30.0000000  0 11G03G10G16G28G06G08G07G13G19G23G11
    -52678.62947    -32541.01645  21666119.1804                   21666116.5864
   3652914.96546   2853686.93443  24190049.2344                   24190048.6254
  22774419.92246  17762789.70743  24208918.6644                   24208916.2584
  -4729981.96946  -3678093.57443  24014508.1174                   24014506.5394
  10779891.04546   8405234.83244  23569569.6414                   23569567.9104
  -6649607.82447  -5174244.33644  23367307.3284                   23367304.6414
  -7786032.59048  -6062918.31846  21564598.9844                   21564595.5944
  -8198699.95948  -6380390.73546  20169522.5634                   20169518.8634
  -9890160.96947  -7696720.55146  20951134.7114                   20951129.7814
   3329691.22748   2599319.60946  21176534.1024                   21176528.6374
  -4956389.29746  -3844377.82043  24107047.2114                   24107046.2234
 11  8 13 17  6  0.0000000  0 11G03G10G16G28G06G08G07G13G19G23G11
     54353.46547     50860.58645  21686486.6884                   21686483.9024
   3727682.28146   2911947.10943  24204276.3754                   24204275.9384
  22899803.82446  17860491.37143  24232778.4384                   24232775.7384
  -4757006.43746  -3699151.54343  24009365.2504                   24009364.4694
  10901046.62946   8499641.75444  23592624.5554                   23592622.6374
  -6684285.98447  -5201266.23844  23360708.4924                   23360705.7664
  -7802267.52348  -6075568.92646  21561509.7344                   21561506.0744
  -8133952.57848  -6329938.25846  20181843.2344                   20181839.5514
  -9854179.75047  -7668683.24646  20957981.6094                   20957976.7774
   3446577.55548   2690399.82046  21198777.1174                   21198772.4384
  -4999202.18446  -3877738.39143  24098900.1564                   24098899.1414
 11  8 13 17  6 30.0000000  0 11G03G10G16G28G06G08G07G13G19G23G11
    161795.29747    134581.46145  21706932.3674                   21706929.6214
   3802718.52746   2970416.85542  24218555.9924                   24218555.3954
  23025062.08646  17958095.16443  24256614.2974                   24256611.7814
  -4783875.26646  -3720088.24243  24004252.5864                   24004251.3284
  11022450.69947   8594242.26244  23615726.9224                   23615725.2704
  -6719075.53947  -5228374.95344  23354087.9614                   23354085.6134
  -7818475.42248  -6088198.44946  21558425.5314                   21558422.1994
  -8068681.13748  -6279077.41446  20194264.5554                   20194260.3594
  -9817643.08647  -7640213.12946  20964934.2974                   20964929.3484
   3563827.24648   2781763.15245  21221089.0784                   21221083.9844
  -5042113.21146  -3911175.43443  24090734.4454                   24090733.5164
 11  8 13 17  7  0.0000000  0 11G03G10G16G28G06G08G07G13G19G23G11
    269641.97747    218617.79745  21727454.6724                   21727451.8984
   3878018.83246   3029092.33243  24232885.7734                   24232884.9734
  23150191.60546  18055598.62143  24280425.1254                   24280422.9494
  -4810591.25446  -3740905.82443  23999168.5704                   23999167.0704
  11144098.33247   8689032.59844  23638875.9454                   23638874.4964
  -6753978.20747  -5255571.82844  23347446.4774                   23347443.1844
  -7834657.50448  -6100807.86346  21555346.5944                   21555342.2584
  -8002888.53148  -6227810.47746  20206784.1484                   20206780.0474
  -9780553.36348  -7611312.05146  20971992.6094                   20971987.2544
   3681435.20748   2873405.65646  21243469.1884                   21243464.0824
  -5085122.28546  -3944688.92643  24082550.1414                   24082549.0084
 11  8 13 17  7 30.0000000  0 11G03G10G16G28G06G08G07G13G19G23G11
    377885.73447    302963.54345  21748052.7584                   21748049.7424
   3953575.53946   3087967.62943  24247264.4844                   24247263.3204
  23275186.07046  18152996.85243  24304211.6724                   24304208.3834
  -4837159.39146  -3761608.23443  23994112.8364                   23994111.2774
  11265981.95347   8784006.77744  23662070.1484                   23662067.6414
  -6788998.81247  -5282860.58244  23340781.9144                   23340779.3914
  -7850817.77348  -6113400.26646  21552270.8444                   21552267.1994
  -7936580.63748  -6176142.01646  20219402.4534                   20219398.3594
  -9742915.55148  -7581983.89846  20979154.6254                   20979149.5354
   3799394.19548   2965321.70346  21265915.7194                   21265910.7034
  -5128231.54346  -3978280.42243  24074347.2034                   24074345.1094
 11  8 13 17  8  0.0000000  0 11G03G10G16G28G06G08G07G13G19G23G11
    486523.29747    387616.15645  21768725.7194                   21768722.9654
   4029385.50846   3147040.26643  24261690.3204                   24261689.7734
  23400043.36346  18250288.17243  24327970.7504                   24327967.8014
  -4863581.05146  -3782196.47743  23989085.1644                   23989082.3874
  11388098.04747   8879162.12144  23685307.7734                   23685306.5984
  -6824137.87547  -5310241.66444  23334095.2664                   23334092.8134
  -7866955.66448  -6125975.24646  21549200.1334                   21549196.3484
  -7869758.64548  -6124072.96146  20232118.2664                   20232114.1454
  -9704730.72748  -7552229.49646  20986421.1484                   20986415.7154
   3917700.66448   3057508.50045  21288428.9224                   21288423.7664
  -5171439.55946  -4011948.91843  24066125.0784                   24066123.1914
 11  8 13 17  8 30.0000000  0 11G03G10G16G28G06G08G07G13G19G23G11
    595552.62147    472574.04745  21789473.3204                   21789471.0704
   4105446.93446   3206308.80943  24276164.4694                   24276163.7774
  23524763.05146  18347472.25443  24351705.1884                   24351701.7934
  -4889855.22746  -3802669.82443  23984085.4844                   23984083.1604
  11510444.77046   8974497.19944  23708589.9774                   23708587.2424
  -6859393.81647  -5337713.81644  23327386.5554                   23327383.4804
  -7883069.66848  -6138531.59046  21546133.7894                   21546130.2974
  -7802422.53548  -6071603.28946  20244931.8054                   20244927.7344
  -9665998.16848  -7522048.28146  20993791.7894                   20993786.7384
   4036353.39548   3149965.10945  21311007.8834                   21311002.7034
  -5214742.89546  -4045691.64543  24057884.1414                   24057882.9224
 11  8 13 17  9  0.0000000  0 11G03G10G16G28G06G08G07G13G19G23G11
    704972.14547    557835.98045  21810295.4774                   21810292.7544
   4181758.50046   3265772.30543  24290686.0474                   24290685.2624
  23649345.12946  18444549.13743  24375411.6484                   24375408.7774
  -4915980.78546  -3823027.34043  23979113.7664                   23979111.4694
  11633020.64546   9070010.80144  23731915.0474                   23731913.1884
  -6894765.13747  -5365275.86744  23320655.1334                   23320652.3954
  -7899157.37548  -6151067.45746  21543072.5554                   21543068.5864
  -7734572.18448  -6018732.91046  20257843.4844                   20257839.8754
  -9626716.54348  -7491439.23846  21001266.6804                   21001261.4774
   4155350.87948   3242690.35545  21333652.0234                   21333647.0554
  -5258137.80946  -4079505.77043  24049625.9064                   24049624.9654
 11  8 13 17  9 30.0000000  0 11G03G10G16G28G06G08G07G13G19G23G11
    814777.84447    643398.83245  21831190.7584                   21831188.1454
   4258316.39846   3325427.72343  24305254.8834                   24305253.9534
  23773786.96146  18541516.73443  24399092.3524                   24399089.7464
  -4941959.37546  -3843270.32743  23974169.6174                   23974167.7034
  11755821.77746   9165699.93544  23755283.2584                   23755281.1844
  -6930252.91047  -5392928.64844  23313902.0234                   23313899.8794
  -7915218.70348  -6163582.78146  21540015.9694                   21540012.2274
  -7666209.59048  -5965463.38346  20270852.2974                   20270848.3914
  -9586887.34848  -7460403.50446  21008846.1804                   21008840.5434
   4274689.13348   3335681.14546  21356361.5554                   21356356.2464
  -5301622.49246  -4113389.81643  24041351.3444                   24041349.6804
 11  8 13 17 10  0.0000000  0 11G03G10G16G28G06G08G07G13G19G23G11
    924965.00047    729258.93045  21852158.8134                   21852156.3324
   4335115.65646   3385271.23243  24319868.9144                   24319867.5084
  23898085.24246  18638372.51643  24422746.2114                   24422742.5944
  -4967793.63346  -3863400.85943  23969254.2974                   23969251.8324
  11878843.40246   9261560.88744  23778693.5314                   23778691.6604
  -6965858.68047  -5420673.39144  23307126.3134                   23307124.0984
  -7931254.73848  -6176078.38346  21536964.3524                   21536960.4024
  -7597337.62548  -5911796.94546  20283958.1644                   20283954.4964
  -9546513.05148  -7428943.02046  21016528.9224                   21016523.9104
   4394363.81348   3428934.08246  21379134.9774                   21379130.4574
  -5345197.08647  -4147343.93043  24033059.0944                   24033057.7974
 11  8 13 17 10 30.0000000  0 11G03G10G16G28G06G08G07G13G19G23G11
   1035528.41447    815412.19145  21873198.4064                   21873195.4964
   4412151.12946   3445298.78143  24334528.4304                   24334527.5474
  24022236.44946  18735113.60543  24446370.9694                   24446368.1604
  -4993485.85947  -3883420.70343  23964364.7194                   23964362.0314
  12002080.37147   9357589.64143  23802144.8364                   23802142.8054
  -7001584.30147  -5448511.52344  23300328.1174                   23300325.3284
  -7947266.74648  -6188555.27046  21533917.1564                   21533913.6334
  -7527959.51648  -5857736.10946  20297160.4614                   20297156.5984
  -9505596.18748  -7397059.74246  21024315.0234                   21024310.0474
   4514369.76248   3522445.14845  21401971.2424                   21401966.5474
  -5388861.19546  -4181367.82043  24024749.7194                   24024748.3794
 11  8 13 17 11  0.0000000  0 11G03G10G16G28G06G08G07G13G19G23G11
   1146461.49647    901853.53545  21894308.1884                   21894305.4734
   4489416.57446   3505505.55943  24349231.3914                   24349230.4734
  24146235.49246  18831736.17243  24469967.0704                   24469964.3954
  -5019039.99647  -3903332.98843  23959501.9694                   23959499.8094
  12125526.47346   9453781.33643  23825635.6884                   23825633.5594
  -7037432.79747  -5476445.39844  23293506.2424                   23293504.2194
  -7963257.23448  -6201015.38346  21530874.2114                   21530871.1054
  -7458079.77748  -5803284.39846  20310458.3204                   20310453.9614
  -9464140.63348  -7364756.73046  21032204.0394                   21032198.9304
   4634700.63348   3616209.40246  21424869.7814                   21424864.7894
  -5432615.83247  -4215462.22343  24016423.5864                   24016422.8324
 11  8 13 17 11 30.0000000  0 11G03G10G16G28G06G08G07G13G19G23G11
   1257763.27348    988582.16445  21915488.4224                   21915485.5514
   4566911.00046   3565890.75843  24363978.2584                   24363977.3054
  24270082.83246  18928240.52343  24493534.4064                   24493532.4144
  -5044455.01647  -3923136.84043  23954665.8914                   23954663.3594
  12249180.41047   9550135.02044  23849166.8204                   23849164.0784
  -7073402.02747  -5504473.34044  23286661.7814                   23286659.3444
  -7979223.60248  -6213456.69946  21527835.8754                   21527832.5864
  -7387697.83648  -5748441.34446  20323851.3204                   20323847.6884
  -9422145.16048  -7332032.98446  21040195.3054                   21040190.1024
   4755355.56348   3710226.16846  21447829.3054                   21447824.5704
  -5476456.80946  -4249623.93743  24008081.1334                   24008079.3244
 11  8 13 17 12  0.0000000  0 11G03G10G16G28G06G08G07G13G19G23G11
   1369424.42247   1075590.81345  21936736.7664                   21936733.9064
   4644625.18146   3626447.22643  24378766.8284                   24378765.4344
  24393771.14946  19024620.95543  24517071.0944                   24517069.6094
  -5069737.41447  -3942837.34443  23949854.1804                   23949852.2584
  12373033.08646   9646643.53543  23872734.9064                   23872732.7074
  -7109498.19947  -5532600.19944  23279793.4384                   23279790.5044
  -7995171.02347  -6225883.26646  21524801.4534                   21524797.7974
  -7316821.28548  -5693212.89546  20337338.5944                   20337334.9654
  -9379616.39848  -7298893.69946  21048288.4064                   21048282.8874
   4876325.65648   3804488.51646  21470849.1954                   21470844.6564
  -5520388.11746  -4283856.04343  23999720.7974                   23999719.1214
 11  8 13 17 12 30.0000000  0 11G03G10G16G28G06G08G07G13G19G23G11
   1481457.25047   1162889.08645  21958055.9064                   21958053.0634
   4722571.52046   3687184.57043  24393599.5784                   24393598.7384
  24517314.75246  19120888.60943  24540581.3444                   24540578.9104
  -5094872.30546  -3962422.92643  23945071.2974                   23945069.2854
  12497096.92246   9743316.60243  23896343.7734                   23896341.3244
  -7145705.89147  -5560813.96544  23272902.8444                   23272901.0394
  -8011083.36748  -6238282.49246  21521773.3134                   21521769.8284
  -7245435.70747  -5637587.80146  20350922.5314                   20350919.3014
  -9336539.69947  -7265327.44146  21056485.2664                   21056480.6094
   4997623.11748   3899005.94545  21493931.5164                   21493926.4304
  -5564391.64846  -4318144.42243  23991347.9844                   23991346.3364
 11  8 13 17 13  0.0000000  0 11G03G10G16G28G06G08G07G13G19G23G11
   1593837.64847   1250458.18845  21979441.2274                   21979438.4804
   4800726.05946   3748084.14543  24408471.8984                   24408470.6054
  24640689.93046  19217025.05543  24564059.0554                   24564056.0824
  -5119881.53746  -3981910.60043  23940312.2734                   23940310.0784
  12621347.89146   9840135.45744  23919987.6484                   23919985.8674
  -7182045.58247  -5589130.60544  23265987.7424                   23265985.4144
  -8026980.57448  -6250669.93046  21518748.2664                   21518744.5164
  -7173563.44148  -5581583.46546  20364599.9534                   20364595.9224
  -9292936.88748  -7231351.23046  21064782.8594                   21064777.2934
   5119224.26248   3993760.03145  21517071.3524                   21517066.5944
  -5608486.30146  -4352503.79343  23982956.3834                   23982954.5704
 11  8 13 17 13 30.0000000  0 11G03G10G16G28G06G08G07G13G19G23G11
   1706572.39547   1338303.42645  22000894.3204                   22000891.3874
   4879096.00446   3809151.56343  24423384.9064                   24423383.7624
  24763906.09146  19313037.59443  24587506.2344                   24587503.4614
  -5144755.34746  -4001292.74444  23935578.1954                   23935576.4304
  12745793.23847   9937105.80943  23943669.0474                   23943667.4264
  -7218506.95347  -5617542.03544  23259049.2034                   23259047.0864
  -8042851.79748  -6263037.10946  21515728.2894                   21515724.5864
  -7101195.92248  -5525193.21546  20378370.7734                   20378366.9344
  -9248798.19948  -7196957.44946  21073181.9614                   21073177.1054
   5241136.33248   4088756.38745  21540270.5314                   21540265.4924
  -5652659.46146  -4386924.36343  23974550.4614                   23974548.4534
 11  8 13 17 14  0.0000000  0 11G03G10G16G28G06G08G07G13G19G23G11
   1819652.18047   1426417.51245  22022412.3364                   22022409.4804
   4957671.90246   3870379.45743  24438337.3754                   24438337.0314
  24886955.07046  19408919.85243  24610922.0784                   24610919.5204
  -5169500.96546  -4020574.99643  23930869.5164                   23930867.9734
  12870423.43446  10034220.18444  23967385.6724                   23967383.4144
  -7255096.59447  -5646053.43044  23252086.3444                   23252084.6684
  -8058702.34448  -6275388.17646  21512711.9304                   21512708.1054
  -7028340.71948  -5468422.95346  20392234.6954                   20392231.2034
  -9204130.96948  -7162151.82446  21081681.9694                   21081676.9264
   5363350.02348   4183987.77345  21563527.2974                   21563522.0824
  -5696915.42246  -4421409.44543  23966129.0314                   23966126.5164
 11  8 13 17 14 30.0000000  0 11G03G10G16G28G06G08G07G13G19G23G11
   1933070.61747   1514795.46944  22043995.0634                   22043992.2504
   5036447.71546   3931763.12543  24453328.4844                   24453327.7974
  25009832.62946  19504668.52343  24634304.5944                   24634302.2154
  -5194121.84846  -4039760.04743  23926184.4304                   23926182.7774
  12995232.58246  10131473.99644  23991136.3914                   23991133.9924
  -7291817.25447  -5674666.91444  23245098.8754                   23245096.6884
  -8074534.61348  -6287725.01246  21509699.0394                   21509695.1174
  -6955002.51648  -5411276.33246  20406190.8134                   20406186.7814
  -9158938.85948  -7126937.19546  21090281.9064                   21090276.7854
   5485859.08648   4279449.31345  21586839.8754                   21586835.1764
  -5741254.86746  -4455959.57843  23957691.6884                   23957689.6684
 11  8 13 17 15  0.0000000  0 11G03G10G16G28G06G08G07G13G19G23G11
   2046835.02347   1603443.02345  22065643.8754                   22065641.4534
   5115430.60246   3993308.14543  24468358.7664                   24468358.1644
  25132547.94946  19600290.77343  24657655.9924                   24657654.1214
  -5218608.26246  -4058840.32443  23921525.3914                   23921522.8404
  13120228.01647  10228872.99643  24014921.7274                   24014919.7584
  -7328657.88347  -5703373.87944  23238087.8984                   23238086.2424
  -8090337.25048  -6300038.74646  21506692.1564                   21506688.1054
  -6881172.15648  -5353746.20746  20420239.9924                   20420236.2854
  -9113212.40647  -7091306.19946  21098983.5634                   21098978.2274
   5608671.08648   4375146.90645  21610210.6334                   21610205.3554
  -5785664.92247  -4490564.74243  23949240.4844                   23949239.0554
 11  8 13 17 15 30.0000000  0 11G03G10G16G28G06G08G07G13G19G23G11
   2160934.27047   1692351.48845  22087356.2194                   22087353.7774
   5194609.64846   4055006.04343  24483425.8984                   24483425.3984
  25255091.27746  19695779.02343  24680976.0634                   24680972.8594
  -5242969.10946  -4077822.76244  23916889.6174                   23916887.5354
  13245398.55947  10326408.42244  24038741.3134                   24038739.1914
  -7365626.40247  -5732180.50444  23231052.8284                   23231050.8594
  -8106117.36348  -6312334.93046  21503688.8834                   21503685.0784
  -6806859.07048  -5295839.94146  20434381.1484                   20434377.4884
  -9066960.55947  -7055265.80546  21107784.5554                   21107779.1024
   5731774.98448   4471071.96145  21633636.1884                   21633631.2894
  -5830151.53546  -4525229.53943  23940774.3524                   23940773.0944
 11  8 13 17 16  0.0000000  0 11G03G10G16G28G06G08G07G13G19G23G11
    699956.42247    553927.15645  21809341.2194                   21809338.4024
   3698572.02746   2889262.35243  24198738.7974   24198738.4654   23802052.59446
  18563541.00043                  24404472.2664                   24404469.2304
  -6842618.16046  -5324302.48444  23612485.4924                   23612484.0354
  11795332.94546   9196487.11743  23762802.8594                   23762800.4414
  -8978136.44147  -6988681.82044  22924201.9454                   22924200.3554
  -9697286.84048  -7552207.26246  21200899.4924                   21200895.5274
  -8307474.28148  -6465150.52046  20148823.1804                   20148819.6174
 -10595594.84848  -8246409.41446  20816895.5634                   20816890.1054
   4279759.53548   3339631.28145  21357327.1954                   21357322.2624
  -7450126.07446  -5787547.31243  23632503.5234                   23632502.3984
 11  8 13 17 16 30.0000000  0 11G03G10G16G28G06G08G07G13G19G23G11
    814726.93447    643358.68444  21831181.7194                   21831178.9344
   3778145.59446   2951267.67243  24213882.0004   24213881.2544   23924259.22746
  18658766.96942                  24427727.0234                   24427723.7584
  -6866718.10946  -5343081.60543  23607899.9064                   23607897.7074
  11920856.25446   9294297.43044  23786688.7504                   23786687.4804
  -9015348.50447  -7017678.21144  22917120.8754                   22917118.5704
  -9713007.50048  -7564457.11346  21197907.9614                   21197904.2194
  -8232188.39148  -6406486.22746  20163150.2664                   20163146.9144
 -10548282.81648  -8209542.90246  20825898.5634                   20825893.2424
   4403449.57848   3436013.05545  21380864.5164                   21380859.9574
  -7494746.65246  -5822316.52343  23624012.1174                   23624011.0394
 11  8 13 17 17  0.0000000  0 11G03G10G16G28G06G08G07G13G19G23G11
    929824.24647    733044.86745  21853084.0634                   21853080.9574
   3857907.47247   3013419.71144  24229059.9454   24229059.6094   24046291.49646
  18753856.95743                  24450948.9614                   24450946.0664
  -6890692.40246  -5361762.80943  23603337.1884                   23603335.6804
  12046547.46546   9392238.57043  23810607.5234                   23810605.5434
  -9052685.85547  -7046772.24244  22910016.3754                   22910013.6724
  -9728700.95748  -7576685.78146  21194921.4614                   21194917.9144
  -8156422.57048  -6347447.94546  20177567.7584                   20177564.0314
 -10500446.50048  -8172267.86346  20835001.4454                   20834996.2504
   4527424.26248   3532616.64145  21404456.2194                   21404451.4494
  -7539434.75646  -5857138.36343  23615508.5784                   23615507.1914
 11  8 13 17 17 30.0000000  0 11G03G10G16G28G06G08G07G13G19G23G11
   1045250.25047    822987.18045  21875048.7504                   21875045.8594
   3937859.77046   3075720.10944  24244274.5394   24244273.4694   24168152.65646
  18848813.62542                  24474137.8134                   24474135.7894
  -6914537.40647  -5380343.28944  23598799.8984                   23598797.9964
  12172408.36746   9490311.92244  23834558.1024                   23834556.2344
  -9090143.38347  -7075959.89844  22902888.2114                   22902886.1374
  -9744361.62548  -7588888.90246  21191941.5234                   21191937.4884
  -8080173.54348  -6288033.15646  20192077.5784                   20192073.7114
 -10452081.40248  -8134580.77746  20844205.3984                   20844199.7664
   4651685.28148   3629443.34045  21428102.2344                   21428097.4694
  -7584183.06646  -5892007.11743  23606992.9454                   23606991.3094
 11  8 13 17 18  0.0000000  0 11G03G10G16G28G06G08G07G13G19G23G11
   1161004.39447    913185.17045  21897076.1484                   21897073.2814
   4018002.15246   3138168.62943  24259524.7894   24259524.3054   24289844.13746
  18943638.05142                  24497294.9844                   24497293.7034
  -6938250.89546  -5398821.28544  23594287.4694                   23594285.5704
  12298438.62546   9588517.23443  23858541.0394                   23858538.9694
  -9127718.34847  -7105239.08144  22895737.8204                   22895736.2624
  -9759985.62548  -7601063.44546  21188968.0784                   21188964.4144
  -8003440.17248  -6228240.95346  20206679.6564                   20206676.0664
 -10403186.01448  -8096480.47446  20853509.3364                   20853504.4774
   4776232.24248   3726492.85545  21451802.7344                   21451798.3404
  -7628986.51246  -5926918.82443  23598467.0634                   23598465.7854
 11  8 13 17 18 30.0000000  0 11G03G10G16G28G06G08G07G13G19G23G11
   1277084.42247   1003637.11744  21919166.0314                   21919162.2464
   4098332.92247   3200763.98444  24274811.6564   24274810.7424   24411366.00846
  19038330.36343                  24520420.2344                   24520418.1374
  -6961831.94547  -5417196.07044  23589799.6884                   23589798.0904
  12424636.48446   9686853.19943  23882555.7974                   23882553.9304
  -9165409.07447  -7134608.43444  22888565.8444                   22888563.3284
  -9775571.07048  -7613207.94946  21186002.8054                   21185999.0394
  -7926222.78148  -6168071.59046  20221373.9384                   20221369.8244
 -10353760.10548  -8057966.78546  20862915.3444                   20862909.8954
   4901063.44948   3823763.86345  21475557.7974                   21475552.7934
  -7673841.41046  -5961870.62543  23589932.1334                   23589929.6054
 11  8 13 17 19  0.0000000  0 11G03G10G16G28G06G08G07G13G19G23G11
   1393490.10547   1094342.80544  21941316.5164                   21941313.6374
   4178851.33647   3263505.51644  24290133.7344   24290133.0354   24532719.58246
  19132891.48843                  24543513.5864                   24543510.6764
  -6985278.71547  -5435466.22343  23585337.9384                   23585336.6214
  12551001.73846   9785319.54343  23906601.2034                   23906600.5704
  -9203212.19147  -7164065.40044  22881372.8054                   22881370.0554
  -9791114.02348  -7625319.34046  21183045.0394                   21183041.5004
  -7848520.00848  -6107524.01646  20236160.1094                   20236156.2544
 -10303802.14848  -8019038.51646  20872421.4694                   20872416.8444
   5026178.94548   3921256.37945  21499366.4774                   21499361.2814
  -7718742.90247  -5996858.75443  23581387.3754                   23581385.3014
 11  8 13 17 19 30.0000000  0 11G03G10G16G28G06G08G07G13G19G23G11
   1510223.75047   1185304.04744  21963530.4614                   21963527.7074
   4259560.14847   3326395.43444  24305492.3284   24305491.7234   24653909.29746
  19227324.94943                  24566575.4844                   24566572.6374
  -7008586.39846  -5453628.02044  23580903.5394                   23580901.2424
  12677537.10246   9883918.46944  23930681.0084                   23930679.7274
  -9241121.64847  -7193605.20344  22874158.5234                   22874155.7344
  -9806607.83648  -7637392.45346  21180096.1644                   21180092.5394
  -7770327.84848  -6046595.08646  20251039.2034                   20251035.6524
 -10253307.29348  -7979691.88346  20882030.5634                   20882025.4384
   5151580.98048   4018972.19145  21523229.7114                   21523224.6094
  -7763682.51246  -6031876.54343  23572834.9454                   23572833.7504
 11  8 13 17 20  0.0000000  0 11G03G10G16G28G06G08G07G13G19G23G11
   1627289.92247   1276524.39844  21985807.2814                   21985804.4344
   4340464.36746   3389437.58243  24320888.2114   24320886.5164   24774941.43446
  19321635.62543                  24589607.0164                   24589604.4844
  -7031747.80947  -5471675.82044  23576495.6954                   23576493.1884
  12804247.27046   9982653.57043  23954793.1484                   23954790.7934
  -9279129.30547  -7223221.54744  22866925.2274                   22866922.9024
  -9822043.71548  -7649420.41846  21177159.1024                   21177155.6174
  -7691640.31648  -5985280.15646  20266013.0474                   20266009.6564
 -10202268.67648  -7939921.53546  20891742.4534                   20891737.4264
   5277274.46148   4116915.09045  21547148.0394                   21547143.5474
  -7808649.98847  -6066916.07443  23564277.8674                   23564276.8054
 11  8 13 17 20 30.0000000  0 11G03G10G16G28G06G08G07G13G19G23G11
   1744685.69547   1368001.59844  22008147.2034                   22008144.7974
   4421560.52346   3452629.33743  24336320.0634   24336319.4964   24895815.35946
  19415823.06343                  24612608.4614                   24612606.5004
  -7054763.55147  -5489610.10243  23572115.6254                   23572113.5044
  12931129.39146  10081522.70743  23978937.6564                   23978936.0314
  -9317234.71947  -7252914.05544  22859674.4384                   22859671.9384
  -9837420.33248  -7661402.18746  21174233.0004                   21174229.6024
  -7612458.97748  -5923580.44546  20281081.1024                   20281077.1884
 -10150686.99248  -7899728.01646  20901558.4534                   20901553.2584
   5403256.20748   4215082.61345  21571121.7584                   21571116.8984
  -7853642.85947  -6101975.36743  23555716.1954                   23555714.4804
 11  8 13 17 21  0.0000000  0 11G03G10G16G28G06G08G07G13G19G23G11
   1862411.75447   1459736.15245  22030549.0164                   22030547.3794
   4502850.09846   3515971.78943  24351789.4224   24351788.2664   25016533.41846
  19509889.03143                  24635580.4694                   24635577.4924
  -7077630.02747  -5507428.10544  23567764.9304                   23567762.1054
  13058184.82046  10180526.84843  24003115.9064                   24003114.1174
  -9355433.18447  -7282679.07044  22852405.7584                   22852403.2544
  -9852732.46148  -7673333.72746  21171319.2194                   21171315.4064
  -7532781.17248  -5861493.87146  20296243.2734                   20296239.5864
 -10098559.64548  -7859109.31646  20911477.9534                   20911472.8834
   5529527.60548   4313475.84445  21595150.3834                   21595145.6334
  -7898654.61347  -6137049.40243  23547151.0634                   23547149.0314
 11  8 13 17 21 30.0000000  0 11G03G10G16G28G06G08G07G13G19G23G11
   1980469.31247   1551729.01644  22053015.0084                   22053012.8484
   4584333.82046   3579465.53143  24367294.7584   24367294.2814   25137098.40646
  19603835.74643                  24658523.2734                   24658520.7624
  -7100344.32047  -5525127.52044  23563442.2274                   23563439.8094
  13185414.27046  10279666.60243  24027326.6804                   24027325.2274
  -9393720.56247  -7312513.37944  22845119.3204                   22845116.9144
  -9867975.37148  -7685211.30946  21168418.6334                   21168415.1564
  -7452604.56648  -5799018.62946  20311500.4534                   20311496.4924
 -10045883.80548  -7818063.20746  20921501.8754                   20921496.8674
   5656089.36348   4412095.32445  21619234.4924                   21619229.8754
  -7943678.83247  -6172133.13743  23538582.6644                   23538581.4804
 11  8 13 17 22  0.0000000  0 11G03G10G16G28G06G08G07G13G19G23G11
   2098860.61747   1643981.93744  22075543.8134                   22075542.0044
   4666014.16046   3643112.50043  24382838.4064   24382837.7274   25257514.74646
  19697666.58243                  24681438.1954                   24681434.5554
  -7122901.25847  -5542704.31644  23559149.8984                   23559146.4414
  13312820.40646  10378944.05543  24051571.4384                   24051569.5044
  -9432090.68447  -7342412.15244  22837817.8444                   22837815.6024
  -9883142.38748  -7697029.75846  21165532.2664                   21165528.6604
  -7371925.57848  -5736151.91046  20326853.1564                   20326849.5744
  -9992654.58648  -7776585.91046  20931630.8594                   20931625.8874
   5782944.18448   4510943.16045  21643373.8364                   21643369.5044
  -7988707.18047  -6207220.10543  23530013.9304                   23530012.6724
 11  8 13 17 22 30.0000000  0 11G03G10G16G28G06G08G07G13G19G23G11
   2217584.73047   1736494.20344  22098136.7344                   22098134.6134
   4747890.69946   3706912.27743  24398418.8674   24398418.4144   25377784.02046
  19791382.83243                  24704324.0634                   24704321.2234
  -7145298.96547  -5560157.02343  23554887.3134                   23554884.6804
  13440403.16447  10478359.11743  24075849.9144                   24075848.0394
  -9470540.52747  -7372373.03544  22830500.7894                   22830499.0164
  -9898229.53948  -7708785.97746  21162661.2734                   21162657.7384
  -7290742.85548  -5672892.67246  20342301.6644                   20342298.1484
  -9938870.85948  -7734676.51246  20941865.6724                   20941860.6484
   5910091.53948   4610018.94945  21667569.2584                   21667565.0784
  -8033734.64847  -6242306.37944  23521446.7894                   23521443.9344
 11  8 13 17 23  0.0000000  0 11G03G10G16G28G06G08G07G13G19G23G11
   2336650.22947   1829272.47445  22120794.4534                   22120791.6134
   4829972.06646   3770871.73443  24414038.3204   24414038.1054   25497916.59846
  19884992.60943                  24727184.2344                   24727181.9454
  -7167526.48447  -5577477.11744  23550657.4454                   23550655.3834
  13568170.80947  10577918.27043  24100163.6884                   24100161.4064
  -9509058.02747  -7402386.63344  22823171.5784                   22823169.5704
  -9913224.16448  -7720470.10546  21159808.0944                   21159804.9064
  -7209046.67248  -5609233.34446  20357848.2814                   20357844.1844
  -9884522.07848  -7692326.82846  20952208.2814                   20952202.8914
   6037540.06948   4709329.41145  21691822.4844                   21691818.2074
  -8078746.96947  -6277380.85244  23512880.1724                   23512878.2544
 11  8 13 17 23 30.0000000  0 11G03G10G16G28G06G08G07G13G19G23G11
   2456045.76247   1922307.90644  22143514.2894                   22143511.5514
   4912246.91046   3834981.90243  24429695.5084   24429694.3404   25617903.18046
  19978488.52743                  24750017.2584                   24750015.1024
  -7189592.76647  -5594671.58644  23546459.2504                   23546456.3324
  13696112.67647  10677613.18443  24124509.9304                   24124507.7894
  -9547650.52047  -7432458.67644  22815827.4614                   22815825.0044
  -9928133.44548  -7732087.71946  21156970.9224                   21156966.9614
  -7126846.61348  -5545181.37946  20373490.0864                   20373486.2424
  -9829617.41447  -7649543.98446  20962655.8594                   20962650.8714
   6165278.56648   4808865.82845  21716130.6024                   21716126.3324
  -8123749.70747  -6312447.85944  23504317.7344                   23504314.8364
 11  8 13 17 24  0.0000000  0 11G03G10G16G28G06G08G07G13G19G23G11
   2575779.61747   2015606.95744  22166299.4534                   22166296.7704
   4994723.68746   3899249.41643  24445389.8284   24445389.4494   25737754.15646
  20071878.83242                  24772823.8834                   24772822.2734
  -7211486.93447  -5611731.93744  23542292.5554                   23542289.8404
  13824237.23047  10777450.46143  24148891.7424                   24148889.1804
  -9586306.09047  -7462579.88345  22808472.0234                   22808469.9804
  -9942944.69148  -7743628.94546  21154152.2424                   21154148.6994
  -7044133.75048  -5480729.83646  20389229.8204                   20389226.1054
  -9774146.74248  -7606320.08246  20973211.9534                   20973206.9224
   6293315.47348   4908634.76645  21740494.4224                   21740490.1954
  -8168729.10547  -6347496.65243  23495757.4384                   23495756.0234
 11  8 13 17 24 30.0000000  0 11G03G10G16G28G06G08G07G13G19G23G11
   2695847.70547   2109166.47044  22189147.6564                   22189144.5824
   5077398.25046   3963671.12542  24461121.6564   24461122.5744   25857467.10946
  20165161.59043                  24795605.3674                   24795603.4884
  -7233210.94147  -5628659.67744  23538157.8594                   23538156.1214
  13952540.32846  10877426.84443  24173306.3284                   24173305.1414
  -9625025.40647  -7492750.76245  22801103.6564                   22801101.3244
  -9957657.62148  -7755093.59046  21151352.5554                   21151348.6564
  -6960910.51348  -5415880.58446  20405066.8054                   20405063.1764
  -9718112.41047  -7562656.98046  20983874.4064                   20983869.3554
   6421646.62148   5008632.98445  21764915.4534                   21764911.2344
  -8213683.62147  -6382526.08043  23487202.8444                   23487200.8674
 11  8 13 17 25  0.0000000  0 11G03G10G16G28G06G08G07G13G19G23G11
   2816250.60247   2202986.86744  22212058.9844                   22212056.7344
   5160271.16146   4028247.31242  24476892.0084   24476891.4384   25977044.89146
  20258339.03143                  24818359.2344                   24818358.6564
  -7254761.52347  -5645452.29344  23534056.7194                   23534054.5314
  14081022.98247  10977543.11543  24197755.6804                   24197753.7424
  -9663803.96547  -7522967.80144  22793723.6804                   22793721.8594
  -9972267.52348  -7766477.93446  21148572.2974                   21148568.4964
  -6877174.86748  -5350632.06146  20421000.9924                   20420997.5474
  -9661511.80147  -7518552.62146  20994645.4224                   20994640.2814
   6550272.63348   5108860.97345  21789392.2424                   21789388.0904
  -8258606.60547  -6417530.93744  23478654.1024                   23478652.1564
 11  8 13 17 25 30.0000000  0 11G03G10G16G28G06G08G07G13G19G23G11
   2936972.89147   2297056.14144  22235031.7344                   22235029.5824
   5243327.61346   4092966.53543  24492697.4144   24492696.4844   26096474.27345
  20351400.81342                  24841087.3754                   24841084.9304
  -7276151.51247  -5662119.78144  23529987.0394                   23529984.3914
  14209670.19146  11077787.65243  24222236.1414                   24222234.7234
  -9702653.03547  -7553239.78544  22786331.4224                   22786329.3014
  -9986785.10248  -7777790.31646  21145809.7114                   21145806.1174
  -6792940.35948  -5284994.81246  20437029.9694                   20437026.7774
  -9604357.93448  -7474017.14146  21005521.6254                   21005516.5984
   6679178.39848   5209306.94145  21813922.3524                   21813917.8244
  -8303507.72747  -6452518.74243  23470109.3284                   23470107.5274
 11  8 13 17 26  0.0000000  0 11G03G10G16G28G06G08G07G13G19G23G11
   3058017.36347   2391376.46544  22258065.7664                   22258063.2424
   5326570.68046   4157831.19143  24508538.8444   24508536.9344   26215760.53145
  20444351.14142                  24863787.0394                   24863784.7664
  -7297375.57047  -5678657.95744  23525947.4454                   23525945.7974
  14338485.34446  11178163.05543  24246748.5944                   24246748.1374
  -9741566.06247  -7583561.60245  22778926.4064                   22778924.6134
 -10001202.98048  -7789025.03546  21143066.3134                   21143062.4694
  -6708203.18048  -5218965.86746  20453155.0474                   20453151.8444
  -9546646.42248  -7429047.14146  21016503.8984                   21016498.2114
   6808366.96548   5309973.28145  21838506.1024                   21838501.8444
  -8348378.20347  -6487482.66043  23461570.4384                   23461569.2974
 11  8 13 17 26 30.0000000  0 10G03G10G28G06G08G07G13G19G23G11
   3179370.56247   2485937.34844  22281159.0704                   22281156.0044
   5409986.66446   4222830.57043  24524412.1484   24524411.0124
  -7318444.52347  -5695075.30944  23521938.2114                   23521935.5984
  14467454.98846  11278658.81643  24271291.2194                   24271289.4964
  -9780553.34447  -7613941.28944  22771507.3984                   22771505.1414
 -10015530.41848  -7800189.27346  21140339.8054                   21140336.3054
  -6622975.46548  -5152554.69546  20469373.3754                   20469370.0554
  -9488388.68447  -7383651.50846  21027589.4694                   21027585.0554
   6937824.96548   5410849.56645  21863140.8204                   21863136.8524
  -8393225.92247  -6522428.84844  23453036.3524                   23453034.1294
 11  8 13 17 27  0.0000000  0 10G03G10G28G06G08G07G13G19G23G11
   3301037.80547   2580742.94144  22304311.3524                   22304308.7774
   5493580.93046   4287968.90243  24540320.2194   24540318.8134
  -7339350.78547  -5711365.87144  23517960.0164                   23517957.9144
  14596584.69346  11379279.26243  24295864.0784                   24295862.6054
  -9819604.97347  -7644371.10244  22764076.1954                   22764074.2464
 -10029757.59848  -7811275.38346  21137632.7584                   21137629.1524
  -6537250.44548  -5085756.02346  20485686.5704                   20485683.2854
  -9429577.56648  -7337824.66446  21038781.1724                   21038776.1174
   7067558.02748   5511940.18045  21887828.1884                   21887824.0864
  -8438039.72747  -6557348.63343  23444509.0944                   23444506.8954
 11  8 13 17 27 30.0000000  0 10G03G10G28G06G08G07G13G19G23G11
   3423002.04347   2675779.96544  22327520.4694                   22327517.6884
   5577336.46146   4353232.80943  24556257.9454   24556257.8284
  -7360109.16047  -5727541.19544  23514009.8204                   23514007.4774
  14725857.62546  11480011.34043  24320464.7894                   24320462.5784
  -9858734.49247  -7674861.62944  22756629.8914                   22756627.5004
 -10043897.60548  -7822293.57046  21134941.4304                   21134938.1684
  -6451044.33648  -5018582.46146  20502091.2424                   20502087.6214
  -9370228.61748  -7291578.75046  21050074.8524                   21050069.5004
   7197548.82848   5613231.62945  21912565.2344                   21912560.9804
  -8482831.10247  -6592250.93444  23435984.9774                   23435983.5864
 11  8 13 17 28  0.0000000  0 10G03G10G28G06G08G07G13G19G23G11
   3545262.95747   2771048.16044  22350786.0084                   22350783.2074
   5661253.14546   4418622.33643  24572226.1174   24572227.5984
  -7380717.23447  -5743599.39844  23510088.2974                   23510085.7774
  14855273.75446  11580854.98843  24345090.8524                   24345089.8634
  -9897938.30547  -7705410.03944  22749169.7194                   22749167.5944
 -10057946.03148  -7833240.39546  21132268.2194                   21132264.9774
  -6364355.87548  -4951033.05146  20518587.7344                   20518584.0004
  -9310340.27047  -7244912.50846  21061471.5704                   21061466.1684
   7327796.96548   5714723.60245  21937350.2584                   21937346.3404
  -8527594.51247  -6627131.41844  23427466.7034                   23427465.3754
 11  8 13 17 28 30.0000000  0 10G03G10G28G06G08G07G13G19G23G11
   3667817.27747   2866544.99644  22374107.2974                   22374104.4884
   5745328.25046   4484135.25843  24588224.3914   24588227.3054
  -7401175.85947  -5759541.16044  23506194.9774                   23506192.5664
  14984830.64147  11681808.32443  24369744.9384                   24369743.3284
  -9937215.49647  -7736015.62945  22741695.7974                   22741693.5474
 -10071901.39548  -7844114.69946  21129612.5234                   21129609.3714
  -6277186.52748  -4883108.91846  20535175.2274                   20535171.5274
  -9249913.44948  -7197826.68446  21072970.0084                   21072965.2074
   7458300.19548   5816414.34445  21962184.4304                   21962180.1454
  -8572326.75047  -6661987.62944  23418954.7504                   23418952.7544
 11  8 13 17 29  0.0000000  0 10G03G10G28G06G08G07G13G19G23G11
   3790652.47547   2962260.67744  22397482.2584                   22397479.3164
   5829548.89146   4549761.66042  24604252.7274   24604253.0824
  -7421495.17247  -5775374.32044  23502328.1334                   23502326.0554
  15114515.68446  11782861.51443  24394423.7034                   24394421.6294
  -9976574.88947  -7766685.27144  22734205.7344                   22734202.6764
 -10085772.03848  -7854922.99246  21126973.2114                   21126969.4614
  -6189548.04348  -4814819.22046  20551852.3364                   20551848.7544
  -9188959.46547  -7150330.07646  21084569.4224                   21084564.3204
   7589045.57948   5918293.78145  21987064.6564                   21987060.1954
  -8617034.66747  -6696824.91144  23410446.9844                   23410444.8014
 11  8 13 17 29 30.0000000  0 10G03G10G28G06G08G07G13G19G23G11
   3913761.62147   3058189.84044  22420908.8754                   22420906.6564
   5913908.77546   4615496.55142  24620305.2274   24620306.1174
  -7441679.57847  -5791102.39144  23498487.3054                   23498485.4844
  15244322.66446  11884009.75043  24419124.7974                   24419123.1954
 -10016019.61747  -7797421.40245  22726699.9144                   22726697.2814
 -10099560.15248  -7865666.96546  21124349.3364                   21124346.0824
  -6101446.30548  -4746168.54746  20568617.5234                   20568613.8914
  -9127483.05148  -7102426.37946  21096267.6804                   21096262.5234
   7720026.27348   6020356.57845  22011989.2974                   22011985.2544
  -8661719.47747  -6731644.18044  23401944.0164                   23401941.5664
 11  8 13 17 30  0.0000000  0 10G03G10G28G06G08G07G13G19G23G11
   4037136.30947   3154325.90644  22444386.5394                   22444384.3794
   5998399.03546   4681333.07842  24636384.2734   24636382.6294
  -7461734.80447  -5806729.79644  23494670.6024                   23494668.8954
  15374243.23247  11985246.50243  24443848.3054                   24443846.4534
 -10055554.07047  -7828227.44145  22719176.6804                   22719173.6214
 -10113269.64048  -7876349.67846  21121740.5394                   21121737.0084
  -6012887.98648  -4677162.10046  20585469.6564                   20585466.0234
  -9065490.97048  -7054120.87346  21108064.5634                   21108059.2584
   7851233.97948   6122596.25845  22036957.6804                   22036953.2074
  -8706383.81747  -6766447.48644  23393443.9304                   23393442.0124
 11  8 13 17 30 30.0000000  0 10G03G10G28G06G08G07G13G19G23G11
   4160774.83247   3250667.57444  22467913.9384                   22467911.6374
   6083017.77046   4747269.69142  24652486.2034   24652484.7424
  -7481660.78147  -5822256.50044  23490880.0164                   23490877.3634
  15504275.65246  12086570.39043  24468593.0314                   24468591.4414
 -10095176.18747  -7859101.78944  22711636.8914                   22711633.8954
 -10126898.41048  -7886969.49646  21119146.8134                   21119143.5744
  -5923874.31348  -4607800.82846  20602408.2034                   20602404.8484
  -9002983.84848  -7005414.03146  21119959.1884                   21119954.0514
   7982666.61748   6225011.23045  22061967.9224                   22061964.0394
  -8751023.81647  -6801231.81644  23384949.3914                   23384947.0554
 11  8 13 17 31  0.0000000  0 10G03G10G28G06G08G07G13G19G23G11
   4284677.10947   3347214.75044  22491491.4384                   22491489.3954
   6167765.72746   4813306.96142  24668613.0554   24668612.1524
  -7501454.94147  -5837680.48044  23487112.3834                   23487110.0434
  15634420.51246  12187981.91843  24493358.0314                   24493356.3794
 -10134882.05147  -7890041.39844  22704080.8054                   22704077.9184
 -10140441.71948  -7897522.71946  21116569.7584                   21116565.7624
  -5834403.72348  -4538083.51646  20619433.8284                   20619430.0594
  -8939959.69947  -6956304.30946  21131952.2814                   21131947.1334
   8114324.61348   6327601.79345  22087022.4224                   22087017.4844
  -8795633.56647  -6835992.59844  23376460.0704                   23376458.5634
 11  8 13 17 31 30.0000000  0 10G03G10G28G06G08G07G13G19G23G11
   4408833.07047   3443959.62944  22515117.7504                   22515115.7384
   6252633.08646   4879437.26642  24684762.7734   24684762.4184
  -7521124.43847  -5853007.31244  23483370.0164                   23483366.9614
  15764668.26146  12289473.61943  24518142.8834                   24518142.0204
 -10174677.71147  -7921050.98844  22696507.4454                   22696505.2774
 -10153904.87548  -7908013.48846  21114007.8754                   21114004.4574
  -5744485.12548  -4468017.10546  20636545.2194                   20636541.6294
  -8876426.55548  -6906797.97146  21144042.2974                   21144036.8634
   8246198.05548   6430360.23445  22112117.2424                   22112112.6134
  -8840216.80947  -6870732.70744  23367977.0394                   23367974.5004
 11  8 13 17 32  0.0000000  0 10G03G10G28G06G08G07G13G19G23G11
   4533249.26247   3540907.24244  22538793.6804                   22538791.4264
   6337625.98846   4945665.43443  24700936.1884   24700936.2934
  -7540660.78147  -5868230.39844  23479651.9384                   23479649.0664
  15895025.48846  12391050.61343  24542950.2194                   24542948.5314
 -10214553.10247  -7952122.71545  22688919.4774                   22688916.9654
 -10167277.19148  -7918433.47346  21111463.1024                   21111459.0984
  -5654111.10948  -4397595.82446  20653742.6094                   20653738.9804
  -8812376.81648  -6856889.09046  21156230.6804                   21156225.5314
   8378293.53148   6533291.68045  22137254.0234                   22137249.6804
  -8884761.87947  -6905443.09044  23359499.4304                   23359497.4494
 11  8 13 17 32 30.0000000  0 10G03G10G28G06G08G07G13G19G23G11
   4657917.05547   3638050.94544  22562516.6954                   22562515.3714
   6422736.44146   5011985.11343  24717132.0474   24717131.9734
  -7560070.13747  -5883354.53544  23475958.4064                   23475955.4184
  16025484.20346  12492706.66843  24567775.0704                   24567774.4534
 -10254512.29347  -7983259.71144  22681315.8284                   22681314.2074
 -10180562.20348  -7928785.42646  21108934.9844                   21108931.4614
  -5563288.77048  -4326825.20346  20671025.2114                   20671022.2384
  -8747816.95348  -6806582.71146  21168515.7894                   21168510.8954
   8510602.59047   6636389.56345  22162431.6804                   22162427.7504
  -8929270.93047  -6940125.40244  23351029.6884                   23351027.6484
 11  8 13 17 33  0.0000000  0 10G03G10G28G06G08G07G13G19G23G11
   4782827.23447   3735383.49644  22586286.7114                   22586284.1884
   6507954.99646   5078389.12143  24733349.9064   24733348.9734
  -7579359.18447  -5898384.91844  23472287.5864                   23472284.7344
  16156035.78546  12594435.12143  24592618.2114                   24592617.4804
 -10294560.13747  -8014465.81245  22673695.0944                   22673692.3714
 -10193764.74248  -7939073.10546  21106422.7894                   21106419.2304
  -5472026.36348  -4255711.66846  20688392.3134                   20688389.1374
  -8682754.60247  -6755884.78546  21180896.9454                   21180891.9534
   8643116.14148   6739646.79745  22187648.2894                   22187644.1094
  -8973747.10547  -6974782.09044  23342566.0634                   23342564.0354
 11  8 13 17 33 30.0000000  0 10G03G10G28G06G08G07G13G19G23G11
   4907976.96947   3832902.71144  22610102.3284                   22610099.5274
   6593278.79347   5144875.12143  24749586.2424   24749585.2344
  -7598528.29747  -5913321.85544  23468639.8594                   23468637.5084
  16286677.34846  12696233.66043  24617478.7584                   24617477.8554
 -10334695.95347  -8045740.45344  22666057.3204                   22666054.9734
 -10206883.52048  -7949295.53146  21103926.6414                   21103922.4534
  -5380325.64148  -4184256.59446  20705842.0784                   20705838.8984
  -8617191.35248  -6704796.54346  21193373.1724                   21193368.1214
   8775831.19948   6843061.04345  22212903.0634                   22212898.9414
  -9018187.93047  -7009411.25044  23334109.7114                   23334107.2624
 11  8 13 17 34  0.0000000  0 10G03G10G28G06G08G07G13G19G23G11
   5033373.10247   3930613.92644  22633964.6484                   22633962.1134
   6678715.04747   5211448.77543  24765844.0944   24765843.1724
  -7617568.32047  -5928158.20344  23465016.8364                   23465013.6994
  16417416.22346  12798108.04743  24642357.9064                   24642356.3204
 -10374909.05547  -8077075.30545  22658405.2194                   22658402.7074
 -10219906.89148  -7959443.60546  21101448.2274                   21101444.5904
  -5288178.73848  -4112453.84446  20723377.4064                   20723373.7544
  -8551118.79748  -6653311.45346  21205946.0864                   21205941.1764
   8908754.87547   6946637.85245  22238197.4384                   22238193.3324
  -9062580.20747  -7044002.57843  23325662.3834                   23325659.6374
 11  8 13 17 34 30.0000000  0 10G03G10G28G06G08G07G13G19G23G11
   5159016.94547   4028518.16444  22657873.3204                   22657871.7504
   6764264.80546   5278110.78543  24782123.4224   24782122.8874
  -7636475.55947  -5942891.06644  23461418.6884                   23461415.8324
  16548254.16046  12900059.62543  24667255.3284                   24667254.1174
 -10415193.76647  -8108465.97344  22650739.1024                   22650736.6764
 -10232828.96548  -7969512.74646  21098988.8984                   21098985.5204
  -5195583.35248  -4040301.61746  20740997.6884                   20740994.1054
  -8484533.99248  -6601427.19946  21218616.7664                   21218611.6724
   9041888.30547   7050378.09845  22263532.2894                   22263528.3554
  -9106917.03947  -7078550.71144  23317225.1724                   23317222.6174
 11  8 13 17 35  0.0000000  0 10G03G10G28G06G08G07G13G19G23G11
   5284882.64547   4126595.28544  22681824.7664                   22681822.8554
   6849902.80946   5344841.63743  24798419.5314   24798419.6334
  -7655273.63747  -5957538.85544  23457841.3444                   23457838.6644
  16679165.56446  13002068.44543  24692167.0394                   24692165.6414
 -10455572.04347  -8139929.55545  22643055.0784                   22643052.9804
 -10245671.11748  -7979519.61746  21096545.6094                   21096541.7384
  -5102564.47748  -3967819.40646  20758698.5474                   20758695.1214
  -8417461.45748  -6549162.90246  21231380.3834                   21231375.3404
   9175205.69148   7154261.68045  22288902.0314                   22288897.7074
  -9151218.21547  -7113071.03944  23308793.9144                   23308792.1764
 11  8 13 17 35 30.0000000  0 10G03G10G28G06G08G07G13G19G23G11
   5410979.71947   4224852.67244  22705820.7424                   22705818.5004
   6935638.59846   5411648.62543  24814734.2274   24814735.2074
  -7673950.38347  -5972092.14544  23454287.7584                   23454284.4384
  16810160.68446  13104142.51643  24717094.9924                   24717093.6094
 -10496030.03547  -8171455.23445  22635356.2194                   22635353.7114
 -10258419.05948  -7989453.07846  21094119.1024                   21094115.8204
  -5009111.37948  -3894998.84446  20776482.3984                   20776478.5204
  -8349889.83248  -6496509.69946  21244239.2274                   21244233.7154
   9308716.71947   7258296.14545  22314308.3674                   22314304.0164
  -9195467.98047  -7147551.31643  23300374.1954                   23300371.6024
 11  8 13 17 36  0.0000000  0 10G03G10G28G06G08G07G13G19G23G11
   5537309.22746   4323291.19544  22729860.9304                   22729857.8284
   7021473.07846   5478532.55943  24831068.7034   24831069.4734
  -7692502.01447  -5986547.91543  23450757.3444                   23450753.8404
  16941240.68046  13206282.67243  24742039.2424                   24742037.7424
 -10536563.05447  -8203039.38845  22627643.1724                   22627640.8134
 -10271067.06648  -7999308.66446  21091712.6024                   21091709.1684
  -4915222.09848  -3821838.39846  20794348.8444                   20794345.4574
  -8281816.98848  -6443465.93446  21257192.8524                   21257187.2814
   9442422.69547   7362482.52045  22339751.3054                   22339747.5354
  -9239659.78646  -7181986.42043  23291964.2974                   23291962.0204
 11  8 13 17 36 30.0000000  0 10G03G10G28G06G08G07G13G19G23G11
   5663862.13747   4421903.78544  22753942.4304                   22753940.5864
   7107397.40846   5545486.44543  24847419.9924   24847419.3834
  -7710935.98447  -6000912.00444  23447248.6644                   23447246.4884
  17072396.94946  13308482.30543  24766995.9774                   24766995.5634
 -10577175.84847  -8234685.70745  22619914.8054                   22619913.2194
 -10283619.97748  -8009090.15646  21089324.2274                   21089320.3244
  -4820904.84848  -3748344.46946  20812296.3594                   20812293.5984
  -8213250.57448  -6390037.57846  21270240.6564                   21270235.4924
   9576314.28147   7466813.53145  22365230.3754                   22365226.2774
  -9283796.43747  -7216378.55144  23283565.6724                   23283563.3594
 11  8 13 17 37  0.0000000  0 10G03G10G28G06G08G07G13G19G23G11
   5790627.89147   4520682.24044  22778065.4064                   22778063.3554
   7193401.48047   5612502.50843  24863786.0704   24863786.3984
  -7729259.70847  -6015190.18744  23443762.2974                   23443759.5204
  17203619.57846  13410733.63743  24791967.8364                   24791966.4384
 -10617874.37747  -8266398.83445  22612170.1094                   22612167.6884
 -10296083.16548  -8018801.73146  21086952.0704                   21086948.4414
  -4726168.26248  -3674523.78546  20830324.6334                   20830321.0314
  -8144199.11148  -6336231.25446  21283380.3054                   21283375.4804
   9710381.39447   7571281.29445  22390742.6254                   22390738.4184
  -9327882.71147  -7250731.42544  23275176.0314                   23275173.7504
 11  8 13 17 37 30.0000000  0 10G03G10G28G06G08G07G13G19G23G11
   5917599.25447   4619620.91844  22802226.8754                   22802224.5664
   7279478.02346   5679575.05143  24880166.0004   24880166.6724
  -7747478.39847  -6029386.53944  23440295.3674                   23440292.6134
  17334901.92246  13513031.52343  24816949.6724                   24816948.6134
 -10658661.65647  -8298181.11745  22604408.4384                   22604406.4614
 -10308459.38748  -8028445.54746  21084597.3284                   21084593.3364
  -4631019.21548  -3600381.69946  20848430.9774                   20848427.6844
  -8074668.35248  -6282051.45346  21296611.7814                   21296606.7584
   9844616.78947   7675880.19945  22416286.5944                   22416283.0944
  -9371919.78147  -7285045.97344  23266795.9694                   23266793.8914
 11  8 13 17 38  0.0000000  0 10G03G10G28G06G08G07G13G19G23G11
   6044777.38747   4718720.68844  22826428.2584                   22826425.9414
   7365628.10946   5746704.93043  24896558.7894   24896559.3404
  -7765588.80547  -6043498.49644  23436848.6884                   23436846.2894
  17466244.97746  13615376.64843  24841943.9844                   24841942.1454
 -10699533.20747  -8330029.06645  22596630.8444                   22596628.2734
 -10320743.16048  -8038017.31246  21082259.7504                   21082256.1914
  -4535456.48448  -3525917.26646  20866615.9384                   20866612.8014
  -8004656.44148  -6227496.74246  21309934.5704                   21309929.4024
   9979021.18447   7780610.79745  22441862.9224                   22441858.9224
  -9415900.78947  -7319316.82044  23258426.4064                   23258424.4264
 11  8 13 17 38 30.0000000  0 10G03G10G28G06G08G07G13G19G23G11
   6172163.48047   4817982.52744  22850669.0944                   22850667.1134
   7451853.29746   5813893.28543  24912967.4064   24912968.1294
  -7783587.02347  -6057523.03944  23433424.3134                   23433421.7234
  17597650.80746  13717770.73043  24866949.3754                   24866948.0784
 -10740483.11747  -8361938.07445  22588838.5394                   22588836.4184
 -10332928.55548  -8047512.42546  21079940.9924                   21079936.8794
  -4439476.93648  -3451128.04046  20884880.1094                   20884876.7584
  -7934160.35148  -6172564.73946  21323350.3284                   21323343.9924
  10113596.32447   7885474.43445  22467472.0164                   22467468.2584
  -9459818.26147  -7353538.16144  23250069.0394                   23250067.0704
 11  8 13 17 39  0.0000000  0 10G03G10G28G06G08G07G13G19G23G11
   6299747.91447   4917398.88744  22874947.9144                   22874945.5274
   7538143.39846   5881132.19943  24929387.3134   24929389.1994
  -7801480.98847  -6071466.35544  23430019.1094                   23430016.5084
  17729109.43446  13820205.94943  24891965.4774                   24891964.2234
 -10781517.44947  -8393912.85245  22581030.0084                   22581027.3204
 -10345020.99648  -8056935.10946  21077639.8754                   21077636.1684
  -4343090.35948  -3376021.64846  20903221.9844                   20903218.6294
  -7863189.19948  -6117262.54746  21336854.7424                   21336850.0084
  10248332.31347   7990463.39845  22493111.4144                   22493107.1914
  -9503676.75047  -7387713.54344  23241723.5004                   23241721.0164
 11  8 13 17 39 30.0000000  0 10G03G10G28G06G08G07G13G19G23G11
   6427525.71147   5016965.96144  22899262.5704                   22899260.3284
   7624493.79746   5948418.12543  24945820.5084   24945821.9454
  -7819272.78947  -6085330.05144  23426632.9224                   23426630.8094
  17860616.78946  13922679.20343  24916990.2344                   24916989.0824
 -10822636.75047  -8425953.85245  22573204.8834                   22573202.5594
 -10357020.61348  -8066285.46146  21075356.2194                   21075352.4614
  -4246300.14148  -3300600.72746  20921640.3984                   20921637.2234
  -7791746.47748  -6061592.91046  21350450.0234                   21350444.6214
  10383223.94947   8095573.65245  22518780.5554                   22518776.6094
  -9547474.73047  -7421841.79744  23233388.8204                   23233387.0354
 11  8 13 17 40  0.0000000  0 10G03G10G28G06G08G07G13G19G23G11
   4980085.80947   3889090.62944  22623823.8754                   22623822.4184
   6135492.18446   4788157.03143  24662473.4614   24662474.4264
  -9412376.40247  -7326709.46144  23123476.0704                   23123473.1764
  16416762.37146  12797597.75443  24642234.2274                   24642233.0354
 -12439253.28147  -9685655.01645  22265573.2344                   22265570.4694
 -11944338.44148  -9303156.49646  20773299.7814                   20773296.4454
  -5724517.58648  -4452458.50846  20640345.2974                   20640341.8244
  -9295243.34848  -7233148.92246  21064344.0234                   21064338.7704
   8942860.47347   6973212.39845  22244688.3834                   22244684.8324
 -11166623.15247  -8683515.83244  22925275.0164                   22925272.7854
 11  8 13 17 40 30.0000000  0 10G03G10G28G06G08G07G13G19G23G11
   5108255.83647   3988963.33244  22648214.4694                   22648212.2154
   6221969.52046   4855541.83643  24678929.3364   24678930.5004
  -9429951.55547  -7340404.33644  23120131.4844                   23120128.8134
  16548374.29746  12900152.44143  24667279.1644                   24667277.7584
 -12480523.57447  -9717813.66045  22257719.6484                   22257716.8914
 -11956132.48048  -9312346.66046  20771055.3134                   20771051.7664
  -5626912.41048  -4376402.55546  20658918.4844                   20658915.3594
  -9222846.82848  -7176736.06246  21078120.7734                   21078115.4964
   9078069.71147   7078570.14144  22270418.0234                   22270414.0084
 -11210276.55547  -8717531.43444  22916968.5084                   22916965.9734
 11  8 13 17 41  0.0000000  0 10G03G10G28G06G08G07G13G19G23G11
   5236616.74647   4088984.75444  22672640.9454                   22672638.7344
   6308505.34046   4922972.22743  24695397.6414   24695397.2344
  -9447420.00447  -7354016.09044  23116807.2114                   23116804.4344
  16680034.05146  13002744.34043  24692332.4844                   24692332.2894
 -12521868.57847  -9750030.53145  22249852.4304                   22249849.5514
 -11967821.96948  -9321455.35546  20768830.8524                   20768827.5944
  -5528903.53948  -4300032.04746  20677569.2274                   20677565.8484
  -9149977.07448  -7119954.44946  21091987.5474                   21091982.2894
   9213432.72747   7184047.71145  22296177.2504                   22296172.7584
 -11253854.04747  -8751487.87544  22908675.6564                   22908673.3914
 11  8 13 17 41 30.0000000  0 10G03G10G28G06G08G07G13G19G23G11
   5365177.93447   4189162.27044  22697105.0704                   22697102.9614
   6395108.98446   4990455.48043  24711876.8444   24711876.3834
  -9464769.97747  -7367535.52744  23113505.3204                   23113502.7154
  16811751.42646  13105381.15243  24717398.1334                   24717397.6884
 -12563274.83647  -9782295.12945  22241973.2424                   22241970.4264
 -11979392.90248  -9330471.66846  20766628.8204                   20766625.7664
  -5430480.87148  -4223339.08646  20696298.2114                   20696295.3674
  -9076623.55948  -7062795.88346  21105946.1564                   21105941.4184
   9348958.75447   7289652.28145  22321967.0234                   22321962.9304
 -11297340.23047  -8785373.17644  22900400.6564                   22900398.2814
 11  8 13 17 42  0.0000000  0 10G03G10G28G06G08G07G13G19G23G11
   5493918.23447   4289479.30844  22721604.5004                   22721602.0354
   6481758.85346   5057974.80443  24728365.7034   24728364.6994
  -9482021.25847  -7380978.05344  23110222.3444                   23110219.8524
  16943505.24246  13208046.47343  24742470.2274                   24742469.1684
 -12604759.61447  -9814620.90645  22234077.9064                   22234076.1484
 -11990862.33648  -9339408.88846  20764446.5314                   20764442.8594
  -5331665.09948  -4146339.81846  20715102.4384                   20715099.3634
  -9002806.67348  -7005276.25046  21119993.0474                   21119988.1454
   9484626.31347   7395367.16745  22347783.8054                   22347779.7274
 -11340750.61247  -8819199.39644  22892139.3754                   22892137.4734
 11  8 13 17 42 30.0000000  0  9G03G10G28G08G07G13G19G23G11
   5622847.24247   4389943.43444  22746138.1884                   22746136.0354
   6568464.78146   5125537.75042  24744865.5554   24744864.3404
  -9499161.23247  -7394333.84544  23106960.4534                   23106957.8164
 -12646308.44847  -9846996.59045  22226171.6724                   22226169.6334
 -12002215.31648  -9348255.36946  20762286.0634                   20762282.1024
  -5232445.54748  -4069025.91046  20733983.2114                   20733979.9454
  -8928514.95747  -6947386.60546  21134130.3834                   21134124.8834
   9620445.33647   7501200.05145  22373628.8754                   22373625.2814
 -11384069.31547  -8852954.18644  22883896.6414                   22883894.0784
 11  8 13 17 43  0.0000000  0  9G03G10G28G08G07G13G19G23G11
   5751956.53047   4490548.02044  22770707.1564                   22770704.3714
   6655218.75846   5193138.14843  24761375.0314   24761373.1454
  -9516195.66347  -7407607.40544  23103719.5394                   23103716.7624
 -12687925.51647  -9879425.45645  22218252.5784                   22218249.9774
 -12013455.48648  -9357013.90746  20760147.2194                   20760143.5354
  -5132830.10648  -3991403.52146  20752939.8914                   20752936.3554
  -8853755.80248  -6889132.73146  21148356.5864                   21148351.6414
   9756407.41547   7607144.40945  22399501.9304                   22399498.5124
 -11427298.63347  -8886639.31644  22875670.4064                   22875667.7234
 11  8 13 17 43 30.0000000  0  9G03G10G28G08G07G13G19G23G11
   5881242.37547   4591290.17244  22795309.6414                   22795307.1994
   6742016.75846   5260772.83643  24777892.1094   24777890.4264
  -9533126.77047  -7420800.45344  23100497.3984                   23100493.9534
 -12729610.87547  -9911907.52345  22210320.0394                   22210317.3054
 -12024582.85248  -9365684.59046  20758029.9924                   20758025.7624
  -5032822.33648  -3913475.43046  20771970.3594                   20771967.0824
  -8778532.27047  -6830517.01646  21162671.0474                   21162665.2704
   9892508.41447   7713197.00044  22425401.0164                   22425397.7114
 -11470436.98447  -8920253.58244  22867461.1484                   22867458.5744
 11  8 13 17 44  0.0000000  0  9G03G10G28G08G07G13G19G23G11
   6010696.87947   4692163.75444  22819944.1414                   22819941.3674
   6828851.35246   5328436.00843  24794417.5234   24794415.1724
  -9549959.87547  -7433917.14144  23097294.6564                   23097291.2664
 -12771367.69547  -9944445.28145  22202373.8914                   22202371.5354
 -12035600.10948  -9374269.45746  20755933.7344                   20755929.3014
  -4932428.84448  -3835246.77346  20791075.0864                   20791071.6804
  -8702850.58247  -6771544.28946  21177073.1644                   21177067.8634
  10028740.79347   7819351.98045  22451325.5474                   22451322.0164
 -11513486.19947  -8953798.37544  22859269.8054                   22859266.2894
 11  8 13 17 44 30.0000000  0  9G03G10G28G08G07G13G19G23G11
   6140333.06647   4793178.89144  22844612.7814                   22844610.8244
   6915736.09846   5396138.28543  24810950.4304   24810949.3834
  -9566679.29747  -7446945.25244  23094112.3594                   23094109.7974
 -12813178.56647  -9977025.15645  22194417.8834                   22194415.6094
 -12046489.13748  -9382754.41846  20753860.8054                   20753857.4804
  -4831635.69148  -3756706.69146  20810255.0634                   20810251.9064
  -8626696.57847  -6712203.53546  21191564.8834                   21191559.3524
  10165117.91647   7925619.74645  22477277.0704                   22477274.2974
 -11556426.88347  -8987258.59444  22851097.4304                   22851095.5354
 11  8 13 17 45  0.0000000  0  9G03G10G28G08G07G13G19G23G11
   6270141.52347   4894328.29344  22869314.4844                   22869312.5394
   7002660.52746   5463871.51643  24827491.0234   24827491.2704
  -9583292.75847  -7459890.78144  23090950.9304                   23090948.3524
 -12855049.01247 -10009651.44945  22186449.7814                   22186447.0864
 -12057255.34448  -9391143.66046  20751812.4774                   20751808.4924
  -4730452.27748  -3677862.51246  20829509.7504                   20829506.4264
  -8550079.23447  -6652501.72246  21206144.3594                   21206139.2424
  10301629.66047   8031992.41045  22503254.7344                   22503251.2974
 -11599262.69947  -9020637.10244  22842946.4064                   22842944.0124
 11  8 13 17 45 30.0000000  0  9G03G10G28G08G07G13G19G23G11
   6400106.39147   4995599.55944  22894045.5084                   22894043.7384
   7089609.21145   5531623.56642  24844035.5314   24844037.8984
  -9599814.19547  -7472764.60244  23087807.1254                   23087804.4104
 -12896991.01647 -10042333.50445  22178468.8134                   22178465.9184
 -12067910.02048  -9399445.99646  20749784.6724                   20749780.6684
  -4628893.94148  -3598726.18446  20848835.7114                   20848832.5514
  -8473013.87148  -6592450.81646  21220809.4304                   21220804.2034
  10438259.82847   8138457.34845  22529254.9144                   22529250.5704
 -11642004.21547  -9053942.14144  22834813.8284                   22834811.2344
 11  8 13 17 46  0.0000000  0  8G03G28G08G07G13G19G23G11
   6530257.88347   5097016.22744  22918813.2584                   22918810.6804
  -9616210.74247  -7485541.10244  23084686.9454                   23084684.4884
 -12938968.96547 -10075043.59045  22170480.8754                   22170477.3634
 -12078417.61448  -9407633.73346  20747785.6254                   20747781.4454
  -4526929.18948  -3519273.17346  20868239.1254                   20868235.9454
  -8395468.05148  -6532025.52946  21235566.2424                   21235560.8164
  10575039.31447   8245038.63544  22555282.7424                   22555279.4924
 -11684614.54447  -9087144.95044  22826704.1884                   22826702.1564
 11  8 13 17 46 30.0000000  0  8G03G28G08G07G13G19G23G11
   6660575.15246   5198562.10544  22943611.4844                   22943609.0944
  -9632500.96547  -7498234.77044  23081586.8674                   23081585.0084
 -12980999.64547 -10107794.75845  22162482.4454                   22162479.8444
 -12088794.30948  -9415719.46146  20745810.3914                   20745806.6094
  -4424578.83648  -3439519.69146  20887715.5634                   20887712.1954
  -8317462.19548  -6471241.75046  21250409.9534                   21250404.7544
  10711947.13347   8351719.93444  22581335.7584                   22581331.9494
 -11727108.73847  -9120257.27344  22818617.8984                   22818615.8094
 11  8 13 17 47  0.0000000  0  8G03G28G08G07G13G19G23G11
   6791072.30547   5300248.11343  22968444.2194                   22968442.2114
  -9648668.45747  -7510832.78144  23078510.8984                   23078507.8484
 -13023065.02747 -10140572.95345  22154477.5704                   22154474.6294
 -12099021.75448  -9423688.89546  20743864.1644                   20743860.2704
  -4321828.17048  -3359454.28146  20907268.3364                   20907264.9534
  -8238981.23947  -6410087.78846  21265344.7734                   21265339.2154
  10848997.37447   8458512.20444  22607416.7504                   22607411.9694
 -11769466.91047  -9153263.58244  22810557.5784                   22810554.8524
 11  8 13 17 47 30.0000000  0  8G03G28G08G07G13G19G23G11
   6921753.94946   5402077.92243  22993312.2504                   22993309.6414
  -9664706.50847  -7523329.93744  23075458.5944                   23075456.5314
 -13065156.00047 -10173371.08645  22146467.5084                   22146465.3324
 -12109090.55148  -9431534.71546  20741948.4924                   20741944.4694
  -4218671.77348  -3279072.71546  20926898.5864                   20926895.3094
  -8160019.19948  -6348558.93446  21280369.9774                   21280365.3834
  10986194.69547   8565419.08644  22633523.4774                   22633519.5984
 -11811678.66847  -9186155.83244  22802524.9224                   22802522.0204
 11  8 13 17 48  0.0000000  0  9G03G24G28G08G07G13G19G23G11
   7052627.99647   5504057.64143  23018217.0554                   23018214.5864
  -6375649.66855  -4958494.09053  24308324.2504                   24308327.8054
  -9680605.02747  -7535718.36744  23072433.4694                   23072430.3204
 -13107260.05947 -10206179.42245  22138455.5634                   22138452.8714
 -12118988.23448  -9439247.20346  20740064.9534                   20740061.3364
  -4115101.36348  -3198368.53946  20946607.3914                   20946604.2504
  -8080567.53948  -6286648.56646  21295489.8594                   21295484.1994
  11123546.63347   8672446.44544  22659661.0864                   22659656.9224
 -11853729.66447  -9218922.79344  22794522.6174                   22794519.8874
 11  8 13 17 48 30.0000000  0  9G03G24G28G08G07G13G19G23G11
   7183686.05547   5606180.73043  23043156.6024                   23043154.3954
  -6419681.48846  -4992804.41042  24299945.6564                   24299948.3954
  -9696370.41447  -7548003.07044  23069433.3984                   23069429.5554
 -13149381.81647 -10239001.56645  22130439.7734                   22130437.2424
 -12128718.41848  -9446829.14846  20738213.4844                   20738209.6914
  -4011124.73848  -3117347.83646  20966393.2894                   20966390.1724
  -8000634.12948  -6224362.81246  21310700.2114                   21310695.3714
  11261044.82847   8779587.75444  22685826.1254                   22685822.4774
 -11895623.03947  -9251566.94544  22786550.3594                   22786548.1054
 11  8 13 17 49  0.0000000  0  9G03G24G28G08G07G13G19G23G11
   7314922.86347   5708443.10944  23068130.0084                   23068128.0394
  -6463833.77746  -5027208.59843  24291544.2814                   24291546.1804
  -9712005.45347  -7560186.19544  23066458.0234                   23066454.7114
 -13191521.87147 -10271837.94945  22122421.0634                   22122418.4344
 -12138281.40648  -9454280.81646  20736393.6804                   20736389.9574
  -3906746.75448  -3036014.39846  20986255.8984                   20986252.9534
  -7920223.05148  -6161704.85246  21326002.5004                   21325997.1454
  11398684.07047   8886838.98044  22712018.2034                   22712014.3524
 -11937357.53547  -9284087.29344  22778608.2974                   22778606.2114
 11  8 13 17 49 30.0000000  0  9G03G24G28G08G07G13G19G23G11
   7446336.71946   5810843.46144  23093137.1804                   23093135.5744
  -6508102.68746  -5061703.68043  24283120.1414                   24283122.0634
  -9727509.60247  -7572267.34444  23063507.2894                   23063503.9384
 -13233677.15247 -10304686.20345  22114399.2194                   22114396.9104
 -12147674.32448  -9461599.97746  20734605.9384                   20734602.4414
  -3801968.55548  -2954369.10546  21006194.0864                   21006191.5984
  -7839334.84848  -6098675.09846  21341394.5164                   21341389.7624
  11536462.86747   8994198.93044  22738237.0004                   22738233.5274
 -11978929.06247  -9316480.64544  22770698.0314                   22770695.3594
 11  8 13 17 50  0.0000000  0  9G03G24G28G08G07G13G19G23G11
   7577927.59047   5913381.74244  23118178.6254                   23118176.3404
  -6552483.02346  -5096285.58243  24274674.5164                   24274676.1764
  -9742881.07447  -7584245.09444  23060581.8754                   23060579.1214
 -13275843.93047 -10337543.41445  22106374.6804                   22106372.3054
 -12156892.84048  -9468783.23046  20732851.7344                   20732848.2814
  -3696789.78948  -2872411.67246  21026209.3914                   21026206.2034
  -7757969.09448  -6035273.22746  21356877.9844                   21356872.8444
  11674380.70347   9101667.25044  22764482.2424                   22764478.3754
 -12020331.85247  -9348742.51644  22762819.7194                   22762816.1134
 11  8 13 17 50 30.0000000  0  9G03G24G28G08G07G13G19G23G11
   7709699.91047   6016061.43844  23143254.1954                   23143251.1724
  -6596964.60246  -5130946.34843  24266209.6024                   24266211.8134
  -9758113.09847  -7596114.18744  23057683.6254                   23057680.5434
 -13318013.55547 -10370402.84045  22098350.4534                   22098347.4924
 -12165927.44548  -9475823.18746  20731132.9064                   20731128.4844
  -3591205.84848  -2790138.52746  21046301.2974                   21046297.7774
  -7676120.70748  -5971495.28946  21372453.2734                   21372448.1294
  11812441.91447   9209247.28544  22790753.9924                   22790750.4884
 -12061555.71547  -9380864.96144  22754974.4774                   22754971.9064
 11  8 13 17 51  0.0000000  0  9G03G24G28G08G07G13G19G23G11
   7841650.51647   6118880.02044  23168363.4924                   23168361.1414
  -6641544.74647  -5165683.96943  24257726.7974                   24257727.9454
  -9773206.69547  -7607875.41444  23054811.5554                   23054808.2424
 -13360184.40247 -10403263.23045  22090325.5634                   22090322.7114
 -12174776.71548  -9482718.71946  20729448.8754                   20729444.7704
  -3485219.15248  -2707551.54746  21066469.6644                   21066466.7584
  -7593791.67248  -5907342.80946  21388119.9454                   21388114.6334
  11950643.57447   9316936.75044  22817052.3364                   22817049.4614
 -12102597.76647  -9412845.73844  22747164.3444                   22747162.1564
 11  8 13 17 51 30.0000000  0  9G03G24G28G08G07G13G19G23G11
   7973771.49947   6221831.39544  23193504.9844                   23193503.2234
  -6686226.26246  -5200500.54743  24249223.2584                   24249225.0314
  -9788167.82147  -7619533.40844  23051964.4614                   23051961.4184
 -13402360.16048 -10436127.43745  22082300.1804                   22082296.8794
 -12183444.34048  -9489472.71546  20727799.2814                   20727795.2194
  -3378837.51448  -2624656.81846  21086713.6954                   21086711.0274
  -7510989.44148  -5842821.60846  21403877.2424                   21403871.5784
  12088977.20747   9424729.03544  22843376.9304                   22843373.5434
 -12143460.17047  -9444686.53644  22739388.7274                   22739386.2774
 11  8 13 17 52  0.0000000  0  9G03G24G28G08G07G13G19G23G11
   8106066.14547   6324918.06644  23218680.2114                   23218678.7464
  -6730999.57446  -5235388.68043  24240703.0784                   24240705.2814
  -9802990.73847  -7631083.72344  23049144.1334                   23049140.8794
 -13444532.67247 -10468989.11345  22074274.8914                   22074271.9774
 -12191921.76248  -9496078.50446  20726186.4304                   20726182.4804
  -3272056.85948  -2541451.15245  21107033.5784                   21107030.6564
  -7427709.79347  -5777928.38746  21419724.3054                   21419719.1804
  12227446.50447   9532627.04744  22869726.6954                   22869723.5824
 -12184133.60547  -9476380.07044  22731649.2894                   22731646.0004
 11  8 13 17 52 30.0000000  0  9G03G24G28G08G07G13G19G23G11
   8238518.62547   6428127.68844  23243885.0474                   23243883.2194
  -6775874.95746  -5270356.34443  24232163.1954                   24232165.7234
  -9817689.46147  -7642537.23844  23046346.6174                   23046344.0274
 -13486713.74247 -10501857.45745  22066247.8364                   22066244.8364
 -12200220.41448  -9502544.98846  20724607.0474                   20724602.9694
  -3164892.83648  -2457946.75845  21127426.4844                   21127423.2814
  -7343967.84847  -5712674.94146  21435659.9454                   21435654.9344
  12366035.27047   9640618.15344  22896099.5394                   22896096.0594
 -12224628.18747  -9507934.23844  22723942.4614                   22723940.3634
 11  8 13 17 53  0.0000000  0  9G03G24G28G08G07G13G19G23G11
   8371124.28546   6531456.74243  23269118.5004                   23269117.0824
  -6820851.25846  -5305402.66443  24223604.9064                   24223606.9774
  -9832266.09847  -7653895.61744  23043573.0554                   23043570.3484
 -13528903.46547 -10534732.54345  22058219.8984                   22058216.3954
 -12208339.87548  -9508871.84446  20723061.6174                   20723057.6214
  -3057349.75648  -2374146.99845  21147891.3364                   21147888.0474
  -7259767.31648  -5647064.15246  21451682.8594                   21451678.2074
  12504739.18447   9748698.97344  22922494.2974                   22922490.8674
 -12264942.26747  -9539347.77344  22716271.2034                   22716267.6454
 11  8 13 17 53 30.0000000  0  9G03G24G28G08G07G13G19G23G11
   8503887.26646   6634908.33243  23294383.0004                   23294381.3984
  -6865918.99346  -5340520.23843  24215028.5784                   24215030.5864
  -9846714.75447  -7665154.28545  23040823.7034                   23040820.1764
 -13571093.27347 -10567607.70745  22050190.9224                   22050188.3914
 -12216271.51248  -9515052.34846  20721552.5944                   20721548.8754
  -2949423.12548  -2290048.37546  21168429.0944                   21168425.4574
  -7175103.82047  -5581092.62546  21467793.4384                   21467788.4264
  12643561.92647   9856872.39144  22948911.1414                   22948908.2234
 -12305066.26247  -9570613.18744  22708635.8984                   22708633.0314
 11  8 13 17 54  0.0000000  0  9G03G24G28G08G07G13G19G23G11
   8636790.05546   6738468.86343  23319673.4694                   23319671.6374
  -6911090.55946  -5375718.68043  24206432.4384                   24206434.4774
  -9861051.32847  -7676325.61344  23038095.2194                   23038092.3484
 -13613296.99248 -10600493.69145  22042160.2424                   22042156.6844
 -12224028.77348  -9521096.96546  20720076.0944                   20720072.2974
  -2841130.67648  -2205664.69546  21189036.0554                   21189033.2304
  -7089994.40648  -5514773.61746  21483989.2894                   21483984.6954
  12782485.68847   9965124.50844  22975348.1644                   22975344.5554
 -12345012.13347  -9601739.78944  22701034.3914                   22701032.0594
 11  8 13 17 54 30.0000000  0  9G03G24G28G08G07G13G19G23G11
   8769826.45746   6842133.51643  23344989.0234                   23344987.5634
  -6956366.21546  -5410998.22343  24197817.2814                   24197818.6564
  -9875279.51647  -7687412.50444  23035388.4694                   23035385.0354
 -13655515.91847 -10633391.54345  22034125.5164                   22034123.1914
 -12231612.81248  -9527006.60946  20718633.1884                   20718629.1994
  -2732477.99648  -2121000.32446  21209712.1954                   21209709.5314
  -7004444.23048  -5448111.16046  21500269.3754                   21500264.4104
  12921504.20747  10073450.47744  23001802.3284                   23001798.9184
 -12384779.97347  -9632727.66844  22693466.6254                   22693464.0234
 11  8 13 17 55  0.0000000  0  9G03G24G28G08G07G13G19G23G11
   8903002.05446   6945906.61543  23370332.1094                   23370330.5554
  -7001734.32046  -5446349.82443  24189183.0164                   24189185.3404
  -9889391.11347  -7698408.53544  23032702.2664                   23032699.4774
 -13697739.31247 -10666292.86745  22026091.2894                   22026088.2894
 -12239013.02348  -9532773.01246  20717224.8524                   20717221.3364
  -2623458.75048  -2036050.30145  21230458.0004                   21230455.1844
  -6918447.00848  -5381100.35246  21516633.7894                   21516628.6604
  13060623.54347  10181854.99644  23028275.2894                   23028272.7424
 -12424357.77747  -9663567.47344  22685935.7034                   22685932.3054
 11  8 13 17 55 30.0000000  0  9G03G24G28G08G07G13G19G23G11
   9036310.97747   7049783.64843  23395700.7194                   23395698.2194
  -7047195.35546  -5481773.85543  24180531.4144                   24180533.4884
  -9903390.41447  -7709317.04744  23030038.0554                   23030035.6484
 -13739969.29747 -10699199.31645  22018054.9774                   22018052.5864
 -12246230.96148  -9538397.37946  20715851.4304                   20715847.6454
  -2514079.04348  -1950819.41846  21251272.3364                   21251269.5434
  -6832008.17247  -5313745.42646  21533082.5394                   21533077.3094
  13199837.03547  10290332.88344  23054767.4844                   23054764.5514
 -12463746.15247  -9694259.66444  22678439.8674                   22678437.6524
 11  8 13 17 56  0.0000000  0  9G03G24G28G08G07G13G19G23G11
   9169730.04747   7153746.48643  23421089.1414                   23421088.0434
  -7092766.95746  -5517284.03943  24171860.4144                   24171862.5704
  -9917298.90447  -7720154.79844  23027391.2194                   23027389.1414
 -13782224.73448 -10732125.61345  22010013.8054                   22010011.3204
 -12253284.97748  -9543894.01646  20714509.2504                   20714505.3054
  -2404362.08648  -1865325.74246  21272150.3594                   21272148.1994
  -6745150.52348  -5246064.15646  21549611.1724                   21549606.0124
  13339121.54747  10398866.09844  23081273.0704                   23081269.6374
 -12502962.51647  -9724817.83244  22670977.1094                   22670975.2974
 11  8 13 17 56 30.0000000  0  9G03G24G28G08G07G13G19G23G11
   9303255.59047   7257792.28543  23446497.6804                   23446495.7934
  -7138447.13746  -5552878.82842  24163167.4774                   24163168.9344
  -9931118.16047  -7730923.03144  23024761.6564                   23024759.1844
 -13824504.49647 -10765070.88345  22001968.6564                   22001965.2624
 -12260174.12948  -9549262.18446  20713198.2344                   20713194.2384
  -2294311.05147  -1779571.73845  21293092.8984                   21293090.0234
  -6657877.35247  -5178059.10946  21566219.1804                   21566213.6804
  13478473.20347  10507451.65244  23107790.5394                   23107787.3834
 -12542004.96547  -9755240.46944  22663547.6724                   22663545.0204
 11  8 13 17 57  0.0000000  0  9G03G24G28G08G07G13G19G23G11
   9436891.87147   7361924.41043  23471928.3594                   23471926.3714
  -7184225.81246  -5588550.36742  24154455.4144                   24154457.2154
  -9944841.27047  -7741616.33644  23022150.4614                   23022147.2584
 -13866799.63747 -10798028.11745  21993919.9694                   21993917.1994
 -12266889.54348  -9554494.98046  20711920.1414                   20711916.5664
  -2183921.38748  -1693553.87545  21314099.1254                   21314096.0274
  -6570183.63748  -5109726.36346  21582906.0554                   21582901.2664
  13617896.52347  10616093.02744  23134322.0084                   23134318.5634
 -12580862.63747  -9785519.14544  22656152.7034                   22656150.1994
 11  8 13 17 57 30.0000000  0  9G03G24G28G08G07G13G19G23G11
   9570634.92247   7466139.71143  23497379.1414                   23497377.0514
  -7230101.61746  -5624297.63742  24145726.3204                   24145727.4344
  -9958470.72347  -7752236.65644  23019556.4614                   23019553.1134
 -13909110.12547 -10830997.32045  21985868.2814                   21985865.4964
 -12273430.31248  -9559591.68446  20710675.6094                   20710671.7464
  -2073197.12548  -1607275.28545  21335169.2584                   21335166.5164
  -6482072.35248  -5041068.23846  21599673.3754                   21599668.1604
  13757387.08247  10724786.80144  23160865.9064                   23160863.0124
 -12619534.11747  -9815652.72744  22648794.2974                   22648791.5164
 11  8 13 17 58  0.0000000  0  9G03G24G28G08G07G13G19G23G11
   9704485.81647   7570439.04343  23522849.7274                   23522848.4804
  -7276067.40646  -5660114.95342  24136978.5314                   24136980.4534
  -9972002.97347  -7762781.24244  23016981.2344                   23016978.2544
 -13951430.16848 -10863973.97345  21977815.1804                   21977812.4144
 -12279790.82048  -9564547.92246  20709465.3834                   20709461.3714
  -1962136.85948  -1520734.87145  21356303.2504                   21356300.9144
  -6393542.22348  -4972083.74646  21616519.9534                   21616514.7974
  13896946.17247  10833533.96144  23187423.5554                   23187420.8524
 -12658012.41847  -9845635.79744  22641471.7974                   22641469.1134
 11  8 13 17 58 30.0000000  0  9G03G24G28G08G07G13G19G23G11
   9838440.55547   7674819.32043  23548340.6644                   23548338.3634
  -7322121.56646  -5696001.16443  24128215.3134                   24128215.8444
  -9985440.21947  -7773251.78944  23014424.2344                   23014421.5084
 -13993759.41047 -10896957.79345  21969760.2274                   21969757.5314
 -12285970.80548  -9569363.49246  20708288.8754                   20708285.5124
  -1850744.52048  -1433935.71146  21377501.0474                   21377498.1174
  -6304596.88748  -4902775.71146  21633445.2584                   21633440.6294
  14036569.47347  10942331.17244  23213993.2974                   23213990.4304
 -12696295.90247  -9875467.04744  22634186.7194                   22634184.1844
 11  8 13 17 59  0.0000000  0  9G03G24G28G08G07G13G19G23G11
   9972497.24646   7779279.00043  23573850.2814                   23573848.8284
  -7368260.32846  -5731953.31243  24119435.2734                   24119435.5594
  -9998782.51247  -7783648.33644  23011885.2974                   23011882.2274
 -14036095.02748 -10929946.55945  21961704.1024                   21961700.8984
 -12291967.04348  -9574035.87946  20707148.1884                   20707144.4304
  -1739021.52748  -1346878.87945  21398761.1094                   21398758.1684
  -6215237.76248  -4833145.23046  21650450.3134                   21650445.0474
  14176254.91847  11051176.80944  23240574.5164                   23240571.8094
 -12734380.83647  -9905143.59044  22626939.5234                   22626936.6024
 11  8 13 17 59 30.0000000  0  9G03G24G28G08G07G13G19G23G11
  10106678.08646   7883835.43843  23599383.6804                   23599383.0634
  -7414456.19946  -5767949.96543  24110643.5634                   24110644.3634
 -10012005.58247  -7793951.99244  23009368.9224                   23009366.4614
 -14078410.71548 -10962919.82845  21953651.8284                   21953649.1254
 -12297753.00048  -9578544.41846  20706047.0084                   20706043.3014
  -1626946.02748  -1259547.38345  21420088.1644                   21420085.3874
  -6125442.41448  -4763174.86346  21667537.6724                   21667532.5434
  14316024.09847  11160087.68044  23267171.6884                   23267169.5164
 -12772239.11347  -9934643.51644  22619735.5004                   22619731.9614
 11  8 13 18  0  0.0000000  0  9G03G24G28G08G07G13G19G23G11
  10240973.62546   7988481.23443  23624940.3754                   23624938.8324
  -7460712.20747  -5803993.46543  24101841.8444                   24101842.1094
 -10025116.58247  -7804168.32844  23006874.1724                   23006871.1334
 -14120710.80548 -10995880.91845  21945602.1564                   21945599.3014
 -12303333.05548  -9582892.52046  20704985.2814                   20704981.3014
  -1514527.15248  -1171948.30545  21441481.3674                   21441478.2734
  -6035219.33647  -4692871.17646  21684706.5944                   21684701.8754
  14455868.14147  11269056.88744  23293783.1484                   23293780.8794
 -12809874.06647  -9963969.41045  22612574.0164                   22612570.8874
 11  8 13 18  0 30.0000000  0  9G03G24G28G08G07G13G19G23G11
  10375380.74246   8093213.99243  23650516.6334                   23650515.2854
  -7507026.46046  -5840082.34843  24093028.1804                   24093029.5514
 -10038117.22747  -7814298.66444  23004400.3834                   23004397.2624
 -14162994.49548 -11028829.23845  21937555.6564                   21937552.8164
 -12308706.01348  -9587079.26746  20703963.0004                   20703959.1334
  -1401768.19348  -1084084.24045  21462938.5634                   21462935.4734
  -5944571.84548  -4622236.78946  21701956.7274                   21701951.6294
  14595783.17247  11378081.39144  23320408.8444                   23320406.1954
 -12847283.45747  -9993119.55944  22605455.3204                   22605452.1024
 11  8 13 18  1  0.0000000  0  9G03G24G28G08G07G13G19G23G11
  10509931.52346   8198058.68043  23676120.3444                   23676119.4574
  -7553360.90247  -5876186.94543  24084210.6804                   24084211.7814
 -10050973.01647  -7824316.13745  23001954.0234                   23001951.0824
 -14205224.88348 -11061736.00845  21929519.4534                   21929516.7464
 -12313835.00447  -9591075.87146  20702987.0004                   20702983.1644
  -1288636.76648   -995929.94145  21484466.5394                   21484463.8094
  -5853467.23048  -4551246.19946  21719293.3364                   21719287.8204
  14735801.78547  11487186.62544  23347053.4924                   23347050.6214
 -12884429.49247 -10022064.47744  22598386.3984                   22598383.7074
 11  8 13 18  1 30.0000000  0  9G03G24G28G08G07G13G19G23G11
  10644612.01246   8303004.41043  23701749.8914                   23701748.8554
  -7599723.93747  -5912313.85243  24075388.3674                   24075389.2114
 -10063696.33647  -7834230.37944  22999532.9144                   22999529.2274
 -14247411.42248 -11094608.61745  21921491.5394                   21921488.6524
 -12318729.51648  -9594889.78146  20702055.2344                   20702051.6644
  -1175147.12548   -907496.50445  21506062.8134                   21506060.3794
  -5761918.91048  -4479909.87146  21736713.6644                   21736708.7704
  14875909.52747  11596361.29344  23373715.0164                   23373712.4614
 -12921320.38347 -10050810.57844  22591365.7114                   22591363.0204
 11  8 13 18  2  0.0000000  0  9G03G24G28G08G07G13G19G23G11
  10779435.70346   8408061.73843  23727406.4924                   23727405.2034
  -7646096.43747  -5948448.11343  24066563.7894                   24066564.7734
 -10076271.71947  -7844029.35544  22997140.0704                   22997136.5704
 -14289536.60548 -11127433.41045  21913475.1804                   21913472.2664
 -12323371.62948  -9598506.98446  20701171.9774                   20701168.1374
  -1061285.72748   -818773.39545  21527730.0944                   21527727.3324
  -5669913.57848  -4408217.42246  21754222.4694                   21754217.0864
  15016119.39847  11705615.53544  23400396.1024                   23400393.5744
 -12957937.03547 -10079342.99644  22584398.3594                   22584395.4384
 11  8 13 18  2 30.0000000  0  9G03G24G28G08G07G13G19G23G11
  10914395.87846   8513225.45443  23753088.6804                   23753087.0394
  -7692479.23747  -5984590.45243  24057737.3914                   24057738.5314
 -10088703.77047  -7853716.65044  22994774.1174                   22994771.3204
 -14331602.17148 -11160211.76845  21905470.9304                   21905468.4184
 -12327763.14348  -9601928.95146  20700336.4774                   20700332.2814
   -947058.96648   -729765.58845  21549466.8364                   21549464.2734
  -5577457.65448  -4336173.86545  21771815.7274                   21771810.7544
  15156424.66747  11814944.11944  23427096.0864                   23427093.6454
 -12994280.15547 -10107662.28244  22577482.4384                   22577480.0004
 11  8 13 18  3  0.0000000  0  9G03G24G28G08G07G13G19G23G11
  11049508.85446   8618508.19143  23778800.1334                   23778797.8914
  -7738850.41847  -6020723.69543  24048912.9844                   24048914.0824
 -10100974.33247  -7863278.10545  22992438.5554                   22992436.0594
 -14373587.50048 -11192927.58245  21897481.6564                   21897478.8594
 -12331883.24348  -9605139.42146  20699552.3914                   20699548.8714
   -832450.76248   -640460.54345  21571276.2734                   21571273.2464
  -5484534.10548  -4263765.91845  21789498.3594                   21789493.9774
  15296841.31647  11924359.50844  23453816.4534                   23453813.7664
 -13030328.13347 -10135751.58244  22570622.4844                   22570619.7384
 11  8 13 18  3 30.0000000  0  9G03G24G28G08G07G13G19G23G11
  11184757.75046   8723896.87943  23804536.5474                   23804535.5904
  -7785221.06247  -6056856.53943  24040088.3204                   24040090.4104
 -10113098.09447  -7872725.18444  22990131.7274                   22990129.0394
 -14415504.20748 -11225589.93045  21889504.5164                   21889502.4384
 -12335743.96548  -9608147.77746  20698817.5234                   20698814.0474
   -717477.69548   -550871.19545  21593154.9224                   21593151.9844
  -5391159.39148  -4191006.41846  21807267.1094                   21807263.0634
  15437353.06347  12033848.98844  23480555.1094                   23480552.3484
 -13066091.46147 -10163619.07844  22563816.8054                   22563814.5904
 11  8 13 18  4  0.0000000  0  9G03G24G28G08G07G13G19G23G11
  11320153.57846   8829400.01943  23830301.6644                   23830300.2424
  -7831575.12946  -6092976.44543  24031267.5944                   24031269.4694
 -10125062.88547  -7882048.37444  22987854.7814                   22987852.1644
 -14457337.68748 -11258187.41845  21881543.7194                   21881540.9574
 -12339330.14748  -9610942.20146  20698135.4144                   20698131.1804
   -602129.13047   -460989.25845  21615104.7814                   21615101.7734
  -5297322.63648  -4117886.88745  21825123.6954                   21825118.8444
  15577970.12047  12143420.51844  23507313.6564                   23507311.4024
 -13101554.31547 -10191252.43545  22557068.4694                   22557065.7154
 11  8 13 18  4 30.0000000  0  9G03G24G28G08G07G13G19G23G11
  11455690.89546   8935013.46143  23856093.5004                   23856092.4144
  -7877911.97747  -6129082.93743  24022450.1724                   24022451.0044
 -10136871.82847  -7891250.13744  22985608.0944                   22985605.2854
 -14499088.55148 -11290720.54745  21873599.0944                   21873596.5124
 -12342642.27048  -9613523.08246  20697505.0554                   20697501.3364
   -486410.69547   -370819.10545  21637125.7034                   21637122.7814
  -5203028.99648  -4044411.34846  21843067.2194                   21843062.4304
  15718686.76647  12253069.65244  23534091.1484                   23534088.9064
 -13136716.22347 -10218651.28545  22550377.3914                   22550374.5634
 11  8 13 18  5  0.0000000  0  9G03G24G28G08G07G13G19G23G11
  11591378.07846   9040743.66843  23881913.7504                   23881912.7114
  -7924217.77746  -6165165.21943  24013638.6024                   24013639.2814
 -10148514.72347  -7900322.51244  22983391.9454                   22983389.2234
 -14540743.77048 -11323179.14545  21865672.3914                   21865669.2704
 -12345667.71148  -9615880.57046  20696929.2664                   20696925.6094
   -370314.31247   -280354.44145  21659218.0784                   21659215.0824
  -5108269.99248  -3970573.19146  21861099.5084                   21861094.2304
  15859511.19547  12362802.77744  23560889.5394                   23560886.7814
 -13171563.11347 -10245804.66445  22543746.0554                   22543743.2664
 11  8 13 18  5 30.0000000  0  9G03G24G28G08G07G13G19G23G11
  11727209.46946   9146586.25043  23907761.3284                   23907760.6564
  -7970492.60546  -6201223.40643  24004832.0944                   24004833.7734
 -10159995.37947  -7909268.46545  22981207.1414                   22981204.6804
 -14582304.20348 -11355563.87945  21857763.8834                   21857760.9574
 -12348407.37548  -9618015.37146  20696408.2344                   20696404.3554
   -253845.59448   -189599.66445  21681380.9774                   21681378.1454
  -5013051.00848  -3896376.60246  21879219.0634                   21879213.8204
  16000437.28547  12472615.11344  23587706.3834                   23587704.6684
 -13206095.12547 -10272712.68445  22537174.6884                   22537171.9224
 11  8 13 18  6  0.0000000  0  9G03G24G28G08G07G13G19G23G11
  11863196.33646   9252549.91443  23933639.6954                   23933638.6214
  -8016719.13346  -6237243.92243  23996035.4774                   23996036.9734
 -10171300.62147  -7918077.72744  22979056.0084                   22979052.9224
 -14623754.29348 -11387862.64145  21849875.8444                   21849873.6024
 -12350845.51248  -9619915.22746  20695943.9774                   20695940.6484
   -136992.90247    -98545.66845  21703617.6414                   21703614.5514
  -4917360.44948  -3821812.55946  21897427.9924                   21897423.0554
  16141476.99647  12582515.97744  23614545.5004                   23614543.9924
 -13240295.29347 -10299362.13344  22530666.8594                   22530664.0904
 11  8 13 18  6 30.0000000  0  9G03G24G28G08G07G13G19G23G11
  11999322.16046   9358621.91842  23959544.1414                   23959541.2974
  -8062908.34846  -6273235.38343  23987245.3524                   23987247.4414
 -10182444.89547  -7926761.55545  22976936.1724                   22976932.8674
 -14665106.09048 -11420084.79745  21842006.8364                   21842004.5044
 -12352993.91048  -9621589.30546  20695534.9924                   20695531.2304
    -19773.09048     -7205.61745  21725924.1174                   21725920.7544
  -4821214.66848  -3746893.78146  21915724.1804                   21915719.1644
  16282612.67647  12692491.60944  23641403.9454                   23641401.6564
 -13274174.48847 -10325761.46545  22524219.8134                   22524216.9264
 11  8 13 18  7  0.0000000  0  9G03G24G28G08G07G13G19G23G11
  10560174.33246   8237207.96243  23685681.7584                   23685680.9884
  -9684473.59646  -7536792.60043  23678672.6094                   23678673.3834
 -11768844.32347  -9162916.92445  22675053.9454                   22675050.5474
 -16281773.92848 -12679825.94845  21534365.6804                   21534362.6254
 -13930265.62948 -10850632.20546  20395390.6334                   20395386.5234
  -1477599.96847  -1143174.67345  21448508.7734                   21448505.9804
  -6300027.72148  -4899215.66245  21634315.3914                   21634310.7464
  14848431.79647  11574947.84844  23368487.6804                   23368485.9184
 -14883145.71447 -11579505.23445  22218042.6024                   22218040.1334
 11  8 13 18  7 30.0000000  0  9G03G24G28G08G07G13G19G23G11
  10696569.11746   8343489.50443  23711637.4614                   23711636.5084
  -9730580.43046  -7572719.86743  23669897.7894                   23669899.4184
 -11779670.86747  -9171353.15244  22672993.1024                   22672990.4494
 -16322924.63348 -12711891.41445  21526534.4144                   21526531.8754
 -13931830.19548 -10851851.35846  20395092.7344                   20395088.6604
  -1359656.20447  -1051270.50545  21470952.3364                   21470950.3014
  -6202980.62148  -4823594.55946  21652782.7894                   21652777.9614
  14989750.48447  11685066.07444  23395380.7194                   23395378.0314
 -14916375.43447 -11605398.47345  22211719.1334                   22211715.9924
 11  8 13 18  8  0.0000000  0  9G03G24G28G08G07G13G19G23G11
  10833100.38146   8449877.43743  23737618.9534                   23737617.0664
  -9776635.41847  -7608606.78643  23661135.1254                   23661135.2274
 -11790333.48447  -9179661.66045  22670964.1724                   22670961.2894
 -16363965.71248 -12743871.46245  21518724.8204                   21518722.2894
 -13933093.65647 -10852835.87046  20394852.0004                   20394848.2304
  -1241348.14647   -959082.46345  21493465.9454                   21493463.0704
  -6105480.36348  -4747620.36646  21671336.8754                   21671331.4494
  15131162.71246  11795257.18644  23422290.0634                   23422288.5984
 -14949269.78447 -11631030.40445  22205459.4454                   22205456.6994
 11  8 13 18  8 30.0000000  0  9G03G24G28G08G07G13G19G23G11
  10969746.88746   8556355.18442  23763622.0474                   23763620.1604
  -9822654.55147  -7644465.73043  23652377.4304                   23652377.6604
 -11800852.09047  -9187857.94545  22668962.4844                   22668959.1994
 -16404914.06248 -12775779.25045  21510932.5314                   21510929.5634
 -13934073.54748 -10853599.43746  20394665.4534                   20394662.0164
  -1122697.77747   -866627.69945  21516044.3364                   21516041.9804
  -6007548.31648  -4671309.69945  21689972.6804                   21689967.7384
  15272646.34047  11905503.95343  23449213.6024                   23449211.9344
 -14981845.05547 -11656413.68745  22199260.8134                   22199257.6524
 11  8 13 18  9  0.0000000  0  9G03G24G28G08G07G13G19G23G11
  11106508.07846   8662922.27342  23789646.8834                   23789644.6524
  -9868632.30547  -7680292.44943  23643627.0234                   23643628.3094
 -11811224.95347  -9195940.65644  22666988.5164                   22666985.6524
 -16445765.79348 -12807611.75045  21503159.0634                   21503156.1454
 -13934765.37948 -10854138.51646  20394534.1024                   20394529.7154
  -1003705.77347   -773906.71545  21538688.1954                   21538684.9144
  -5909184.87148  -4594662.88346  21708690.7974                   21708685.7734
  15414200.71546  12015805.86343  23476150.6174                   23476148.9064
 -15014095.71947 -11681544.02345  22193123.9224                   22193120.2814
 11  8 13 18  9 30.0000000  0  9G03G24G28G08G07G13G19G23G11
  11243377.66446   8769573.84043  23815691.4064                   23815690.6374
  -9914569.43747  -7716087.50843  23634885.5944                   23634886.5864
 -11821456.81647  -9203913.50044  22665041.4384                   22665038.2544
 -16486522.21148 -12839369.98046  21495402.9924                   21495400.1764
 -13935171.04747 -10854454.62946  20394456.6414                   20394453.3444
   -884377.77748   -680923.92645  21561395.1334                   21561392.4064
  -5810396.28148  -4517684.78145  21727489.1724                   21727484.3594
  15555819.67247  12126158.07043  23503100.2034                   23503098.4384
 -15046022.87947 -11706422.28545  22187048.3754                   22187045.0124
 11  8 13 18 10  0.0000000  0  9G03G24G28G08G07G13G19G23G11
  11380347.62546   8876303.59843  23841757.8594                   23841755.8754
  -9960468.12147  -7751852.60943  23626151.8524                   23626152.3634
 -11831553.82847  -9211781.26645  22663120.6334                   22663117.4414
 -16527186.68748 -12871056.56445  21487664.9694                   21487661.7664
 -13935293.99248 -10854550.43046  20394433.2814                   20394429.7464
   -764723.06647   -587686.54745  21584165.1484                   21584162.2344
  -5711190.57448  -4440381.65646  21746367.7114                   21746362.7774
  15697494.83247  12236554.05943  23530060.4064                   23530058.1994
 -15077628.77347 -11731050.20744  22181034.0944                   22181030.7974
 11  8 13 18 10 30.0000000  0  9G03G24G28G08G07G13G19G23G11
  11517402.93446   8983099.85943  23867837.6954                   23867836.6414
 -10006337.83247  -7787595.15643  23617422.8914                   23617423.6054
 -11841529.27747  -9219554.32045  22661221.7974                   22661218.9804
 -16567769.82048 -12902679.76645  21479941.7814                   21479939.0084
 -13935144.39148 -10854433.85946  20394461.6724                   20394458.4534
   -644756.84848   -494206.43745  21606993.6094                   21606991.1994
  -5611582.61348  -4362765.08645  21765322.5554                   21765317.6884
  15839210.88347  12346981.94544  23557028.8134                   23557026.4454
 -15108923.25047 -11755435.47745  22175078.8754                   22175076.0474
 11  8 13 18 11  0.0000000  0  9G03G24G28G08G07G13G19G23G11
  11654553.08946   9089970.03443  23893936.9224                   23893935.1214
 -10052163.69147  -7823303.47543  23608702.6484                   23608703.3324
 -11851372.12347  -9227224.04145  22659349.1484                   22659345.9694
 -16608257.69448 -12934228.75346  21472237.3284                   21472234.2274
 -13934708.70848 -10854094.36446  20394544.9144                   20394541.0164
   -524469.67747   -400476.24345  21629883.4224                   21629881.0044
  -5511563.12948  -4284827.86145  21784355.8754                   21784350.8674
  15980977.11646  12457448.92643  23584006.0474                   23584004.2154
 -15139891.29747 -11779566.37545  22169185.1804                   22169182.7074
 11  8 13 18 11 30.0000000  0  9G03G24G28G08G07G13G19G23G11
  11791798.26646   9196914.25443  23920053.2034                   23920051.9414
 -10097939.76247  -7858973.03943  23599991.3754                   23599991.4964
 -11861080.31247  -9234788.84444  22657501.7194                   22657498.4844
 -16648645.67648 -12965699.89545  21464551.4454                   21464549.2544
 -13933982.23048 -10853528.28546  20394683.3984                   20394679.4734
   -403861.87947   -306496.19945  21652834.6094                   21652832.1024
  -5411132.01648  -4206569.87145  21803467.1884                   21803461.8874
  16122793.18446  12567954.71143  23610991.7974                   23610990.9384
 -15170527.54347 -11803438.73845  22163354.9454                   22163352.5274
 11  8 13 18 12  0.0000000  0  9G03G24G28G08G07G13G19G23G11
  11929134.79746   9303929.63743  23946188.4844                   23946186.3164
 -10143664.15247  -7894602.32043  23591291.0944                   23591290.4574
 -11870655.62547  -9242250.10945  22655679.7344                   22655676.3914
 -16688932.59848 -12997092.28945  21456885.2814                   21456882.3284
 -13932964.25048 -10852735.04346  20394876.9224                   20394872.7154
   -282937.31347   -212269.32445  21675845.7114                   21675843.0474
  -5310292.78548  -4127993.88346  21822656.0004                   21822651.1374
  16264655.55546  12678496.57443  23637988.3444                   23637986.9344
 -15200829.75447 -11827050.81645  22157589.1174                   22157586.3014
 11  8 13 18 12 30.0000000  0  9G03G24G28G08G07G13G19G23G11
  12066569.96146   9411021.88343  23972341.3134                   23972339.5474
 -10189324.16047  -7930181.41843  23582601.5084                   23582601.7304
 -11880089.44947  -9249601.12145  22653884.0474                   22653880.8164
 -16729106.80948 -13028396.85546  21449240.5944                   21449237.3094
 -13931643.21948 -10851705.65646  20395128.1024                   20395124.6134
   -161688.99647   -117790.18745  21698918.5314                   21698916.0514
  -5209038.54748  -4049094.50046  21841923.8204                   21841919.0204
  16406570.77346  12789079.62943  23664993.3134                   23664992.3324
 -15230785.66847 -11850393.05545  22151888.3204                   22151885.9304
 11  8 13 18 13  0.0000000  0  9G03G24G28G08G07G13G19G23G11
  12204101.33546   9518189.11343  23998512.6254                   23998510.6294
 -10234916.14847  -7965707.52043  23573925.8594                   23573925.9104
 -11889381.95747  -9256842.01645  22652115.2424                   22652112.6374
 -16769165.71948 -13059611.56846  21441617.4534                   21441614.6844
 -13930016.44648 -10850438.04346  20395437.2664                   20395434.0784
    -40119.69248    -23060.92945  21722052.3284                   21722049.7814
  -5107371.19248  -3969873.21345  21861270.9614                   21861266.1884
  16548536.40347  12899701.94143  23692009.5784                   23692007.6374
 -15260391.96647 -11873462.84845  22146254.3984                   22146252.0044
 11  8 13 18 13 30.0000000  0  9G03G24G28G08G07G13G19G23G11
  12341721.52046   9625425.53143  24024700.6254                   24024699.2894
 -10280442.43046  -8001182.44943  23565261.5554                   23565262.4144
 -11898539.28947  -9263977.57845  22650373.4774                   22650369.5664
 -16809112.36748 -13090738.80946  21434015.6254                   21434013.4344
 -13928087.55548 -10848935.00846  20395804.6174                   20395801.1604
     81762.55147     71912.18445  21745245.5474                   21745243.3984
  -5005298.85248  -3890336.34845  21880694.4064                   21880689.4064
  16690544.45346  13010357.34843  23719032.4844                   23719030.8484
 -15289650.98047 -11896262.05945  22140687.0004                   22140684.4384
 11  8 13 18 14  0.0000000  0  9G03G24G28G08G07G13G19G23G11
  12479450.71146   9732746.89543  24050909.5394                   24050908.4304
 -10325876.58246  -8036585.56243  23556616.1644                   23556616.8404
 -11907539.32847  -9270990.57445  22648660.6724                   22648657.8364
 -16848921.72748 -13121759.07046  21426440.6724                   21426437.5904
 -13925831.72348 -10847177.21546  20396234.1804                   20396230.1484
    203977.82048    167144.79745  21768503.1724                   21768500.8714
  -4902801.01248  -3810467.92645  21900199.1484                   21900194.5664
  16832615.54746  13121061.85243  23746067.6644                   23746066.9064
 -15318536.79347 -11918770.43045  22135190.2194                   22135187.0354
 11  8 13 18 14 30.0000000  0  9G03G24G28G08G07G13G19G23G11
  12617281.51246   9840147.46943  24077137.9694                   24077136.5004
 -10371220.62946  -8071918.46143  23547987.0314                   23547987.6684
 -11916387.98047  -9277885.60545  22646976.7584                   22646973.7704
 -16888597.32448 -13152675.09446  21418890.2504                   21418887.6174
 -13923251.80948 -10845166.89846  20396724.8284                   20396720.9844
    326518.38348    262630.88345  21791821.2114                   21791819.1454
  -4799885.20348  -3730273.80145  21919783.1564                   21919778.3954
  16974741.28146  13231808.92643  23773113.8594                   23773112.8444
 -15347051.58647 -11940989.73445  22129763.6254                   22129761.1134
 11  8 13 18 15  0.0000000  0  8G24G28G08G07G13G19G23G11
 -10416459.44147  -8107169.35543  23539378.1254                   23539379.1484
 -11925073.74647  -9284653.69945  22645323.5634                   22645320.6374
 -16928124.75048 -13183475.65646  21411368.6484                   21411365.7424
 -13920333.76648 -10842893.10246  20397280.4304                   20397276.6724
    449393.21948    358377.43845  21815204.2584                   21815201.5594
  -4696542.30548  -3649746.89545  21939448.7814                   21939444.3634
  17116931.12946  13342605.98843  23800171.5784                   23800170.6804
 -15375180.62947 -11962908.42245  22124411.0554                   22124408.1724
 11  8 13 18 15 30.0000000  0  8G24G28G08G07G13G19G23G11
 -10461579.00446  -8142327.37543  23530792.2974                   23530793.0004
 -11933586.73447  -9291287.17245  22643703.1484                   22643700.7234
 -16967490.69548 -13214150.39846  21403877.2504                   21403874.6524
 -13917065.25448 -10840346.21546  20397902.1334                   20397898.4384
    572610.76248    454391.05145  21838651.2114                   21838648.8594
  -4592763.69948  -3568880.46945  21959197.5634                   21959192.3984
  17259193.41846  13453459.44943  23827243.7974                   23827242.3594
 -15402910.21547 -11984515.85545  22119134.1334                   22119131.1914
 11  8 13 18 16  0.0000000  0  8G24G28G08G07G13G19G23G11
 -10506575.72547  -8177389.66043  23522230.0554                   23522230.2464
 -11941927.02547  -9297786.08445  22642116.8054                   22642113.8954
 -17006692.66048 -13244697.35546  21396417.3444                   21396414.6334
 -13913443.39148 -10837523.99246  20398591.2734                   20398587.4534
    696168.54748    550669.77745  21862164.0474                   21862161.5394
  -4488551.49248  -3487676.16845  21979028.4304                   21979023.4924
  17401526.20846  13564367.86443  23854328.8134                   23854327.4064
 -15430236.53247 -12005809.07445  22113933.9384                   22113931.6254
 11  8 13 18 16 30.0000000  0  8G24G28G08G07G13G19G23G11
 -10551439.82447  -8212348.59443  23513692.5234                   23513692.7704
 -11950089.09847  -9304146.11345  22640563.9694                   22640559.9144
 -17045722.03148 -13275109.83246  21388990.2974                   21388987.5234
 -13909459.98448 -10834420.05146  20399349.4774                   20399345.3834
    820069.57448    647215.97345  21885741.0394                   21885739.0944
  -4383902.13348  -3406131.24245  21998942.4454                   21998937.9104
  17543932.80946  13675333.78143  23881428.8834                   23881426.9694
 -15457150.96147 -12026781.32045  22108812.5864                   22108809.1214
 11  8 13 18 17  0.0000000  0  8G24G28G08G07G13G19G23G11
 -10596155.47347  -8247191.87143  23505183.2034                   23505183.5084
 -11958060.93447  -9310357.91045  22639046.7424                   22639042.8484
 -17084563.68748 -13305376.04746  21381598.9224                   21381596.3094
 -13905100.14148 -10831022.77746  20400179.3054                   20400175.0594
    944324.09048    744037.60245  21909386.2344                   21909383.7194
  -4278805.23448  -3324237.57045  22018941.6724                   22018936.6884
  17686423.07446  13786364.89843  23908543.5004                   23908542.4694
 -15483637.67647 -12047420.28545  22103772.2584                   22103769.1954
 11  8 13 18 17 30.0000000  0  8G24G28G08G07G13G19G23G11
 -10640720.08247  -8281917.43743  23496703.0084                   23496703.2894
 -11965843.99647  -9316422.62145  22637565.5704                   22637562.1254
 -17123216.07448 -13335494.76246  21374243.9064                   21374241.0354
 -13900362.80548 -10827331.34846  20401081.1954                   20401076.9844
   1068928.64848    841132.00045  21933098.0944                   21933095.4454
  -4173264.03148  -3241997.69945  22039025.6254                   22039020.7384
  17828993.78946  13897458.69144  23935675.0084                   23935673.0554
 -15509694.52047 -12067724.29745  22098813.7974                   22098810.8914
 11  8 13 18 18  0.0000000  0  8G24G28G08G07G13G19G23G11
 -10685122.96947  -8316517.02343  23488253.5234                   23488254.1684
 -11973431.69147  -9322335.09445  22636121.4304                   22636118.1374
 -17161669.51648 -13365458.46946  21366926.4224                   21366923.4534
 -13895238.43448 -10823338.33246  20402055.7194                   20402051.8914
   1193887.78147    938502.69545  21956876.5004                   21956874.4964
  -4067273.68848  -3159407.84045  22059194.8914                   22059190.2504
  17971649.87146  14008619.02343  23962820.8674                   23962819.9694
 -15535310.92648 -12087685.09845  22093939.0234                   22093936.0394
 11  8 13 18 18 30.0000000  0  8G24G28G08G07G13G19G23G11
 -10729358.31647  -8350986.04743  23479835.3594                   23479835.8984
 -11980821.81647  -9328093.60945  22634715.5864                   22634711.8634
 -17199919.30548 -13395263.49246  21359647.7114                   21359645.0474
 -13889722.37948 -10819040.10546  20403105.5394                   20403101.4384
   1319201.48448   1036149.65245  21980723.2424                   21980720.7274
  -3960834.28548  -3076468.07845  22079449.5164                   22079444.8164
  18114391.46547  14119845.98843  23989983.8524                   23989983.0904
 -15560481.64547 -12107298.61345  22089149.1884                   22089146.2734
 11  8 13 18 19  0.0000000  0  8G24G28G08G07G13G19G23G11
 -10773411.06247  -8385312.76244  23471452.5474                   23471453.2974
 -11988003.50048  -9333689.69945  22633348.6724                   22633345.5124
 -17237951.64148 -13424899.06246  21352410.2734                   21352407.4654
 -13883800.92248 -10814425.98046  20404232.3054                   20404228.2854
   1444878.44948   1134079.67645  22004638.8204                   22004636.2704
  -3853936.67648  -2993171.27745  22099791.6564                   22099787.1214
  18257227.47747  14231146.51243  24017164.0314                   24017163.9414
 -15585191.98448 -12126553.39145  22084447.0084                   22084444.1414
 11  8 13 18 19 30.0000000  0  8G24G28G08G07G13G19G23G11
 -10817282.48847  -8419498.19143  23463103.9774                   23463104.0784
 -11994981.98047  -9339127.44945  22632021.1334                   22632017.4734
 -17275768.30548 -13454366.57846  21345214.2424                   21345211.4024
 -13877476.50048 -10809497.86746  20405435.5944                   20405431.7464
   1570911.19948   1232286.94145  22028622.3284                   22028620.5474
  -3746587.82847  -2909522.84445  22120219.4844                   22120214.8094
  18400151.00846  14342515.21943  24044362.7664                   24044361.9774
 -15609443.69947 -12145450.80945  22079832.7584                   22079828.8324
 11  8 13 18 20  0.0000000  0  8G24G28G08G07G13G19G23G11
 -10860961.84047  -8453533.95743  23454791.8594                   23454792.4654
 -12001750.54347  -9344401.62945  22630732.5474                   22630729.5904
 -17313359.41848 -13483658.33646  21338060.6414                   21338057.7464
 -13870739.97348 -10804248.62546  20406717.5084                   20406713.5314
   1697304.53148   1330775.18045  22052674.3284                   22052671.6524
  -3638782.81648  -2825518.96545  22140734.0234                   22140729.5984
  18543166.57546  14453955.69143  24071577.2034                   24071576.8164
 -15633226.33247 -12163982.69545  22075306.2894                   22075303.5824
 11  8 13 18 20 30.0000000  0  8G24G28G08G07G13G19G23G11
 -10904445.28547  -8487417.08243  23446517.0944                   23446517.4964
 -12008309.12547  -9349512.19145  22629484.3754                   22629480.7624
 -17350722.38748 -13512772.32046  21330950.4844                   21330947.7234
 -13863588.29748 -10798675.89546  20408078.2504                   20408074.8674
   1824056.41848   1429542.81345  22076793.9774                   22076791.8674
  -3530523.41448  -2741161.01245  22161334.8674                   22161330.2154
  18686272.30146  14565466.33643  24098809.0004                   24098809.7344
 -15656536.41847 -12182146.38345  22070870.7504                   22070867.7974
 11  8 13 18 21  0.0000000  0  8G24G28G08G07G13G19G23G11
 -10947732.79747  -8521147.51243  23438280.0314                   23438280.3634
 -12014661.46147  -9354462.03945  22628275.7194                   22628272.1374
 -17387858.03948 -13541709.17646  21323883.8364                   21323880.3874
 -13856022.78948 -10792780.69946  20409518.1174                   20409514.5434
   1951160.60547   1528584.96145  22100981.5474                   22100979.0514
  -3421815.63748  -2656453.67645  22182021.7504                   22182016.4224
  18829462.42646  14677042.80942  24126057.3444                   24126058.3674
 -15679374.54748 -12199942.29745  22066524.6484                   22066521.9184
 11  8 13 18 21 30.0000000  0  9G17G24G28G08G07G13G19G23G11
  -8028482.22356  -6240105.16452  24631542.3204                   24631544.9144
 -10990826.97747  -8554727.32043  23430079.1804                   23430079.9964
 -12020814.78547  -9359256.80945  22627104.8834                   22627101.3484
 -17424769.96548 -13570471.69146  21316859.8754                   21316856.9384
 -13848048.03148 -10786566.60246  20411035.8674                   20411032.0314
   2078608.14148   1627894.65245  22125233.9614                   22125231.4304
  -3312668.33247  -2571403.84845  22202791.5474                   22202786.9774
  18972728.22746  14788678.23442  24153320.2814                   24153321.0434
 -15701744.00848 -12217373.01245  22062267.8054                   22062264.8594
 11  8 13 18 22  0.0000000  0  9G17G24G28G08G07G13G19G23G11
  -8104677.53146  -6299477.88743  24617042.6884                   24617045.0704
 -11033724.07447  -8588153.54743  23421916.3914                   23421916.7384
 -12026768.99747  -9363896.42445  22625971.3364                   22625968.4734
 -17461455.52748 -13599057.82446  21309878.5164                   21309875.8914
 -13839661.00048 -10780031.25446  20412631.7194                   20412627.9144
   2206397.06247   1727470.36345  22149551.2814                   22149548.9304
  -3203083.14547  -2486012.82445  22223644.5944                   22223640.3794
  19116067.96546  14900371.23543  24180597.6414                   24180597.2194
 -15723641.07448 -12234435.64145  22058100.9384                   22058098.1024
 11  8 13 18 22 30.0000000  0  9G17G24G28G08G07G13G19G23G11
  -8180719.48846  -6358731.09043  24602572.1724                   24602574.5634
 -11076434.71947  -8621434.51644  23413788.4534                   23413788.6844
 -12032538.30547  -9368391.94545  22624873.7194                   22624870.4534
 -17497925.80148 -13627476.20346  21302938.7114                   21302935.8444
 -13830873.34448 -10773183.75446  20414303.7424                   20414299.9264
   2334510.49647   1827298.93845  22173930.8834                   22173928.3364
  -3093076.46547  -2400293.35945  22244578.5944                   22244573.9184
  19259465.21546  15012109.05543  24207885.7814                   24207884.7624
 -15745076.86348 -12251138.83645  22054021.7584                   22054018.7074
 11  8 13 18 23  0.0000000  0  9G17G24G28G08G07G13G19G23G11
  -8256607.88346  -6417864.67243  24588131.2114                   24588133.7734
 -11118957.60247  -8654569.15643  23405696.2584                   23405697.2584
 -12038125.69147  -9372745.70745  22623810.3594                   22623807.7304
 -17534180.48048 -13655726.58646  21296039.8834                   21296036.9924
 -13821685.41848 -10766024.30946  20416052.4144                   20416048.4104
   2462943.53947   1927376.55545  22198370.5084                   22198368.1374
  -2982652.94947  -2314249.08245  22265591.5474                   22265586.9884
  19402914.99246  15123887.85243  24235183.1644                   24235182.8014
 -15766050.86348 -12267482.19945  22050031.1094                   22050027.9224
 11  8 13 18 23 30.0000000  0  9G17G24G28G08G07G13G19G23G11
  -8332364.67446  -6476895.63043  24573714.6884                   24573716.8364
 -11161313.54647  -8687573.68843  23397636.8914                   23397636.8484
 -12043556.24647  -9376977.26645  22622776.8834                   22622773.4064
 -17570241.34848 -13683825.94746  21289177.5084                   21289175.0354
 -13812119.31248 -10758570.18946  20417872.7504                   20417869.1134
   2591669.23447   2027682.22345  22222866.4844                   22222864.1724
  -2871839.60247  -2227901.04345  22286678.9454                   22286674.0824
  19546390.71546  15235686.84844  24262486.9144                   24262486.1174
 -15786584.30848 -12283482.26545  22046123.2194                   22046120.3674
 11  8 13 18 24  0.0000000  0  9G17G24G28G08G07G13G19G23G11
  -8407984.26347  -6535819.71743  24559325.1644                   24559326.6094
 -11203495.73147  -8720442.86644  23389609.6254                   23389609.6214
 -12048826.82147  -9381084.15545  22621774.1414                   22621770.6764
 -17606102.78148 -13711769.90746  21282353.3674                   21282350.0474
 -13802169.67148 -10750817.21446  20419766.5004                   20419762.5704
   2720688.30847   2128216.48245  22247418.3524                   22247415.2504
  -2760635.63247  -2141248.61645  22307840.1334                   22307835.1484
  19689893.40447  15347506.83543  24289793.9924                   24289793.0944
 -15806670.97147 -12299134.17045  22042301.0314                   22042297.9694
 11  8 13 18 24 30.0000000  0  9G17G24G28G08G07G13G19G23G11
  -8483471.23847  -6594640.46944  24544960.2734                   24544961.8954
 -11245507.68747  -8753179.38744  23381615.2584                   23381615.0434
 -12053945.16847  -9385072.43445  22620800.2814                   22620796.8364
 -17641769.11348 -13739561.84446  21275566.5944                   21275563.3914
 -13791841.15648 -10742769.02346  20421731.8204                   20421727.9304
   2849990.98847   2228971.73445  22272023.6334                   22272021.1024
  -2649049.97347  -2054298.77745  22329073.9454                   22329069.5434
  19833413.70347  15459340.55143  24317105.2504                   24317105.0554
 -15826314.81648 -12314441.04345  22038563.2814                   22038559.8754
 11  8 13 18 25  0.0000000  0  9G17G24G28G08G07G13G19G23G11
  -8558834.95746  -6653365.17644  24530618.3674                   24530619.8794
 -11287358.03547  -8785789.97744  23373650.5634                   23373650.7344
 -12058923.63747  -9388951.72345  22619853.0234                   22619850.0664
 -17677249.39548 -13767208.81246  21268814.4384                   21268811.4654
 -13781143.99848 -10734433.57746  20423767.3134                   20423763.5044
   2979562.86747   2329936.76245  22296679.9064                   22296677.7114
  -2537097.08247  -1967062.78145  22350377.8594                   22350373.3054
  19976937.34446  15571176.85243  24344416.4064                   24344416.9414
 -15845525.06848 -12329410.04145  22034907.3674                   22034904.3134
 11  8 13 18 25 30.0000000  0  9G17G24G28G08G07G13G19G23G11
  -8634071.35546  -6711990.69543  24516301.2814                   24516302.8284
 -11329041.47347  -8818270.50044  23365718.9144                   23365718.9804
 -12063761.34447  -9392721.32845  22618931.9844                   22618928.8164
 -17712539.36348 -13794707.48846  21262098.9144                   21262096.5514
 -13770074.10948 -10725807.71546  20425873.5634                   20425870.2624
   3109402.55947   2431110.46545  22321388.2194                   22321385.7774
  -2424778.07847  -1879541.50445  22371751.9614                   22371746.8954
  20120463.60246  15683015.20343  24371729.6954                   24371729.0634
 -15864297.38347 -12344037.79745  22031334.6094                   22031331.8984
 11  8 13 18 26  0.0000000  0  9G17G24G28G08G07G13G19G23G11
  -8709194.14146  -6770527.66444  24502006.3204                   24502007.8444
 -11370570.82047  -8850630.98443  23357815.7194                   23357816.3484
 -12068474.65247  -9396393.99645  22618035.3134                   22618032.3834
 -17747652.94948 -13822068.71146  21255417.1414                   21255414.3714
 -13758645.64848 -10716902.42246  20428048.2814                   20428044.6374
   3239491.03947   2532478.03144  22346143.1334                   22346141.2704
  -2312111.65247  -1791749.51245  22393191.4534                   22393186.6804
  20263973.82846  15794841.03943  24399039.1564                   24399038.4264
 -15882644.78147 -12358334.44145  22027843.5554                   22027840.6024
 11  8 13 18 26 30.0000000  0  9G17G24G28G08G07G13G19G23G11
  -8784208.00846  -6828979.79743  24487730.4144                   24487732.6254
 -11411950.02047  -8882874.43044  23349941.6414                   23349941.5004
 -12073071.53547  -9399975.95745  22617160.4844                   22617157.1564
 -17782594.99648 -13849296.27346  21248767.8754                   21248764.6374
 -13746863.72748 -10707721.70746  20430290.5164                   20430286.7424
   3369818.82847   2634032.07444  22370943.8284                   22370941.2774
  -2199107.25447  -1703694.16845  22414695.6484                   22414690.7194
  20407458.56346  15906647.06643  24426342.8134                   24426342.7974
 -15900571.68048 -12372303.43445  22024432.0164                   22024428.7424
 11  8 13 18 27  0.0000000  0  9G17G24G28G08G07G13G19G23G11
  -8859123.58246  -6887355.32843  24473474.9694                   24473476.3754
 -11453188.13347  -8915007.94544  23342093.8674                   23342094.6604
 -12077565.16047  -9403477.44945  22616305.0084                   22616302.1484
 -17817375.16048 -13876397.68746  21242149.3984                   21242146.8554
 -13734738.92648 -10698273.82046  20432597.5314                   20432594.2154
   3500370.34447   2735760.45345  22395786.6174                   22395785.6134
  -2085780.02347  -1615387.25445  22436261.2344                   22436256.4024
  20550902.67246  16018421.36343  24453638.6334                   24453640.1844
 -15918087.88747 -12385952.39845  22021098.6484                   22021095.6604
 11  8 13 18 27 30.0000000  0  9G17G24G28G08G07G13G19G23G11
  -8933941.15246  -6945654.52743  24459237.2504                   24459238.2814
 -11494284.81947  -8947031.26244  23334273.6254                   23334273.7584
 -12081959.20547  -9406901.35145  22615468.9224                   22615466.0474
 -17851993.77448 -13903373.22546  21235562.0474                   21235558.6884
 -13722272.12248 -10688559.42946  20434969.8754                   20434966.8014
   3631139.97347   2837658.77144  22420671.6954                   22420669.4494
  -1972135.39147  -1526833.01745  22457886.7034                   22457882.2894
  20694300.58646  16130159.71542  24480927.4144                   24480928.0664
 -15935193.78548 -12399281.65645  22017843.6414                   22017840.6564
 11  8 13 18 28  0.0000000  0  9G17G24G28G08G07G13G19G23G11
  -9008671.58246  -7003885.82043  24445016.9844                   24445016.9184
 -11535249.75447  -8978951.93044  23326478.1884                   23326478.2424
 -12086267.19947  -9410258.19545  22614649.1724                   22614645.9534
 -17886461.78148 -13930231.39846  21229002.6094                   21228999.6454
 -13709474.53548 -10678587.28546  20437405.3134                   20437401.6844
   3762111.59047   2939714.48844  22445594.6094                   22445592.6994
  -1858189.02047  -1438043.66445  22479570.1174                   22479564.9064
  20837636.80546  16241849.93842  24508204.0234                   24508205.2274
 -15951899.82047 -12412299.33245  22014664.6644                   22014661.7734
 11  8 13 18 28 30.0000000  0  9G17G24G28G08G07G13G19G23G11
  -9083321.95346  -7062054.77043  24430811.6094                   24430811.7974
 -11576089.20347  -9010774.80143  23318707.0234                   23318706.9414
 -12090499.44547  -9413556.02045  22613843.7734                   22613840.5124
 -17920786.14148 -13956977.64146  21222471.1094                   21222467.9574
 -13696353.48848 -10668363.09846  20439902.3204                   20439898.4774
   3893273.16047   3041918.20344  22470553.8284                   22470552.1054
  -1743953.01247  -1349028.60945  22501308.3444                   22501303.4574
  20980899.81646  16353483.13342  24535467.1024                   24535468.0824
 -15968212.48447 -12425010.46945  22011560.4924                   22011556.8014
 11  8 13 18 29  0.0000000  0  8G17G24G28G08G07G13G19G11
  -9157904.17146  -7120170.62443  24416618.5944                   24416619.5744
 -11616813.43447  -9042507.88844  23310957.3754                   23310957.8634
 -12094670.41247  -9416806.10145  22613050.1254                   22613046.7464
 -17954977.93048 -13983620.59246  21215964.7814                   21215961.9454
 -13682921.36748 -10657896.51346  20442458.3204                   20442454.5274
   4024607.90847   3144256.87244  22495546.6254                   22495544.2774
  -1629443.96247  -1259800.82045  22523098.8204                   22523093.9884
 -15984143.11747 -12437423.92945  22008528.6804                   22008525.5744
 11  8 13 18 29 30.0000000  0  8G17G24G28G08G07G13G19G11
  -9232411.08846  -7178227.80543  24402439.7584                   24402440.8524
 -11657414.47047  -9074144.97144  23303230.9224                   23303230.7894
 -12098776.03847  -9420005.25545  22612268.8444                   22612265.5704
 -17989030.33548 -14010154.91446  21209484.7114                   21209481.4574
 -13669171.24948 -10647182.14346  20445075.1954                   20445070.8794
   4156117.38247   3246731.68444  22520572.0234                   22520569.9454
  -1514659.57847  -1170358.46445  22544941.3054                   22544936.6454
 -15999684.40148 -12449533.98945  22005571.6024                   22005567.8984
 11  8 13 18 30  0.0000000  0  8G17G24G28G08G07G13G19G11
  -9306850.42546  -7236232.34544  24388274.3754                   24388275.3714
 -11697899.23047  -9105691.47744  23295527.1484                   23295527.3284
 -12102827.15647  -9423161.94945  22611497.8284                   22611494.5314
 -18022950.48948 -14036586.19746  21203029.6094                   21203026.1644
 -13655111.32148 -10636226.36346  20447750.1954                   20447746.5084
   4287788.98447   3349332.82844  22545628.1254                   22545625.9924
  -1399612.69547  -1080711.56645  22566834.3284                   22566829.1844
 -16014843.88248 -12461346.55245  22002686.4304                   22002683.3484
 11  8 13 18 30 30.0000000  0  8G17G24G28G08G07G13G19G11
  -9381231.93746  -7294191.80144  24374119.9064                   24374121.1804
 -11738276.20347  -9137153.95344  23287842.9534                   23287843.4184
 -12106836.25847  -9426285.91045  22610734.7734                   22610731.9734
 -18056748.26648 -14062922.11746  21196598.2814                   21196595.2304
 -13640751.55948 -10625036.94946  20450483.0474                   20450479.4694
   4419607.84447   3452048.72344  22570712.4924                   22570710.4804
  -1284317.61347   -990871.28145  22588774.3134                   22588769.7624
 -16029630.88347 -12472868.86745  21999872.6484                   21999869.4264
 11  8 13 18 31  0.0000000  0  8G17G24G28G08G07G13G19G11
  -9455549.18047  -7352101.19544  24359978.0864                   24359978.7384
 -11778537.91847  -9168526.64144  23280182.0944                   23280181.6414
 -12110799.78147  -9429374.35245  22609980.6954                   22609977.3134
 -18090416.69548 -14089157.24246  21190191.2734                   21190188.3444
 -13626085.79348 -10613609.10246  20453273.5864                   20453270.0314
   4551575.05547   3554880.20744  22595825.0474                   22595823.3244
  -1168773.11747   -900836.64845  22610761.7424                   22610756.8754
 -16044038.48447 -12484095.55145  21997130.7734                   21997127.8674
 11  8 13 18 31 30.0000000  0  8G17G24G28G08G07G13G19G11
  -9529801.35547  -7409959.89144  24345848.1174                   24345848.7774
 -11818682.52347  -9199808.08244  23272542.4614                   23272542.2194
 -12114719.99247  -9432429.03945  22609234.3204                   22609231.3014
 -18123954.44948 -14115290.55546  21183809.1484                   21183805.7114
 -13611113.49248 -10601942.39546  20456123.1484                   20456119.2704
   4683686.68747   3657824.23444  22620965.2274                   22620962.9454
  -1052983.16047   -810610.73845  22632795.8834                   22632791.2894
 -16058065.97348 -12495026.04345  21994461.5784                   21994458.5314
 11  8 13 18 32  0.0000000  0  9G17G26G24G28G08G07G13G19G11
  -9603998.62146  -7467775.80544  24331728.5704                   24331728.7544
  -7943238.44955  -6176726.85253  24357624.0394                   24357623.8554
 -11858718.86747  -9231005.13744  23264923.2114                   23264923.0274
 -12118609.68747  -9435459.95345  22608494.4224                   22608490.9654
 -18157371.99648 -14141330.18746  21177450.0234                   21177447.0664
 -13595845.58648 -10590045.31646  20459028.2114                   20459024.9024
   4815927.45347   3760868.87944  22646130.0474                   22646128.1954
   -936962.53947   -720205.09045  22654873.6724                   22654869.1334
 -16071722.78548 -12505667.68745  21991862.9144                   21991859.6414
 11  8 13 18 32 30.0000000  0  9G17G26G24G28G08G07G13G19G11
  -9678145.96546  -7525552.81244  24317618.5004                   24317619.7424
  -8003804.76245  -6223921.31243  24346098.7504                   24346098.4264
 -11898650.93747  -9262120.94944  23257324.8914                   23257325.2344
 -12122476.80547  -9438473.27045  22607758.4224                   22607755.2154
 -18190673.54348 -14167279.43446  21171112.9614                   21171110.0434
 -13580287.34048 -10577922.02346  20461988.8674                   20461985.4884
   4948287.14547   3864006.18844  22671316.9454                   22671315.4964
   -820721.13747   -629627.40245  22676993.9774                   22676989.4344
 -16085013.52047 -12516024.08245  21989333.7034                   21989330.6254
 11  8 13 18 33  0.0000000  0  9G17G26G24G28G08G07G13G19G11
  -9752237.18046  -7583286.07844  24303519.6254                   24303520.3444
  -8064082.13345  -6270890.61743  24334628.3524                   24334627.3594
 -11938471.91447  -9293150.20344  23249746.9844                   23249746.9964
 -12126318.55947  -9441466.83645  22607027.6724                   22607024.0554
 -18223852.90648 -14193133.48446  21164799.2974                   21164796.6254
 -13564432.94548 -10565567.97346  20465005.9614                   20465002.5634
   5080766.85947   3967237.02744  22696527.4454                   22696525.4734
   -704257.94147   -538876.89845  22699156.2584                   22699151.6214
 -16097932.30147 -12526090.64145  21986875.2424                   21986872.6214
 11  8 13 18 33 30.0000000  0  9G17G26G24G28G08G07G13G19G11
  -9826273.45346  -7640976.50044  24289430.3444                   24289431.7304
  -8124070.44546  -6317634.72743  24323212.6414                   24323211.8444
 -11978181.48847  -9324092.68044  23242190.0704                   23242189.9964
 -12130138.53547  -9444443.40245  22606300.2814                   22606297.0704
 -18256910.59048 -14218892.70746  21158508.4844                   21158505.7034
 -13548283.68048 -10552984.13747  20468079.2114                   20468075.2854
   5213360.29747   4070556.48044  22721759.1644                   22721756.7854
   -587578.60947   -447957.97345  22721359.1884                   22721354.7504
 -16110479.96947 -12535868.02045  21984487.3914                   21984484.5234
 11  8 13 18 34  0.0000000  0  9G17G26G24G28G08G07G13G19G11
  -9900243.95746  -7698615.69544  24275354.7114                   24275355.2584
  -8183758.11745  -6364144.53943  24311854.1024                   24311853.4224
 -12017767.84047  -9354939.09044  23234656.8134                   23234656.9024
 -12133929.26647  -9447397.19945  22605578.9694                   22605575.6374
 -18289835.76648 -14244548.68446  21152243.1724                   21152240.2544
 -13531829.27348 -10540162.55546  20471210.5164                   20471206.7344
   5346072.92247   4173968.80544  22747013.7034                   22747011.7384
   -470677.49647   -356866.23045  22743605.0634                   22743600.3054
 -16122645.19547 -12545347.39545  21982172.5394                   21982169.3984
 11  8 13 18 34 30.0000000  0  9G17G26G24G28G08G07G13G19G11
  -9974146.57046  -7756201.99644  24261291.1094                   24261292.1684
  -8243142.50446  -6410418.03143  24300553.7504                   24300552.7424
 -12057227.97347  -9385687.18444  23227148.8524                   23227148.0354
 -12137690.95347  -9450328.35245  22604863.1954                   22604859.8244
 -18322626.20348 -14270099.67246  21146003.3204                   21146000.2194
 -13515068.11348 -10527101.92646  20474400.1094                   20474395.8014
   5478901.94947   4277471.81344  22772290.1414                   22772288.4024
   -353557.09847   -265603.61345  22765891.8364                   22765887.2114
 -16134425.44948 -12554526.79345  21979930.8054                   21979927.8794
 11  8 13 18 35  0.0000000  0  9G17G26G24G28G08G07G13G19G11
 -11623391.94046  -9041328.10343  23947450.7974                   23947451.4414
  -9877632.68946  -7684046.75443  23989520.3984                   23989519.0784
 -13671969.91447 -10643927.58644  22919873.2974                   22919873.4104
 -13716834.85447 -10680830.08445  22304362.3204                   22304358.7194
 -19930690.47048 -15523136.76046  20839999.2734                   20839995.6844
 -15073407.91448 -11741392.68646  20177857.6954                   20177853.9184
   4036438.75347   3153474.38144  22497798.8134                   22497796.8834
  -1811626.61747  -1401761.71945  22488430.9454                   22488426.1884
 -17721229.42147 -13790997.40545  21677972.1954                   21677968.9774
 11  8 13 18 35 30.0000000  0  9G17G26G24G28G08G07G13G19G11
 -11697124.00446  -9098781.50443  23933419.5634                   23933419.6684
  -9936373.14546  -7729818.53143  23978343.5234                   23978341.2734
 -13711139.37947 -10674449.17844  22912419.4844                   22912419.2464
 -13720512.85947 -10683696.03145  22303662.0234                   22303658.7704
 -19963174.86348 -15548449.27046  20833817.1644                   20833814.4024
 -15055999.24248 -11727827.46946  20181170.6334                   20181166.6454
   4169520.18747   3257174.07844  22523123.1334                   22523122.0314
  -1694047.71147  -1310141.82445  22510805.3284                   22510801.1454
 -17732205.08647 -13799549.85245  21675883.6414                   21675880.5354
 11  8 13 18 36  0.0000000  0  9G17G26G24G28G08G07G13G19G11
 -11770753.20046  -9156154.78244  23919408.0164                   23919407.9844
  -9994772.99546  -7775324.83942  23967229.7344                   23967227.8714
 -13750144.16847 -10704842.46544  22904996.5474                   22904996.5634
 -13724135.71147 -10686519.00445  22302972.9384                   22302969.4734
 -19995487.77348 -15573628.16046  20827668.3134                   20827665.3284
 -15038249.74548 -11713996.70046  20184548.1094                   20184544.6134
   4302738.07947   3360980.10044  22548473.9304                   22548472.4534
  -1576228.86747  -1218334.96545  22533225.8674                   22533220.9384
 -17742760.06248 -13807774.48845  21673874.7114                   21673871.6724
 11  8 13 18 36 30.0000000  0  9G17G26G24G28G08G07G13G19G11
 -11844271.51646  -9213441.62944  23905418.4224                   23905417.8484
 -10052822.93446  -7820558.52743  23956183.1254                   23956180.9384
 -13788974.97347 -10735100.18044  22897607.6254                   22897607.3874
 -13727697.91847 -10689294.71945  22302294.8364                   22302291.1454
 -20027621.09048 -15598667.10546  20821553.3984                   20821550.3164
 -15020151.87548 -11699894.47346  20187992.1804                   20187988.4924
   4436095.41847   3464894.78944  22573851.1334                   22573849.7114
  -1458166.97347  -1126338.72745  22555691.9304                   22555687.4844
 -17752886.17247 -13815664.94545  21671948.3674                   21671944.9304
 11  8 13 18 37  0.0000000  0  9G17G26G24G28G08G07G13G19G11
 -11917675.11347  -9270639.11543  23891449.4694                   23891449.3874
 -10110518.59846  -7865516.16043  23945204.8444                   23945202.7344
 -13827626.89547 -10765218.51244  22890253.2584                   22890251.9924
 -13731198.61647 -10692022.51045  22301628.9224                   22301625.2194
 -20059570.63748 -15623562.84846  20815474.8754                   20815471.1564
 -15001702.11348 -11685518.03146  20191503.1484                   20191499.2704
   4569590.56447   3568916.85944  22599255.1724                   22599253.0474
  -1339863.19447  -1034153.99345  22578205.0314                   22578199.8594
 -17762579.89947 -13823218.46545  21670103.7974                   21670100.4734
 11  8 13 18 37 30.0000000  0  9G17G26G24G28G08G07G13G19G11
 -11990951.41847  -9327737.39844  23877505.3754                   23877505.5204
 -10167847.19146  -7910187.72742  23934294.1174                   23934293.4884
 -13866086.77746 -10795187.18044  22882933.4304                   22882933.4534
 -13734628.52047 -10694695.13745  22300975.9844                   22300972.7774
 -20091323.40648 -15648305.25446  20809431.4534                   20809428.4104
 -14982888.60948 -11670858.16446  20195082.8524                   20195079.2424
   4703230.98847   3673052.11344  22624685.3674                   22624683.9884
  -1221310.03947   -941774.94545  22600764.4924                   22600759.8634
 -17771828.58247 -13830425.21545  21668343.2974                   21668340.4884
 11  8 13 18 38  0.0000000  0  9G17G26G24G28G08G07G13G19G11
 -12064095.60947  -9384732.74644  23863586.5634                   23863586.7034
 -10224802.65246  -7954568.65943  23923455.7274                   23923455.0164
 -13904348.16046 -10825001.18444  22875652.5634                   22875652.3014
 -13737985.07447 -10697310.62545  22300337.3284                   22300333.9614
 -20122874.19548 -15672890.27746  20803427.1884                   20803424.3984
 -14963706.84048 -11655911.33246  20198732.9304                   20198728.9574
   4837016.66047   3777300.57444  22650144.4694                   22650142.8674
  -1102506.97747   -849201.16045  22623372.4534                   22623367.2344
 -17780626.79748 -13837280.94945  21666668.6414                   21666666.0394
 11  8 13 18 38 30.0000000  0  9G17G26G24G28G08G07G13G19G11
 -12137105.32947  -9441623.30444  23849692.3444                   23849693.2384
 -10281382.16346  -7998656.47043  23912688.8984                   23912688.8054
 -13942407.84347 -10854658.00044  22868409.6334                   22868409.2274
 -13741269.33547 -10699869.76445  22299712.4614                   22299708.7384
 -20154220.11748 -15697315.66246  20797462.5164                   20797459.5274
 -14944154.94748 -11640676.08446  20202453.9304                   20202449.9224
   4970945.00547   3881660.18544  22675630.4844                   22675628.2974
   -983456.67547   -756434.73345  22646026.0944                   22646021.7974
 -17788972.15148 -13843783.78945  21665080.8834                   21665077.9924
 11  8 13 18 39  0.0000000  0  9G17G26G24G28G08G07G13G19G11
 -12209981.95346  -9498410.12144  23835824.4614                   23835825.2194
 -10337586.38346  -8042451.93843  23901993.7194                   23901993.6724
 -13980266.36746 -10884158.07044  22861205.7274                   22861205.4064
 -13744485.48047 -10702375.82445  22299100.2974                   22299097.2934
 -20185362.50848 -15721582.44946  20791536.5084                   20791533.3754
 -14924235.04348 -11625154.09046  20206244.1334                   20206240.6684
   5105008.99247   3986125.51244  22701141.3054                   22701140.0864
   -864165.69947   -663480.75845  22668727.1334                   22668722.4024
 -17796866.58248 -13849935.25445  21663578.9774                   21663575.2974
 11  8 13 18 39 30.0000000  0  9G17G26G24G28G08G07G13G19G11
 -12282718.70746  -9555087.96544  23821983.6484                   23821983.1684
 -10393407.43346  -8085948.88443  23891370.8364                   23891371.5004
 -14017915.18446 -10913494.77044  22854040.8594                   22854040.7734
 -13747629.19547 -10704825.45745  22298502.3834                   22298498.1764
 -20216293.73648 -15745684.70246  20785650.3754                   20785647.2504
 -14903939.86548 -11609339.67546  20210106.6644                   20210103.0314
   5239210.93147   4090698.31244  22726679.5234                   22726677.9104
   -744631.54347   -570337.30145  22691473.8134                   22691469.0434
 -17804302.39547 -13855729.36345  21662163.6564                   21662160.9104
 11  8 13 18 40  0.0000000  0  9G17G26G24G28G08G07G13G19G11
 -12355332.59446  -9611670.07044  23808165.1254                   23808165.6094
 -10448861.52046  -8129159.74242  23880818.8134                   23880819.1094
 -14055370.38347 -10942680.56644  22846914.1484                   22846913.3754
 -13750720.18447 -10707234.00445  22297914.2974                   22297910.5124
 -20247030.68748 -15769635.57046  20779801.4064                   20779798.1414
 -14883287.13348 -11593246.64146  20214036.6724                   20214032.8794
   5373529.02747   4195361.62144  22752239.4774                   22752237.7074
   -624876.00447   -477021.32845  22714262.3594                   22714257.9574
 -17811296.65247 -13861179.39845  21660832.5554                   21660829.7974
 11  8 13 18 40 30.0000000  0  9G17G26G24G28G08G07G13G19G11
 -12427813.63746  -9668148.62944  23794371.8524                   23794372.2384
 -10503938.37546  -8172076.68442  23870338.1564                   23870338.2154
 -14092621.13747 -10971707.06244  22839825.5944                   22839824.4384
 -13753751.50847 -10709596.05145  22297337.2814                   22297333.5234
 -20277563.01648 -15793426.98846  20773992.0784                   20773988.3164
 -14862267.59448 -11576867.78946  20218036.7344                   20218032.9454
   5507967.69547   4300118.88344  22777822.8204                   22777821.1914
   -504893.93447   -383528.83645  22737094.5704                   22737089.5164
 -17817839.49248 -13866277.69145  21659588.0004                   21659584.2384
 11  8 13 18 41  0.0000000  0  9G17G26G24G28G08G07G13G19G11
 -12500167.36946  -9724528.01544  23780603.7584                   23780604.1994
 -10558642.56346  -8214703.28942  23859927.2194                   23859928.6524
 -14129671.53247 -11000577.43244  22832774.8054                   22832774.9144
 -13756731.54747 -10711918.13645  22296769.8594                   22296766.3714
 -20307895.33848 -15817062.56846  20768218.9144                   20768216.7584
 -14840886.98848 -11560207.59946  20222104.9454                   20222101.8984
   5642516.55547   4404962.01844  22803426.4614                   22803424.5664
   -384695.62747   -289867.87245  22759966.8204                   22759963.0554
 -17823936.09347 -13871028.26545  21658427.4064                   21658424.9264
 11  8 13 18 41 30.0000000  0  9G17G26G24G28G08G07G13G19G11
 -12572396.82846  -9780810.53143  23766858.4844                   23766859.0594
 -10612976.71146  -8257041.48042  23849588.4534                   23849588.3874
 -14166523.80947 -11029293.42644  22825761.6024                   22825761.9574
 -13759666.05147 -10714204.75845  22296211.7274                   22296208.0904
 -20338030.44948 -15840544.46946  20762484.6954                   20762481.9454
 -14819149.23448 -11543269.09446  20226241.6254                   20226238.0824
   5777167.45747   4509884.66444  22829049.5944                   22829048.4104
   -264289.30147   -196044.79345  22782879.4844                   22782875.0634
 -17829589.93047 -13875433.82045  21657351.6174                   21657348.5394
 11  8 13 18 42  0.0000000  0  9G17G26G24G28G08G07G13G19G11
 -12644508.07447  -9837000.95744  23753136.4144                   23753136.1334
 -10666945.80546  -8299095.21942  23839318.2814                   23839317.7114
 -14203182.65247 -11057858.70744  22818785.8364                   22818785.0004
 -13762563.81347 -10716462.73845  22295660.2664                   22295657.0434
 -20367973.68048 -15863876.85946  20756786.7584                   20756783.9224
 -14797060.42248 -11526057.04746  20230444.7114                   20230441.3164
   5911909.61347   4614878.39844  22854690.3984                   22854689.4614
   -143685.30947   -102067.69545  22805830.2424                   22805825.4494
 -17834806.67647 -13879498.79345  21656358.7664                   21656355.8754
 11  8 13 18 42 30.0000000  0  9G17G26G24G28G08G07G13G19G11
 -12716503.73047  -9893101.32044  23739436.2194                   23739436.0234
 -10720551.98846  -8340866.20343  23829118.0784                   23829116.6214
 -14239649.92647 -11086274.69944  22811846.4144                   22811845.8714
 -13765430.35547 -10718696.40645  22295114.6484                   22295111.0084
 -20397727.75048 -15887061.84446  20751124.5164                   20751121.5864
 -14774623.92648 -11508574.06646  20234714.4844                   20234710.6994
   6046735.23847   4719937.16044  22880346.8594                   22880345.5554
    -22891.61347     -7942.78545  22828815.7274                   22828811.4224
 -17839589.16448 -13883225.37545  21655448.8594                   21655445.6414
 11  8 13 18 43  0.0000000  0  9G17G26G24G28G08G07G13G19G11
 -12788390.02847  -9949116.46044  23725756.5944                   23725756.3954
 -10773800.76046  -8382358.68643  23818985.2344                   23818983.2734
 -14275930.56547 -11114545.26844  22804942.5234                   22804941.9574
 -13768274.72447 -10720912.77645  22294573.7504                   22294569.8524
 -20427297.91048 -15910103.52546  20745497.9304                   20745494.8204
 -14751846.41048 -11490825.36346  20239048.9774                   20239044.9064
   6181633.05147   4825052.18744  22906017.3054                   22906016.0004
     98081.66947     86322.07545  22851837.1724                   22851832.3984
 -17843943.48147 -13886618.32445  21654620.7194                   21654616.8714
 11  8 13 18 43 30.0000000  0  9G17G26G24G28G08G07G13G19G11
 -12860166.18847 -10005045.78944  23712098.3204                   23712097.6134
 -10826690.57346  -8423571.53743  23808920.1334                   23808918.7854
 -14312022.94147 -11142669.12944  22798074.4064                   22798073.9774
 -13771099.02247 -10723113.51145  22294035.8134                   22294032.2384
 -20456682.91448 -15933000.92246  20739906.0784                   20739902.4264
 -14728727.74048 -11472810.82546  20243448.5234                   20243444.4024
   6316598.65647   4930220.04544  22931700.6174                   22931699.1884
    219230.11747    180723.42245  22874890.6644                   22874886.4184
 -17847869.03447 -13889677.18945  21653872.9384                   21653870.3554
 11  8 13 18 44  0.0000000  0  9G17G26G24G28G08G07G13G19G11
 -12931832.57847 -10060889.59444  23698460.4384                   23698459.6764
 -10879221.17647  -8464504.39143  23798923.9844                   23798922.0164
 -14347925.81347 -11170645.32444  22791242.3054                   22791241.7544
 -13773906.07047 -10725300.80945  22293501.7344                   22293497.8714
 -20485882.52048 -15955753.85946  20734349.1334                   20734345.9494
 -14705268.22648 -11454530.72446  20247912.3674                   20247908.3954
   6451627.09447   5035436.85944  22957395.5164                   22957394.7234
    340548.60947    275257.25845  22897976.6884                   22897972.4884
 -17851366.23448 -13892402.26645  21653207.3364                   21653204.0704
 11  8 13 18 44 30.0000000  0  9G17G26G24G28G08G07G13G19G11
 -13003391.13247 -10116649.37644  23684842.8364                   23684842.3524
 -10931393.75147  -8505158.30843  23788996.3364                   23788994.2384
 -14383640.06547 -11198474.53844  22784445.6484                   22784445.0124
 -13776700.23047 -10727478.05945  22292969.9844                   22292966.1724
 -20514898.40648 -15978363.63746  20728827.7894                   20728824.3164
 -14681470.34848 -11435986.93746  20252441.0004                   20252437.0704
   6586711.09047   5140696.95744  22983101.2504                   22983100.5744
    462030.54747    369918.44945  22921094.4304                   22921089.8834
 -17854436.69547 -13894794.81645  21652623.7274                   21652619.7584
 11  8 13 18 45  0.0000000  0  9G17G26G24G28G08G07G13G19G11
 -13074835.97347 -10172320.54344  23671248.0784                   23671246.8404
 -10983201.82447  -8545528.21143  23779136.3754                   23779135.2544
 -14419158.75047 -11226151.37144  22777687.0554                   22777686.3954
 -13779478.96947 -10729643.28545  22292441.0704                   22292437.5904
 -20543724.05148 -16000825.18046  20723342.1804                   20723339.2894
 -14657329.03948 -11417175.53946  20257034.7424                   20257031.1024
   6721851.80147   5246001.25044  23008818.1644                   23008816.8524
    583677.03147    464707.88345  22944242.7814                   22944238.1724
 -17857074.94947 -13896850.57845  21652121.2504                   21652117.9734
 11  8 13 18 45 30.0000000  0  9G17G26G24G28G08G07G13G19G11
 -13146171.77547 -10227906.76344  23657672.5554                   23657671.4384
 -11034649.25047  -8585617.05543  23769346.7814                   23769344.8284
 -14454485.33647 -11253678.49644  22770964.8204                   22770964.2774
 -13782249.26247 -10731801.95345  22291913.8524                   22291910.5664
 -20572363.26848 -16023141.46046  20717892.5554                   20717889.3164
 -14632849.32948 -11398100.45446  20261693.4224                   20261689.6884
   6857039.53947   5351342.19544  23034543.5004                   23034542.2664
    705479.00547    559618.46044  22967421.3524                   22967416.6254
 -17859285.20948 -13898572.84645  21651700.8444                   21651697.2424
 11  8 13 18 46  0.0000000  0  9G17G26G24G28G08G07G13G19G11
 -13217394.36347 -10283404.76244  23644119.1414                   23644119.0824
 -11085731.34746  -8625421.22143  23759625.8984                   23759624.7624
 -14489614.59447 -11281051.89844  22764279.3674                   22764279.4104
 -13785009.70247 -10733952.92145  22291388.6174                   22291385.7304
 -20600811.51848 -16045308.92246  20712479.3364                   20712476.1134
 -14608027.67847 -11378758.92146  20266416.9844                   20266413.0474
   6992273.69547   5456719.29544  23060277.7814                   23060276.5944
    827435.86647    654649.73345  22990629.2504                   22990624.5274
 -17861063.85947 -13899958.79245  21651362.4924                   21651358.5044
 11  8 13 18 46 30.0000000  0  9G17G26G24G28G08G07G13G19G11
 -13288491.25847 -10338804.79344  23630590.2424                   23630589.1954
 -11136434.99246  -8664930.52043  23749977.5004                   23749976.3754
 -14524533.18047 -11308261.11344  22757634.7814                   22757634.1374
 -13787750.87947 -10736088.87545  22290867.0234                   22290863.2814
 -20629056.17248 -16067317.73046  20707104.1024                   20707101.4104
 -14582852.15248 -11359141.64146  20271208.0554                   20271203.9924
   7127561.48447   5562138.20344  23086022.5864                   23086021.0164
    949554.98047    749807.45344  23013866.5394                   23013862.7234
 -17862398.41847 -13900998.70345  21651108.1254                   21651105.5704
 11  8 13 18 47  0.0000000  0  9G17G26G24G28G08G07G13G19G11
 -13359465.75447 -10394109.44144  23617083.0234                   23617083.3404
 -11186762.66446  -8704146.82843  23740400.6804                   23740398.8364
 -14559243.03947 -11335307.69944  22751029.9614                   22751028.6454
 -13790478.12547 -10738213.98845  22290348.2114                   22290344.5944
 -20657099.38748 -16089169.57846  20701767.8834                   20701765.0084
 -14557326.08248 -11339251.20746  20276065.0634                   20276061.2624
   7262895.12147   5667592.84044  23111775.6414                   23111774.2624
   1071829.02347    845085.88745  23037134.4224                   23037130.1884
 -17863292.27747 -13901695.19945  21650938.3364                   21650934.8714
 11  8 13 18 47 30.0000000  0  9G17G26G24G28G08G07G13G19G11
 -13430292.08647 -10449298.67244  23603605.5474                   23603605.5944
 -11236688.14146  -8743049.75843  23730899.4924                   23730898.6484
 -14593717.21947 -11362170.62144  22744469.2894                   22744468.5314
 -13793168.77747 -10740310.57845  22289836.0704                   22289832.6804
 -20684915.23448 -16110844.26246  20696474.9304                   20696471.5044
 -14531424.41448 -11319068.10246  20280994.2034                   20280990.1844
   7398295.21547   5773099.24644  23137541.8054                   23137540.1254
   1194278.69547    940501.15644  23060436.9924                   23060431.8554
 -17863719.96547 -13902028.45345  21650856.5394                   21650853.2854
 11  8 13 18 48  0.0000000  0  9G17G26G24G28G08G07G13G19G11
 -13500963.52247 -10504367.19144  23590156.5474                   23590157.1374
 -11286203.85446  -8781633.37043  23721476.8284                   23721475.9804
 -14627947.87747 -11388843.80544  22737956.0234                   22737955.0434
 -13795818.75647 -10742375.47645  22289331.7894                   22289328.4534
 -20712495.97448 -16132335.74246  20691225.9614                   20691222.9574
 -14505141.24448 -11298587.71846  20285995.2894                   20285991.4144
   7533763.45747   5878658.73044  23163320.1804                   23163319.3794
   1316906.21147   1036055.01644  23083772.0784                   23083767.0784
 -17863674.66747 -13901993.14345  21650865.3674                   21650862.1484
 11  8 13 18 48 30.0000000  0  9G17G26G24G28G08G07G13G19G11
 -13571472.97747 -10559309.51244  23576739.7734                   23576739.8404
 -11335302.34446  -8819891.86743  23712134.0944                   23712132.8134
 -14661926.92647 -11415320.91444  22731489.0944                   22731488.9614
 -13798423.71148 -10744405.29745  22288836.0554                   22288832.6484
 -20739834.23848 -16153638.27346  20686023.8834                   20686020.5904
 -14478470.00048 -11277804.93446  20291070.8674                   20291067.1254
   7669302.41447   5984273.33643  23189112.2344                   23189111.8874
   1439713.72347   1131749.14844  23107141.2034                   23107137.0944
 -17863149.59447 -13901583.98845  21650965.3284                   21650961.5314
 11  8 13 18 49  0.0000000  0  9G17G26G24G28G08G07G13G19G11
 -13641815.76347 -10614121.94344  23563354.0704                   23563353.7304
 -11383977.88146  -8857820.79743  23702871.3364                   23702869.7304
 -14695648.49047 -11441597.41344  22725072.5234                   22725071.0784
 -13800981.24247 -10746398.16845  22288349.0474                   22288346.0434
 -20766924.19148 -16174747.32846  20680868.2814                   20680865.6644
 -14451405.93048 -11256716.05946  20296220.9144                   20296217.0124
   7804911.85147   6089942.85043  23214918.4924                   23214916.7424
   1562701.75147   1227583.92344  23130545.5314                   23130540.5234
 -17862139.99647 -13900797.27345  21651156.9304                   21651153.9184
 11  8 13 18 49 30.0000000  0  9G17G26G24G28G08G07G13G19G11
 -13711986.23047 -10668800.09044  23550001.1724                   23550000.4804
 -11432224.88346  -8895415.82043  23693689.2894                   23693688.4304
 -14729106.10247 -11467668.23444  22718705.1804                   22718704.6454
 -13803488.92648 -10748352.18445  22287872.1254                   22287868.8594
 -20793760.33648 -16195658.60946  20675762.1254                   20675758.7734
 -14423944.70748 -11235317.71946  20301446.8364                   20301442.9654
   7940592.15247   6195667.58243  23240737.8204                   23240736.3094
   1685870.94547   1323559.86744  23153983.8444                   23153979.1484
 -17860640.73847 -13899629.01245  21651442.6564                   21651439.4494
 11  8 13 18 50  0.0000000  0  9G17G26G24G28G08G07G13G19G11
 -13781975.56647 -10723337.13344  23536682.1334                   23536681.8204
 -11480033.52346  -8932669.34043  23684592.1644                   23684590.7504
 -14762289.40647 -11493525.30144  22712390.7344                   22712390.0474
 -13805940.09447 -10750262.17645  22287405.3444                   22287401.9924
 -20820332.75048 -16216364.38346  20670705.7274                   20670702.3404
 -14396077.60247 -11213603.09846  20306749.7114                   20306745.8954
   8076347.31247   6301450.66844  23266571.1024                   23266569.9534
   1809225.72747   1419680.43044  23177456.8834                   23177452.6914
 -17858642.80948 -13898072.16445  21651822.6564                   21651819.8324
 11  8 13 18 50 30.0000000  0  9G17G26G24G28G08G07G13G19G11
 -13851788.43047 -10777736.63744  23523396.7814                   23523396.6134
 -11527408.47346  -8969584.82043  23675577.4144                   23675575.3094
 -14795202.60547 -11519171.90644  22706127.5864                   22706127.0594
 -13808342.57447 -10752134.23045  22286948.2424                   22286944.8554
 -20846646.02348 -16236868.23446  20665698.2974                   20665695.1134
 -14367810.62548 -11191576.90246  20312128.6484                   20312124.6094
   8212167.46547   6407284.36744  23292417.4454                   23292415.7424
   1932756.41447   1515938.05944  23200964.5554                   23200960.0784
 -17856152.00848 -13896131.26645  21652296.4144                   21652293.3014
 11  8 13 18 51  0.0000000  0  9G17G26G24G28G08G07G13G19G11
 -13921418.52347 -10831993.74244  23510146.9224                   23510146.6094
 -11574341.74247  -9006156.19143  23666646.0394                   23666644.0744
 -14827837.22547 -11544601.44544  22699917.7114                   22699916.7734
 -13810691.63748 -10753964.65245  22286501.2664                   22286497.7234
 -20872692.17648 -16257163.94146  20660741.7114                   20660739.2504
 -14339136.96948 -11169233.79746  20317585.0864                   20317581.0594
   8348054.62547   6513170.28543  23318275.7274                   23318274.7504
   2056465.44147   1612334.66845  23224505.4384                   23224501.4884
 -17853161.04347 -13893800.62945  21652866.0944                   21652862.7814
 11  8 13 18 51 30.0000000  0  9G17G26G24G28G08G07G13G19G11
 -13990868.16047 -10886110.23044  23496930.6644                   23496930.6994
 -11620835.99646  -9042385.41443  23657798.9224                   23657796.9964
 -14860195.07847 -11569815.30544  22693759.9304                   22693759.1454
 -13812993.18447 -10755758.05545  22286063.0704                   22286059.5434
 -20898473.59848 -16277253.35946  20655835.8204                   20655832.5944
 -14310059.96948 -11146576.41446  20323117.9614                   20323114.4344
   8484001.74647   6619102.91444  23344145.5864                   23344145.1684
   2180345.34447   1708864.40244  23248079.6564                   23248074.9574
 -17849673.10247 -13891082.73045  21653529.4844                   21653526.3244
 11  8 13 18 52  0.0000000  0  9G17G26G24G28G08G07G13G19G11
 -14060144.60247 -10940091.75844  23483748.2344                   23483747.6414
 -11666897.69047  -9078277.62344  23649033.4614                   23649031.8244
 -14892282.34747 -11594818.31744  22687653.9454                   22687652.4184
 -13815256.69147 -10757521.82045  22285632.9454                   22285629.4104
 -20923997.34448 -16297141.98446  20650978.7194                   20650975.5434
 -14280587.58248 -11123610.92646  20328726.6414                   20328723.0904
   8619996.03547   6725072.32444  23370024.3984                   23370024.0784
   2304384.56247   1805518.28144  23271682.7974                   23271679.1724
 -17845695.93048 -13887983.62145  21654286.3284                   21654283.1804
 11  8 13 18 52 30.0000000  0  9G17G26G24G28G08G07G13G19G11
 -14129249.02047 -10993939.27044  23470598.1564                   23470596.6764
 -11712527.15247  -9113832.99644  23640350.7974                   23640348.9964
 -14924099.03547 -11619610.49644  22681599.3204                   22681598.4344
 -13817485.78147 -10759258.75445  22285208.6484                   22285204.6454
 -20949262.93448 -16316829.45746  20646170.6804                   20646167.4844
 -14250721.27348 -11100338.49646  20334410.2114                   20334406.5554
   8756032.20347   6831074.32443  23395911.0944                   23395910.9184
   2428577.46547   1902291.89845  23295316.2814                   23295311.9534
 -17841230.96148 -13884504.39545  21655136.1414                   21655132.5634
 11  8 13 18 53  0.0000000  0  9G17G26G24G28G08G07G13G19G11
 -14198182.73047 -11047653.73844  23457479.3754                   23457479.1684
 -11757725.14147  -9149052.16843  23631749.3674                   23631748.5984
 -14955645.28947 -11644191.95344  22675595.7034                   22675595.0474
 -13819684.67647 -10760972.16845  22284789.6334                   22284786.0824
 -20974271.05548 -16336316.30146  20641411.8364                   20641408.7774
 -14220463.07448 -11076760.69146  20340168.1644                   20340164.1134
   8892103.90647   6937104.02744  23421804.8834                   23421804.2464
   2552917.97347   1999180.56244  23318977.3984                   23318972.9494
 -17836279.18748 -13880645.85545  21656079.0164                   21656074.8554
 11  8 13 18 53 30.0000000  0  9G17G26G24G28G08G07G13G19G11
 -14266953.70347 -11101241.40244  23444393.5084                   23444392.5634
 -11802499.14847  -9183940.95343  23623229.3134                   23623227.8404
 -14986927.64147 -11668567.75444  22669643.2344                   22669642.3164
 -13821863.46547 -10762669.91445  22284375.1884                   22284371.7344
 -20999029.28948 -16355608.42246  20636700.4844                   20636697.2384
 -14189821.54748 -11052884.18446  20345998.8754                   20345995.4304
   9028198.55547   7043151.59844  23447703.6094                   23447702.7584
   2677393.72747   2096174.59044  23342664.6884                   23342659.4694
 -17830849.29748 -13876414.74245  21657111.6094                   21657108.1094
 11  8 13 18 54  0.0000000  0  9G17G26G24G28G08G07G13G19G11
 -14335554.88747 -11154696.76244  23431338.4614                   23431337.7424
 -11846841.79347  -9218493.62544  23614790.8134                   23614789.5514
 -15017938.37147 -11692731.91444  22663741.8204                   22663741.1294
 -13824017.93848 -10764348.71545  22283965.1484                   22283961.8634
 -21023529.98848 -16374699.87946  20632038.0864                   20632035.1174
 -14158790.38348 -11028704.07446  20351904.0394                   20351900.2854
   9164317.99247   7149218.49244  23473606.0474                   23473605.9454
   2802007.10947   2193275.89544  23366377.1254                   23366373.4264
 -17824934.64848 -13871805.90245  21658237.0474                   21658233.6414
 11  8 13 18 54 30.0000000  0  9G17G26G24G28G08G07G13G19G11
 -14403999.93847 -11208030.46144  23418313.5944                   23418313.1954
 -11890766.13747  -9252720.33644  23606432.9844                   23606431.2734
 -15048689.84447 -11716694.04344  22657889.8444                   22657889.6294
 -13826164.27047 -10766021.16445  22283556.6954                   22283553.7814
 -21047786.10548 -16393600.74646  20627422.4534                   20627419.5864
 -14127383.72348 -11004231.35546  20357880.3054                   20357876.5554
   9300444.10247   7255290.59043  23499510.7584                   23499510.6414
   2926739.92647   2290470.24644  23390113.5864                   23390109.4924
 -17818549.21948 -13866830.23045  21659452.1724                   21659449.0314
 11  8 13 18 55  0.0000000  0  9G17G26G24G28G08G07G13G19G11
 -14472285.21147 -11261239.65244  23405319.2274                   23405319.1054
 -11934268.00847  -9286617.84444  23598153.8984                   23598152.8984
 -15079177.50447 -11740450.61345  22652088.7814                   22652087.6094
 -13828301.39147 -10767686.43745  22283149.9224                   22283146.5314
 -21071793.32848 -16412307.68046  20622853.9774                   20622851.0434
 -14095598.69948 -10979463.79746  20363928.8204                   20363924.9104
   9436575.66447   7361366.88343  23525415.4694                   23525415.2034
   3051591.22746   2387756.92644  23413871.7114                   23413867.2234
 -17811689.78948 -13861485.20345  21660756.9924                   21660754.0124
 11  8 13 18 55 30.0000000  0  9G17G26G24G28G08G07G13G19G11
 -14540422.71147 -11314333.70744  23392353.0084                   23392353.0354
 -11977358.90647  -9320195.12944  23589954.8834                   23589953.2664
 -15109411.77047 -11764009.72744  22646335.4144                   22646334.2194
 -13830443.95748 -10769355.96145  22282742.2894                   22282738.8284
 -21095562.78948 -16430829.32846  20618330.8914                   20618327.9884
 -14063447.68448 -10954411.06246  20370047.0554                   20370043.1644
   9572695.96147   7467434.42243  23551319.0164                   23551318.2034
   3176545.06646   2485123.49244  23437650.2734                   23437645.9024
 -17804368.47747 -13855780.26645  21662150.7584                   21662147.3204
 11  8 13 18 56  0.0000000  0  9G17G26G24G28G08G07G13G19G11
 -14608420.74247 -11367319.09044  23379413.6414                   23379412.7114
 -12020046.52747  -9353458.16844  23581831.4384                   23581829.6954
 -15139400.16847 -11787377.25044  22640628.9454                   22640627.6524
 -13832602.27047 -10771037.73845  22282331.6724                   22282328.0044
 -21119102.42248 -16449171.89846  20613851.5004                   20613848.2034
 -14030939.84448 -10929080.28546  20376233.0394                   20376229.4304
   9708791.93447   7573483.02743  23577216.9694                   23577216.6914
   3301588.19946   2582559.64144  23461444.8204                   23461440.4184
 -17796594.07048 -13849722.27345  21663629.9384                   21663626.6914
 11  8 13 18 56 30.0000000  0  9G17G26G24G28G08G07G13G19G11
 -14676278.63747 -11420195.27344  23366500.5314                   23366500.0904
 -12062329.83647  -9386406.18044  23573785.5234                   23573783.3984
 -15169140.66047 -11810551.61344  22634969.0004                   22634968.1294
 -13834778.52747 -10772733.51645  22281917.3524                   22281913.8364
 -21142410.49648 -16467334.03546  20609415.7504                   20609412.8204
 -13998074.97348 -10903471.31246  20382486.8594                   20382483.4844
   9844859.81247   7679509.74643  23603110.0004                   23603109.4884
   3426716.98446   2680062.54344  23485255.8284                   23485251.3134
 -17788366.32048 -13843311.03145  21665195.3444                   21665192.1724
 11  8 13 18 57  0.0000000  0  9G17G26G24G28G08G07G13G19G11
 -14743998.87947 -11472964.20344  23353613.8444                   23353613.2114
 -12104210.75846  -9419040.62143  23565815.0944                   23565813.8754
 -15198634.93047 -11833534.12944  22629356.7974                   22629355.6484
 -13836977.32847 -10774446.85245  22281499.8444                   22281495.7934
 -21165488.40948 -16485316.82546  20605024.6334                   20605021.8094
 -13964855.99648 -10877586.41446  20388808.8524                   20388805.1294
   9980892.41447   7785508.96143  23628996.7664                   23628995.5984
   3551924.65246   2777626.89844  23509082.4064                   23509077.6884
 -17779688.02348 -13836548.70745  21666847.3284                   21666843.7734
 11  8 13 18 57 30.0000000  0  9G17G26G24G28G08G07G13G19G11
 -14811586.90247 -11525630.08645  23340752.2274                   23340751.8914
 -12145694.39546  -9451365.50043  23557920.9614                   23557919.7974
 -15227887.45347 -11856328.24644  22623789.6564                   22623788.8914
 -13839206.85948 -10776184.12945  22281074.9224                   22281071.3754
 -21188341.41048 -16503124.35546  20600675.7504                   20600672.9264
 -13931289.71548 -10851430.88346  20395195.8204                   20395192.5164
  10116878.57847   7891471.96543  23654873.2664                   23654873.3984
   3677201.04247   2875244.82044  23532921.9774                   23532917.4574
 -17770565.49248 -13829440.22745  21668583.5004                   21668579.5314
 11  8 13 18 58  0.0000000  0  9G17G26G24G28G08G07G13G19G11
 -14879047.98047 -11578197.06645  23327914.8834                   23327914.0664
 -12186785.32446  -9483384.34844  23550101.6484                   23550100.1684
 -15256902.10547 -11878937.01644  22618268.6094                   22618267.3914
 -13841474.59048 -10777951.18045  22280643.1174                   22280639.2814
 -21210973.74648 -16520759.93746  20596369.2814                   20596365.8524
 -13897381.35948 -10825008.79746  20401648.4224                   20401644.5044
  10252809.28547   7997391.77743  23680740.9454                   23680740.6094
   3802536.79347   2972909.00444  23556772.4924                   23556767.4384
 -17761004.05948 -13821989.73845  21670402.2274                   21670399.2384
 11  8 13 18 58 30.0000000  0  9G17G26G24G28G08G07G13G19G11
 -14946393.30947 -11630673.86544  23315099.0554                   23315098.6414
 -12227494.39546  -9515105.66643  23542354.9304                   23542354.0864
 -15285688.82547 -11901368.17644  22612790.9064                   22612789.2424
 -13843794.28148 -10779758.71545  22280202.0234                   22280198.3874
 -21233396.15348 -16538231.93646  20592101.7344                   20592099.1724
 -13863142.96348 -10798329.54846  20408164.0234                   20408160.1414
  10388668.58047   8103255.94543  23706593.8134                   23706593.9804
   3927916.22847   3070607.22944  23580631.3134                   23580627.2074
 -17751015.46147 -13814206.41345  21672302.9454                   21672300.0354
 11  8 13 18 59  0.0000000  0  9G17G26G24G28G08G07G13G19G11
 -15013615.98447 -11683055.07044  23302307.1254                   23302306.2974
 -12267814.25846  -9546523.66844  23534681.8284                   23534681.8204
 -15314239.75047 -11923615.61345  22607357.5314                   22607356.5594
 -13846161.38348 -10781603.19545  22279751.3674                   22279748.0084
 -21255600.47348 -16555534.00046  20587876.8754                   20587873.6844
 -13828568.35948 -10771388.30946  20414742.9924                   20414739.7274
  10524458.51647   8209066.04343  23732434.4614                   23732434.2304
   4053341.61747   3168341.24244  23604499.2974                   23604494.6054
 -17740593.25848 -13806085.19945  21674286.5084                   21674283.1604
 11  8 13 18 59 30.0000000  0  9G17G26G24G28G08G07G13G19G11
 -15080727.45747 -11735349.62544  23289536.0864                   23289535.4804
 -12307755.80546  -9577646.92243  23527081.4224                   23527080.7464
 -15342565.09447 -11945687.26244  22601967.3754                   22601966.6024
 -13848590.04748 -10783495.64545  22279289.3444                   22279286.0274
 -21277597.65648 -16572674.65646  20583690.8524                   20583688.0744
 -13793669.63748 -10744194.50846  20421384.2974                   20421380.6294
  10660163.18747   8314809.71943  23758258.7814                   23758258.1604
   4178797.53947   3266099.04344  23628372.8914                   23628367.7464
 -17729749.45747 -13797635.46545  21676349.5704                   21676346.5984
 11  8 13 19  0  0.0000000  0  9G17G26G24G28G08G07G13G19G11
 -15147723.56647 -11787554.29744  23276787.2814                   23276786.6884
 -12347314.89346  -9608472.12443  23519553.3754                   23519552.9964
 -15370659.64147 -11967579.07444  22596620.7894                   22596620.0124
 -13851078.30948 -10785434.54345  22278815.6334                   22278812.1994
 -21299382.67648 -16589650.00446  20579544.8834                   20579541.6644
 -13758443.44948 -10716745.54746  20428087.2894                   20428084.0274
  10795781.83247   8420486.35543  23784064.8984                   23784065.5824
   4304283.50447   3363880.28044  23652251.4454                   23652247.1684
 -17718480.55348 -13788854.48845  21678493.9844                   21678491.0904
 11  8 13 19  0 30.0000000  0  9G17G26G24G28G08G07G13G19G11
 -15214602.63347 -11839667.74644  23264060.2584                   23264059.9024
 -12386489.18947  -9638997.49843  23512098.7504                   23512097.9104
 -15398520.64347 -11989288.90744  22591319.1724                   22591318.2194
 -13853626.86748 -10787420.40945  22278330.7814                   22278327.3594
 -21320953.33648 -16606458.29746  20575440.3754                   20575437.0824
 -13722888.73448 -10689040.58246  20434853.3674                   20434849.7424
  10931311.55946   8526093.66843  23809856.5704                   23809856.2974
   4429797.02747   3461682.96544  23676136.3134                   23676132.4104
 -17706785.03448 -13779741.07345  21680719.8364                   21680716.3444
 11  8 13 19  1  0.0000000  0  9G17G26G24G28G08G07G13G19G11
 -15281375.49647 -11891698.44944  23251354.0164                   23251353.4224
 -12425289.03147  -9669231.11343  23504716.0634                   23504714.3244
 -15426158.04747 -12010824.51645  22586059.8054                   22586059.4414
 -13856248.82248 -10789463.48445  22277831.8984                   22277828.7624
 -21342319.28948 -16623107.10546  20571374.4454                   20571371.8164
 -13687017.32448 -10661088.84846  20441679.4774                   20441675.9454
  11066737.03146   8631619.75443  23835626.8204                   23835627.1414
   4555322.81247   3559495.21144  23700023.5634                   23700018.6884
 -17694674.80148 -13770304.52045  21683024.4384                   21683021.2074
 11  8 13 19  1 30.0000000  0  9G17G26G24G28G08G07G13G19G11
 -15348043.08647 -11943647.10844  23238667.1884                   23238666.3524
 -12463714.98946  -9699173.40144  23497402.9224                   23497402.3874
 -15453571.84447 -12032185.87944  22580843.1334                   22580842.5784
 -13858947.56347 -10791566.36745  22277318.0234                   22277314.1644
 -21363481.01648 -16639596.76246  20567347.7584                   20567344.7154
 -13650830.40648 -10632891.26246  20448565.6024                   20448561.6994
  11202052.68846   8737060.27443  23861376.3914                   23861377.2664
   4680855.83647   3657313.09444  23723911.3914                   23723907.2034
 -17682150.97748 -13760545.67645  21685407.6024                   21685404.1094
 11  8 13 19  2  0.0000000  0  9G17G26G24G28G08G07G13G19G11
 -15414593.89847 -11995504.78544  23226003.3834                   23226002.1884
 -12501755.43047  -9728815.27343  23490164.3914                   23490163.0474
 -15480749.23447 -12053363.03144  22575671.6334                   22575670.4344
 -13861713.63748 -10793721.73445  22276791.9694                   22276788.1334
 -21384426.25048 -16655917.72346  20563362.0004                   20563359.0944
 -13614317.46148 -10604439.62546  20455513.4694                   20455510.2034
  11337265.35246   8842420.51643  23887106.5474                   23887107.4454
   4806403.00047   3755141.98844  23747802.1094                   23747797.6524
 -17669203.02748 -13750456.34845  21687871.6094                   21687868.2774
 11  8 13 19  2 30.0000000  0  9G17G26G24G28G08G07G13G19G11
 -15481032.32447 -12047274.88345  23213360.7194                   23213359.2544
 -12539413.91447  -9758159.50443  23482998.0164                   23482996.7734
 -15507693.30547 -12074358.37944  22570544.3754                   22570543.5474
 -13864554.30148 -10795935.23045  22276251.4384                   22276247.9924
 -21405158.31648 -16672072.57846  20559416.7584                   20559413.7234
 -13577483.39148 -10575737.77046  20462523.2034                   20462519.7114
  11472366.30546   8947693.70343  23912815.6644                   23912816.4884
   4931955.93046   3852975.36544  23771694.0944                   23771690.2774
 -17655835.41448 -13740040.00045  21690415.4304                   21690411.5594
 11  8 13 19  3  0.0000000  0  9G17G26G24G28G08G07G13G19G11
 -15547350.99247 -12098951.66844  23200740.6094                   23200739.1024
 -12576683.10547  -9787200.43444  23475906.6644                   23475905.0314
 -15534395.72747 -12095165.41444  22565463.0784                   22565461.8134
 -13867464.16848 -10798202.63745  22275697.7034                   22275693.9654
 -21425669.35948 -16688055.21946  20555513.5634                   20555511.0164
 -13540321.70748 -10546780.62946  20469594.5234                   20469591.1334
  11607358.20346   9052881.92243  23938504.6644                   23938505.3444
   5057517.39546   3950815.38744  23795587.6094                   23795583.1954
 -17642041.63748 -13729291.58245  21693039.8834                   21693036.9614
 11  8 13 19  3 30.0000000  0  9G17G26G24G28G08G07G13G19G11
 -15613547.34947 -12150533.15645  23188143.5784                   23188142.2854
 -12613559.94947  -9815935.60943  23468889.0394                   23468886.8524
 -15560852.54747 -12115781.07644  22560428.0474                   22560427.5084
 -13870442.73548 -10800523.59245  22275130.8914                   22275127.5864
 -21445955.43448 -16703862.55946  20551653.4534                   20551650.2304
 -13502830.46148 -10517566.68746  20476729.2034                   20476725.5944
  11742239.32547   9157983.79643  23964171.9384                   23964172.5474
   5183085.91846   4048660.92644  23819482.8204                   23819478.6094
 -17627819.67648 -13718209.51745  21695746.2034                   21695743.0124
 11  8 13 19  4  0.0000000  0  9G17G26G24G28G08G07G13G19G11
 -15679623.22747 -12202020.75844  23175569.8674                   23175568.5124
 -12650045.55547  -9844365.95744  23461945.9064                   23461944.3984
 -15587064.86747 -12136206.22744  22555440.4224                   22555439.3404
 -13873494.34847 -10802901.46545  22274550.1724                   22274546.3954
 -21466017.74648 -16719495.53146  20547835.7114                   20547832.5004
 -13465012.40248 -10488098.07846  20483925.7034                   20483922.0864
  11877003.01246   9262994.21943  23989816.6024                   23989816.7974
   5308655.77046   4146507.50843  23843377.7344                   23843372.9064
 -17613172.13348 -13706795.83245  21698533.8754                   21698530.3914
 11  8 13 19  4 30.0000000  0  9G17G26G24G28G08G07G13G19G11
 -15745570.75747 -12253408.33545  23163019.7194                   23163018.9774
 -12686132.45547  -9872485.60444  23455079.0164                   23455076.8954
 -15613023.79347 -12156433.92145  22550500.8984                   22550499.4104
 -13876613.68848 -10805332.10245  22273956.7274                   22273953.0234
 -21485847.78148 -16734947.51246  20544062.2504                   20544058.7234
 -13426860.37848 -10458369.23646  20491185.7734                   20491181.8984
  12011652.57547   9367915.66743  24015439.9384                   24015440.6684
   5434230.24746   4244357.68344  23867273.9694                   23867269.7894
 -17598091.95248 -13695045.02245  21701403.7114                   21701399.9144
 11  8 13 19  5  0.0000000  0  9G17G26G24G28G08G07G13G19G11
 -15811389.88247 -12304695.88345  23150494.8204                   23150493.8634
 -12721819.85947  -9900293.94844  23448287.8594                   23448285.2854
 -15638728.17347 -12176463.26844  22545608.4454                   22545607.6564
 -13879802.80148 -10807817.11245  22273349.6804                   22273345.9384
 -21505444.51348 -16750217.70046  20540333.0784                   20540330.1024
 -13388375.19748 -10428380.80046  20498509.2584                   20498505.4734
  12146183.60247   9472744.78343  24041041.1024                   24041040.8714
   5559805.20047   4342208.24844  23891170.0084                   23891165.8444
 -17582579.33348 -13682957.25345  21704355.3674                   21704351.9694
 11  8 13 19  5 30.0000000  0  9G17G26G24G28G08G07G13G19G11
 -17452499.03147 -13583482.14145  22838202.6414                   22838201.0594
 -14332524.95147 -11155388.82043  23141781.1724                   23141778.1254
 -17239594.17347 -13423891.28545  22240974.5084                   22240972.9344
 -15458480.14347 -12037955.27645  21972937.3984                   21972934.0634
 -23100224.32548 -17992903.28046  20236856.5554                   20236853.2034
 -14924972.44448 -11625729.31346  20206104.9534                   20206100.8524
  10705180.01246   8349884.55943  23766827.0234                   23766827.5594
   4109964.17447   3212461.97344  23615274.6884                   23615270.4224
 -19142051.28248 -14898130.18145  21407597.7344                   21407594.7114
 11  8 13 19  6  0.0000000  0  9G17G26G24G28G08G07G13G19G11
 -17518049.31547 -13634560.18645  22825728.5554                   22825727.5234
 -14367400.41847 -11182564.50443  23135144.4774                   23135141.4964
 -17264774.18247 -13443512.03644  22236182.5784                   22236181.6724
 -15461803.00548 -12040544.51945  21972304.9534                   21972301.8874
 -23119339.80748 -18007798.46946  20233218.5634                   20233215.8874
 -14885810.73448 -11595213.71146  20213556.6094                   20213553.3914
  10839472.96346   8454528.13443  23792381.4304                   23792383.2304
   4235539.60547   3310312.87544  23639171.0944                   23639167.1214
 -19125664.43748 -14885361.19545  21410715.6954                   21410712.6994
 11  8 13 19  6 30.0000000  0  9G17G26G24G28G08G07G13G19G11
 -17583464.17247 -13685532.71945  22813279.7974                   22813279.6334
 -14401868.91447 -11209423.08643  23128584.9304                   23128582.6024
 -17289689.57047 -13462926.59844  22231441.4224                   22231440.0664
 -15465195.42648 -12043187.95745  21971659.6804                   21971655.8094
 -23138212.75848 -18022504.66046  20229627.7734                   20229624.5354
 -14846311.23448 -11564434.89546  20221073.1724                   20221069.7034
  10973640.85946   8559074.28143  23817913.5864                   23817914.8754
   4361109.99247   3408159.88744  23663066.7974                   23663062.6094
 -19108840.82048 -14872251.87945  21413917.6564                   21413913.3634
 11  8 13 19  7  0.0000000  0  9G17G26G24G28G08G07G13G19G11
 -17648731.30947 -13736390.13745  22800859.8444                   22800859.1564
 -14435917.49647 -11235954.42243  23122105.8444                   23122102.7814
 -17314326.96947 -13482124.52044  22226753.2734                   22226752.1724
 -15468647.26648 -12045877.69145  21971002.2814                   21970998.6914
 -23156829.84748 -18037011.48446  20226084.6484                   20226082.1484
 -14806462.38648 -11533383.85446  20228656.3444                   20228652.7814
  11107691.61346   8663529.11743  23843422.1644                   23843423.5864
   4486683.28147   3506009.13744  23686962.5164                   23686958.2774
 -19091568.68048 -14858793.04745  21417204.6024                   21417200.8634
 11  8 13 19  7 30.0000000  0  9G17G26G24G28G08G07G13G19G11
 -17713848.94947 -13787131.07045  22788468.7114                   22788467.5554
 -14469543.99647 -11262156.87344  23115707.3364                   23115705.0394
 -17338683.11547 -13501103.30144  22222118.5634                   22222116.6334
 -15472158.16948 -12048613.44945  21970334.2814                   21970331.1254
 -23175188.27748 -18051316.73746  20222591.3524                   20222588.5084
 -14766263.01348 -11502059.67946  20236305.9224                   20236302.1294
  11241622.99646   8767890.93943  23868909.4694                   23868910.5824
   4612257.72847   3603859.31644  23710857.8984                   23710854.3984
 -19073846.84248 -14844983.79045  21420576.9534                   21420573.1994
 11  8 13 19  8  0.0000000  0  9G17G26G24G28G08G07G13G19G11
 -17778807.80547 -13837748.28145  22776107.2344                   22776106.1334
 -14502739.14147 -11288023.22344  23109390.2584                   23109387.6524
 -17362748.01647 -13519855.13744  22217539.0944                   22217537.3364
 -15475721.69948 -12051390.21145  21969656.2974                   21969652.8094
 -23193277.83648 -18065412.50046  20219148.9064                   20219145.9264
 -14725704.62148 -11470455.75446  20244023.8204                   20244020.2384
  11375439.68046   8872163.33643  23894374.2504                   23894375.3914
   4737838.41047   3701714.32844  23734755.2734                   23734751.7194
 -19055667.00848 -14830817.67645  21424036.1724                   21424033.1134
 11  8 13 19  8 30.0000000  0  9G17G26G24G28G08G07G13G19G11
 -17843601.93447 -13888237.13345  22763778.0394                   22763776.4694
 -14535496.34046 -11313548.27044  23103156.5944                   23103155.3444
 -17386514.40647 -13538374.35544  22213016.3984                   22213015.1844
 -15479333.87148 -12054204.87545  21968969.4144                   21968965.5234
 -23211091.51648 -18079293.27746  20215759.2584                   20215756.0514
 -14684781.85248 -11438567.90246  20251811.3054                   20251807.5044
  11509143.42646   8976347.77743  23919817.9614                   23919818.7504
   4863427.02346   3799575.51644  23758654.0784                   23758650.1484
 -19037023.54748 -14816290.29745  21427584.2814                   21427580.2814
 11  8 13 19  9  0.0000000  0  9G17G26G24G28G08G07G13G19G11
 -17908212.43747 -13938582.91045  22751482.6564                   22751481.2304
 -14567797.05947 -11338717.61744  23097009.7274                   23097007.9844
 -17409962.76247 -13556645.76644  22208553.9694                   22208552.6134
 -15482978.02348 -12057044.46545  21968275.4224                   21968271.7894
 -23228610.10948 -18092944.12946  20212425.7894                   20212422.7664
 -14643477.12048 -11406382.43746  20259671.4064                   20259668.0084
  11642748.30146   9080455.16443  23945241.5474                   23945243.2504
   4989038.10247   3897454.23844  23782557.3674                   23782553.0704
 -19017898.90648 -14801387.97745  21431223.1954                   21431219.8594
 11  8 13 19  9 30.0000000  0  9G17G26G24G28G08G07G13G19G11
 -17972645.03947 -13988790.05145  22739221.4534                   22739220.4184
 -14599646.41347 -11363535.27144  23090949.0004                   23090947.4774
 -17433097.14847 -13574672.53544  22204151.2814                   22204150.2344
 -15486661.64548 -12059914.80145  21967574.2584                   21967571.0594
 -23245837.94148 -18106368.40246  20209146.8674                   20209144.3134
 -14601796.71548 -11373904.21146  20267602.9304                   20267599.4574
  11776244.68046   9184478.02043  23970645.6644                   23970647.1334
   5114662.57846   3995343.34044  23806463.1414                   23806458.5204
 -18998299.35248 -14786115.58245  21434952.6954                   21434949.6644
 11  8 13 19 10  0.0000000  0  9G17G26G24G28G08G07G13G19G11
 -18036890.19147 -14038851.11745  22726995.5704                   22726994.1804
 -14631034.75046 -11387993.70344  23084975.3914                   23084974.1524
 -17455907.44947 -13592446.76245  22199811.0704                   22199809.7934
 -15490377.59048 -12062810.32045  21966867.5084                   21966864.0124
 -23262764.55148 -18119557.96146  20205926.0944                   20205922.6454
 -14559732.07048 -11341126.59046  20275607.2344                   20275603.8954
  11909637.54747   9288420.19143  23996029.7114                   23996030.9064
   5240305.61747   4093246.93444  23830371.5164                   23830367.8484
 -18978216.13347 -14770466.31645  21438774.3364                   21438770.9344
 11  8 13 19 10 30.0000000  0  9G17G26G24G28G08G07G13G19G11
 -18100942.14547 -14088761.64845  22714806.8524                   22714806.2704
 -14661956.32847 -11412088.40544  23079091.9064                   23079089.7934
 -17478386.97747 -13609963.23044  22195533.0084                   22195531.9534
 -15494122.14148 -12065728.13745  21966154.5314                   21966150.5944
 -23279383.90248 -18132508.10546  20202763.0864                   20202760.6414
 -14517278.28548 -11308045.73846  20283686.1254                   20283682.6214
  12042928.26247   9392282.76643  24021394.1334                   24021396.1174
   5365968.91546   4191166.30344  23854284.5234                   23854281.1484
 -18957644.56648 -14754436.51645  21442688.8984                   21442685.4304
 11  8 13 19 11  0.0000000  0  9G17G26G24G28G08G07G13G19G11
 -18164790.97747 -14138513.90645  22702657.2034                   22702655.9614
 -14692401.01247 -11435811.53944  23073297.9224                   23073296.2154
 -17500524.82447 -13627213.47345  22191321.0314                   22191318.9884
 -15497887.56348 -12068662.22345  21965438.6484                   21965434.7934
 -23295684.73048 -18145210.05146  20199661.9384                   20199658.6414
 -14474426.53948 -11274654.77746  20291840.7194                   20291837.1524
  12176122.31247   9496070.02043  24046740.5944                   24046741.9654
   5491658.03946   4289105.79344  23878202.2974                   23878198.6804
 -18936575.69548 -14738019.20745  21446698.5084                   21446695.5044
 11  8 13 19 11 30.0000000  0  9G17G26G24G28G08G07G13G19G11
 -18228432.53947 -14188104.66445  22690546.7114                   22690544.7304
 -14722364.46947 -11459159.66044  23067596.5704                   23067594.4144
 -17522315.57847 -13644193.24245  22187173.9064                   22187172.5514
 -15501671.75048 -12071610.91845  21964718.2974                   21964714.0704
 -23311662.16448 -18157660.00446  20196621.3054                   20196618.3244
 -14431173.31348 -11240950.98446  20300071.7814                   20300067.7734
  12309219.65246   9599781.92243  24072067.8834                   24072070.7274
   5617373.59046   4387065.89143  23902125.6414                   23902121.6954
 -18915006.19548 -14721211.79745  21450802.9224                   21450799.2234
 11  8 13 19 12  0.0000000  0  9G17G26G24G28G08G07G13G19G11
 -18291858.80147 -14237527.63745  22678476.5234                   22678475.1844
 -14751838.30547 -11482126.27044  23061987.4844                   23061985.6484
 -17543750.07047 -13660895.39545  22183094.7894                   22183093.7274
 -15505468.50848 -12074569.41445  21963995.4924                   21963991.6764
 -23327307.30948 -18169851.03146  20193644.1334                   20193641.3954
 -14387511.18048 -11206928.53946  20308380.4144                   20308376.3284
  12442224.27346   9703421.54343  24097379.2814                   24097380.5044
   5743119.89546   4485049.97144  23926054.6644                   23926050.4694
 -18892928.74248 -14704008.59045  21455003.8444                   21455000.6454
 11  8 13 19 12 30.0000000  0  9G17G26G24G28G08G07G13G19G11
 -18355072.21547 -14286784.75445  22666447.3984                   22666445.7894
 -14780824.92247 -11504713.24244  23056472.0004                   23056470.1644
 -17564829.91047 -13677321.20744  22179083.6564                   22179082.5514
 -15509282.27748 -12077541.16845  21963269.9304                   21963266.5204
 -23342621.48048 -18181784.16446  20190729.5394                   20190727.0514
 -14343443.34048 -11172589.99246  20316765.9774                   20316762.1764
  12575129.61346   9806983.81643  24122669.6334                   24122671.7974
   5868890.37947   4583052.87544  23949987.5944                   23949983.7274
 -18870346.81247 -14686412.27345  21459301.0234                   21459298.0124
 11  8 13 19 13  0.0000000  0  9G17G26G24G28G08G07G13G19G11
 -18418055.21147 -14335862.32445  22654461.8834                   22654460.7664
 -14809306.65247 -11526906.81644  23051052.1884                   23051049.8874
 -17585536.68447 -13693456.30945  22175143.1724                   22175141.5554
 -15513097.44947 -12080514.01645  21962543.7274                   21962540.1844
 -23357586.00048 -18193444.83646  20187882.2504                   20187879.4844
 -14298953.82848 -11137922.85946  20325232.0554                   20325228.6764
  12707948.45346   9910478.67643  24147944.2734                   24147946.6684
   5994698.51247   4681085.12944  23973927.6954                   23973924.6684
 -18847243.78547 -14668409.91845  21463697.7664                   21463694.2704
 11  8 13 19 13 30.0000000  0  9G17G26G24G28G08G07G13G19G11
 -18480811.51647 -14384763.25445  22642519.8914                   22642518.5944
 -14837287.01647 -11548709.71944  23045727.9144                   23045725.7154
 -17605872.62947 -13709302.46145  22171273.5394                   22171272.2074
 -15516919.80647 -12083492.46545  21961816.5234                   21961812.8444
 -23372203.71948 -18204835.27046  20185100.4694                   20185097.8634
 -14254046.63348 -11102930.25846  20333777.8524                   20333774.3014
  12840673.35946  10013900.30943  24173201.3524                   24173204.1604
   6120536.97747   4779141.00444  23997874.8594                   23997870.7974
 -18823624.24848 -14650005.07845  21468192.2664                   21468189.1764
 11  8 13 19 14  0.0000000  0  9G17G26G24G28G08G07G13G19G11
 -18543335.85947 -14433483.43845  22630621.6254                   22630620.6454
 -14864760.82047 -11570117.84844  23040499.3364                   23040497.2424
 -17625831.75447 -13724854.98045  22167475.1724                   22167474.0864
 -15520746.06648 -12086473.94545  21961088.1174                   21961084.5124
 -23386468.66448 -18215950.80946  20182386.0944                   20182382.7544
 -14208717.75048 -11067609.07846  20342403.4454                   20342399.5744
  12973305.28146  10117249.54643  24198440.8204                   24198443.2854
   6246406.79047   4877221.34743  24021826.6254                   24021821.9414
 -18799483.99647 -14631194.48845  21472786.0864                   21472782.5594
 11  8 13 19 14 30.0000000  0  9G17G26G24G28G08G07G13G19G11
 -18605629.57447 -14482023.92245  22618767.7194                   22618765.9884
 -14891729.50447 -11591132.43044  23035367.6484                   23035365.5704
 -17645414.73447 -13740114.41045  22163748.1484                   22163747.4414
 -15524579.82048 -12089461.27045  21960358.7114                   21960355.0434
 -23400381.35248 -18226791.85946  20179738.1484                   20179735.3404
 -14162969.55148 -11031961.14846  20351108.5944                   20351105.6724
  13105838.32846  10220521.70343  24223661.1484                   24223664.1294
   6372302.91847   4975322.18043  24045784.1954                   24045779.6604
 -18774825.64147 -14611980.19145  21477478.3364                   21477474.9344
 11  8 13 19 15  0.0000000  0  9G17G26G24G28G08G07G13G19G11
 -18667693.41447 -14530385.27345  22606957.0864                   22606955.7304
 -14918193.52347 -11611753.75044  23030331.9384                   23030329.5944
 -17664620.99247 -13755080.28145  22160093.6564                   22160092.5984
 -15528423.34048 -12092456.21545  21959627.2584                   21959623.4804
 -23413941.52348 -18237358.22346  20177158.2814                   20177154.9844
 -14116803.50048 -10995987.62546  20359894.4064                   20359890.8954
  13238268.00046  10323713.31243  24248861.5314                   24248864.8674
   6498220.79747   5073439.93743  24069745.6334                   24069741.8204
 -18749650.68047 -14592363.32845  21482268.9844                   21482265.5274
 11  8 13 19 15 30.0000000  0  9G17G26G24G28G08G07G13G19G11
 -18729523.30847 -14578564.31945  22595191.2504                   22595190.0274
 -14944148.49447 -11631978.39944  23025393.2114                   23025390.7774
 -17683445.47647 -13769748.67345  22156511.3284                   22156510.6254
 -15532274.42648 -12095457.05345  21958894.3054                   21958890.5474
 -23427144.19648 -18247646.01546  20174645.5554                   20174642.4534
 -14070216.11448 -10959685.78546  20368759.8054                   20368756.1954
  13370594.20346  10426824.27542  24274043.3594                   24274045.8094
   6624160.85847   5171575.01143  24093710.4924                   24093707.0744
 -18723956.03148 -14572341.51245  21487158.4694                   21487155.1174
 11  8 13 19 16  0.0000000  0  9G17G26G24G28G08G07G13G19G11
 -18791122.06147 -14626563.26645  22583469.3134                   22583468.1174
 -14969597.64047 -11651808.90944  23020549.5004                   23020547.1094
 -17701890.37747 -13784121.30145  22153001.4844                   22153000.4064
 -15536138.00148 -12098467.61945  21958159.7734                   21958155.2664
 -23439991.49248 -18257656.90646  20172201.4064                   20172198.0314
 -14023211.43848 -10923058.79346  20377704.5164                   20377700.3404
  13502809.88746  10529849.14142  24299204.0944                   24299205.7544
   6750116.29747   5269722.02743  24117679.4304                   24117675.6524
 -18697745.27848 -14551917.55245  21492146.7584                   21492143.1414
 11  8 13 19 16 30.0000000  0  9G17G26G24G28G08G07G13G19G11
 -18852493.13747 -14674384.79345  22571790.8524                   22571788.9844
 -14994543.97347 -11671247.59444  23015802.5234                   23015800.7384
 -17719957.89847 -13798199.85945  22149563.3284                   22149561.9654
 -15540019.36347 -12101492.04745  21957420.9224                   21957416.9964
 -23452485.62948 -18267392.59046  20169823.2584                   20169820.3404
 -13975794.05948 -10886110.19946  20386727.7034                   20386723.4964
  13634907.20746  10632781.77742  24324340.0314                   24324343.4384
   6876079.46546   5367875.07043  24141649.4064                   24141645.6294
 -18671023.16448 -14531095.10245  21497231.5864                   21497228.0784
 11  8 13 19 17  0.0000000  0  9G17G26G24G28G08G07G13G19G11
 -18913627.45747 -14722021.84845  22560157.0784                   22560155.6134
 -15018978.48447 -11690287.47744  23011152.7424                   23011150.9774
 -17737637.78547 -13811976.35945  22146198.9694                   22146198.0084
 -15543911.01248 -12104524.48845  21956680.2974                   21956676.5784
 -23464616.57048 -18276845.27346  20167514.9454                   20167511.5044
 -13927955.20348 -10848833.18446  20395831.1564                   20395827.5274
  13766891.71946  10735626.48042  24349456.9924                   24349459.7304
   7002056.38346   5466038.82843  24165621.8364                   24165618.7894
 -18643781.79748 -14509868.06345  21502414.4384                   21502412.1454
 11  8 13 19 17 30.0000000  0  9G17G26G24G28G08G07G13G19G11
 -18974531.17247 -14769479.20345  22548567.6724                   22548565.6454
 -15042907.48447 -11708933.44544  23006599.4774                   23006597.8914
 -17754935.48847 -13825455.06645  22142907.1024                   22142906.0354
 -15547821.25047 -12107571.41445  21955936.2584                   21955932.2274
 -23476389.80948 -18286019.22346  20165274.3914                   20165271.4774
 -13879702.64148 -10811233.81346  20405013.0704                   20405009.5704
  13898752.91846  10838375.10542  24374549.4844                   24374551.6844
   7128037.09846   5564205.53143  24189596.0394                   24189592.7114
 -18616028.05948 -14488241.77045  21507696.3284                   21507692.6414
 11  8 13 19 18  0.0000000  0  9G17G26G24G28G08G07G13G19G11
 -19035207.61747 -14816759.48045  22537021.0704                   22537019.3674
 -15066334.32447 -11727188.10544  23002140.8674                   23002140.3444
 -17771853.29347 -13838637.73845  22139687.8594                   22139686.9144
 -15551755.16048 -12110636.79745  21955187.4144                   21955184.0274
 -23487807.21148 -18294915.91046  20163101.9304                   20163098.8404
 -13831040.44148 -10773315.23446  20414273.0864                   20414269.6764
  14030483.18046  10941021.72743  24399617.1724                   24399619.5704
   7254014.41447   5662369.60543  24213568.5634                   24213564.7774
 -18587767.02048 -14466220.16845  21513074.4454                   21513071.0354
 11  8 13 19 18 30.0000000  0  9G17G26G24G28G08G07G13G19G11
 -19095665.74747 -14863869.63945  22525516.5084                   22525514.3554
 -15089267.76647 -11745058.28944  22997777.2734                   22997775.7544
 -17788399.35447 -13851530.73745  22136539.0084                   22136538.6334
 -15555723.88448 -12113729.29445  21954432.3914                   21954428.3554
 -23498877.23548 -18303541.90446  20160995.5704                   20160991.5274
 -13781978.61648 -10735085.26046  20423609.5474                   20423606.5084
  14162069.64646  11043556.27743  24424656.7344                   24424659.1954
   7379975.54846   5760521.06643  24237537.8754                   24237534.0784
 -18559008.31948 -14443810.78345  21518547.2814                   21518543.5904
 11  8 13 19 19  0.0000000  0  9G17G26G24G28G08G07G13G19G11
 -19155898.64147 -14910804.28545  22514054.7504                   22514052.3524
 -15111701.23847 -11762538.91444  22993507.7114                   22993506.5314
 -17804565.55547 -13864127.74645  22133462.8914                   22133461.8324
 -15559721.67648 -12116844.44945  21953671.2034                   21953667.6804
 -23509591.82448 -18311890.93446  20158956.0474                   20158953.3524
 -13732511.09848 -10696539.16446  20433022.5314                   20433018.8794
  14293515.33246  11145981.17643  24449671.0784                   24449673.0554
   7505923.95747   5858662.61344  24261505.6174                   24261501.5434
 -18529745.71948 -14421008.75045  21524115.7034                   21524111.6334
 11  8 13 19 19 30.0000000  0  9G17G26G24G28G08G07G13G19G11
 -19215909.64547 -14957566.03545  22502634.4614                   22502632.5554
 -15133637.83647 -11779632.36344  22989333.9304                   22989332.1484
 -17820354.57447 -13876430.84445  22130458.7424                   22130457.0514
 -15563753.98048 -12119986.48845  21952904.1334                   21952900.3754
 -23519953.59448 -18319965.05146  20156984.5394                   20156981.1254
 -13682642.24648 -10657680.34046  20442512.2344                   20442508.7234
  14424812.65246  11248290.42643  24474656.2584                   24474658.6884
   7631852.26247   5956788.49244  24285469.4844                   24285464.8094
 -18499984.38348 -14397818.09045  21529778.9384                   21529775.2304
 11  8 13 19 20  0.0000000  0  9G17G26G24G28G08G07G13G19G11
 -19275698.21947 -15004154.45345  22491257.2504                   22491255.4924
 -15155076.95747 -11796338.15644  22985254.0704                   22985252.2934
 -17835764.61348 -13888438.63745  22127525.9614                   22127524.5664
 -15567821.39148 -12123155.89845  21952130.4694                   21952126.4614
 -23529960.21548 -18327762.42246  20155080.4304                   20155077.2774
 -13632372.25848 -10618508.94146  20452078.6644                   20452075.2814
  14555958.76646  11350481.85543  24499613.1484                   24499615.9844
   7757757.43747   6054896.34844  24309427.8914                   24309423.6884
 -18469724.43748 -14374238.88745  21535537.2894                   21535533.5554
 11  8 13 19 20 30.0000000  0  9G17G26G24G28G08G07G13G19G11
 -19335263.42647 -15050568.83245  22479922.1254                   22479920.6374
 -15176018.19547 -11812656.01244  22981268.7274                   22981267.3134
 -17850794.15647 -13900149.93844  22124666.0554                   22124664.5864
 -15571925.23448 -12126353.69145  21951349.0394                   21951344.9304
 -23539610.60548 -18335282.21146  20153243.6254                   20153240.7384
 -13581701.62948 -10579025.34846  20461721.3284                   20461717.3984
  14686950.11846  11452552.69043  24524540.0314                   24524542.8674
   7883637.40647   6152984.55943  24333383.2344                   24333377.9454
 -18438966.64148 -14350271.76245  21541389.8134                   21541386.0084
 11  8 13 19 21  0.0000000  0  9G17G26G24G28G08G07G13G19G11
 -19394615.01647 -15096816.75045  22468628.1334                   22468626.4844
 -15196471.10947 -11828593.32844  22977376.9384                   22977375.4224
 -17865452.19548 -13911571.74244  22121876.6804                   22121875.3984
 -15576077.23848 -12129589.01245  21950558.8204                   21950554.8914
 -23548913.57848 -18342531.28946  20151474.0314                   20151470.2544
 -13530641.08648 -10539237.96146  20471437.4614                   20471433.8204
  14817772.94946  11554492.26642  24549435.1334                   24549437.8674
   8009478.23047   6251042.27343  24357329.2734                   24357325.1294
 -18407721.55548 -14325924.93445  21547336.3594                   21547332.0314
 11  8 13 19 21 30.0000000  0  9G17G26G24G28G08G07G13G19G11
 -19453747.51247 -15142893.95345  22457375.2894                   22457373.3524
 -15216430.62547 -11844146.17644  22973578.5784                   22973577.1954
 -17879732.23447 -13922699.03145  22119159.1094                   22119157.4104
 -15580273.39148 -12132858.73045  21949760.3914                   21949757.0514
 -23557862.93448 -18349504.82846  20149770.6414                   20149767.5514
 -13479186.09448 -10499143.18446  20481228.9064                   20481225.4024
  14948428.98046  11656301.75442  24574298.0784                   24574301.8914
   8135281.79347   6349070.96543  24381268.9774                   24381264.9344
 -18375985.24648 -14301195.34445  21553375.6334                   21553371.5864
 11  8 13 19 22  0.0000000  0  9G17G26G24G28G08G07G13G19G11
 -19512663.64147 -15188802.56345  22446164.4454                   22446162.1374
 -15235899.29747 -11859316.55144  22969873.6334                   22969872.5354
 -17893635.86747 -13933532.98845  22116513.1724                   22116511.4344
 -15584517.91448 -12136166.14145  21948952.6024                   21948949.1484
 -23566459.82848 -18356203.71946  20148134.5634                   20148131.6564
 -13427340.35548 -10458743.90646  20491094.9774                   20491091.4184
  15078911.80146  11757976.37142  24599127.9844                   24599133.1094
   8261042.14546   6447065.98843  24405200.1334                   24405196.4494
 -18343761.37548 -14276085.82845  21559507.0944                   21559503.6214
 11  8 13 19 22 30.0000000  0  9G17G26G24G28G08G07G13G19G11
 -19571359.99247 -15234539.91845  22434994.5784                   22434992.6484
 -15254874.04947 -11874102.06344  22966262.7584                   22966261.4264
 -17907158.88747 -13944070.37845  22113940.0554                   22113938.2584
 -15588809.22647 -12139510.01545  21948135.8754                   21948132.5044
 -23574700.34348 -18362624.91246  20146566.8754                   20146563.4924
 -13375101.44048 -10418038.27746  20501035.7274                   20501032.1094
  15209220.52746  11859515.27742  24623924.6644                   24623930.9804
   8386758.73246   6545026.87143  24429122.7894                   24429120.5084
 -18311047.79948 -14250594.71945  21565732.2814                   21565728.7274
 11  8 13 19 23  0.0000000  0  9G17G26G24G28G08G07G13G19G11
 -19629836.00847 -15280105.58245  22423866.6954                   22423864.6724
 -15273354.62147 -11888502.50444  22962746.5944                   22962745.1524
 -17920300.10547 -13954310.23845  22111439.1484                   22111437.5864
 -15593148.31348 -12142891.11345  21947310.5944                   21947306.8834
 -23582582.59048 -18368766.92246  20145066.4844                   20145063.9264
 -13322469.91848 -10377026.71946  20511051.0704                   20511047.6374
  15339351.73846  11960915.91442  24648689.1564                   24648693.6954
   8512429.06246   6642951.70343  24453038.0634                   24453033.4224
 -18277845.35547 -14224722.68045  21572050.4534                   21572047.0434
 11  8 13 19 23 30.0000000  0  8G17G26G24G28G08G07G19G11
 -19688086.28947 -15325495.33645  22412782.1564                   22412780.3054
 -15291335.57047 -11902513.62144  22959324.7584                   22959323.0944
 -17933053.16047 -13964247.65245  22109012.6884                   22109011.1604
 -15597531.52748 -12146306.59845  21946476.4064                   21946472.3094
 -23590100.66048 -18374625.17246  20143636.1414                   20143632.6214
 -13269441.81348 -10335706.14846  20521142.1484                   20521138.5044
   8638054.97246   6740841.98443  24476943.2974                   24476940.1174
 -18244149.98448 -14198466.54345  21578462.7034                   21578458.5824
 11  8 13 19 24  0.0000000  0  8G17G26G24G28G08G07G19G11
 -19746108.52047 -15370707.40645  22401740.5554                   22401738.8324
 -15308814.52047 -11916133.56344  22955998.7424                   22955997.3054
 -17945414.49247 -13973879.82445  22106660.0864                   22106658.6294
 -15601957.89848 -12149755.70745  21945634.1884                   21945630.2424
 -23597250.91448 -18380196.80146  20142275.2974                   20142272.2504
 -13216015.05148 -10294074.92246  20531308.6484                   20531305.5164
   8763635.36146   6838696.76643  24500839.5554                   24500836.6254
 -18209960.13748 -14171825.09845  21584968.7894                   21584965.2234
 11  8 13 19 24 30.0000000  0  8G17G26G24G28G08G07G19G11
 -19803891.73047 -15415733.20845  22390744.8364                   22390742.7544
 -15325780.89047 -11929354.10044  22952770.6024                   22952768.7424
 -17957372.52047 -13983197.73445  22104384.4454                   22104383.3094
 -15606418.24247 -12153231.30545  21944785.3204                   21944781.5474
 -23604021.36448 -18385472.48446  20140987.0164                   20140984.3404
 -13162180.10548 -10252125.64346  20541552.9694                   20541549.8874
   8889177.38346   6936521.64143  24524730.8444                   24524727.2074
 -18175266.28948 -14144790.93645  21591570.7504                   21591567.1024
 11  8 13 19 25  0.0000000  0  8G17G26G24G28G08G07G19G11
 -19861437.96947 -15460574.37545  22379794.2114                   22379792.3054
 -15342236.88347 -11942176.93444  22949638.8054                   22949636.8874
 -17968928.37147 -13992202.23845  22102185.7274                   22102183.9884
 -15610916.17648 -12156736.17645  21943929.3284                   21943925.2814
 -23610413.32048 -18390453.23446  20139770.5634                   20139767.4964
 -13107940.14548 -10209860.76246  20551874.6484                   20551871.1094
   9014675.68446   7034312.47343  24548611.7274                   24548608.8634
 -18140072.19548 -14117366.95345  21598267.5864                   21598264.4144
 11  8 13 19 25 30.0000000  0  8G17G26G24G28G08G07G19G11
 -19918744.29847 -15505228.59745  22368889.2114                   22368887.2074
 -15358179.81047 -11954599.99044  22946604.6884                   22946603.2274
 -17980078.24047 -14000890.41145  22100063.5864                   22100062.4264
 -15615450.06748 -12160269.07045  21943066.5704                   21943062.5704
 -23616422.65648 -18395135.83546  20138627.3594                   20138624.0394
 -13053293.31548 -10167278.84346  20562273.8364                   20562270.6174
   9140130.21546   7132069.14843  24572485.4694                   24572481.8404
 -18104375.73448 -14089551.53945  21605060.5394                   21605056.9384
 11  8 13 19 26  0.0000000  0  8G17G26G24G28G08G07G19G11
 -19975815.51247 -15549699.62145  22358028.3284                   22358026.6054
 -15373614.73447 -11966627.19144  22943667.3204                   22943665.6294
 -17990826.36747 -14009265.53545  22098018.0784                   22098016.8054
 -15620026.32048 -12163834.97745  21942195.6174                   21942191.6094
 -23622053.64148 -18399523.62546  20137555.3284                   20137552.7584
 -12998245.66448 -10124384.59446  20572748.4614                   20572745.4304
   9265532.34446   7229785.06643  24596348.3754                   24596345.1254
 -18068183.17648 -14061349.55145  21611947.7274                   21611944.1334
 11  8 13 19 26 30.0000000  0  8G17G26G24G28G08G07G19G11
 -20032642.78147 -15593980.54745  22347214.7034                   22347212.9064
 -15388533.06647 -11978251.86744  22940828.4454                   22940826.6524
 -18001162.79747 -14017319.85945  22096051.2584                   22096049.8594
 -15624637.70748 -12167428.26645  21941318.2504                   21941314.1484
 -23627296.10548 -18403608.66446  20136557.8204                   20136555.1054
 -12942789.17248 -10081171.77746  20583302.1724                   20583298.5984
   9390887.56646   7327464.37943  24620202.5314                   24620199.6174
 -18031487.09048 -14032755.19945  21618930.6644                   21618927.6884
 11  8 13 19 27  0.0000000  0  8G17G26G24G28G08G07G19G11
 -20089241.05548 -15638083.03945  22336444.3914                   22336442.3634
 -15402949.98847 -11989485.84444  22938085.0084                   22938083.9224
 -18011101.62147 -14025064.35545  22094160.4304                   22094158.5044
 -15629300.29748 -12171061.44545  21940430.7894                   21940427.0944
 -23632164.09448 -18407401.90646  20135631.7194                   20135628.5474
 -12886939.73448 -10037652.77046  20593929.8364                   20593926.0474
   9516177.74646   7425093.01243  24644045.1804                   24644041.7774
 -17994303.80948 -14003781.21145  21626006.9774                   21626003.0354
 11  8 13 19 27 30.0000000  0  8G17G26G24G28G08G07G19G11
 -20145604.19547 -15682002.31645  22325718.6564                   22325716.9494
 -15416859.86747 -12000324.70344  22935438.1644                   22935436.4924
 -18020636.60247 -14032494.16845  22092345.7344                   22092343.9804
 -15634010.25848 -12174731.53945  21939534.4694                   21939530.8014
 -23636650.77348 -18410898.01646  20134777.8674                   20134774.5354
 -12830692.84048  -9993824.05146  20604633.1644                   20604629.9534
   9641405.22746   7522672.81243  24667875.0704                   24667871.6914
 -17956628.77348 -13974424.04345  21633175.7114                   21633172.4454
 11  8 13 19 28  0.0000000  0  8G17G26G24G28G08G07G19G11
 -20201735.44147 -15725740.87545  22315037.0474                   22315035.4414
 -15430265.91847 -12010770.96944  22932887.2344                   22932885.7424
 -18029769.58647 -14039610.73045  22090607.6024                   22090606.1804
 -15638771.71948 -12178441.76645  21938628.5394                   21938624.6174
 -23640757.87948 -18414098.36346  20133996.3594                   20133993.0474
 -12774052.57048  -9949688.81346  20615411.7584                   20615408.2464
   9766564.11746   7620199.12543  24691691.8984                   24691689.2274
 -17918466.25448 -13944687.02045  21640438.2814                   21640434.5314
 11  8 13 19 28 30.0000000  0  8G17G26G24G28G08G07G19G11
 -20257638.46547 -15769301.60945  22304399.0314                   22304397.6844
 -15443172.41447 -12020827.98444  22930431.4774                   22930429.3444
 -18038503.39147 -14046416.25045  22088945.5864                   22088944.0634
 -15643589.94548 -12182196.21945  21937711.6564                   21937707.4614
 -23644488.51248 -18417005.35946  20133286.2344                   20133283.3554
 -12717023.80948  -9905250.84446  20626263.8524                   20626260.1914
   9891647.44546   7717666.59043  24715494.7344                   24715491.4344
 -17879821.53148 -13914574.25045  21647792.2734                   21647788.6644
 11  8 13 19 29  0.0000000  0  8G17G26G24G28G08G07G19G11
 -20313313.22347 -15812684.47345  22293804.4224                   22293802.7234
 -15455579.15247 -12030495.55144  22928069.4534                   22928068.5044
 -18046837.35947 -14052910.21545  22087359.8204                   22087358.1764
 -15648465.84448 -12185995.62145  21936783.7034                   21936779.7074
 -23647841.54748 -18419618.12146  20132648.5234                   20132645.3094
 -12659607.40648  -9860510.82846  20637189.7664                   20637186.3754
  10016651.92246   7815072.59844  24739282.4144                   24739278.6684
 -17840695.70348 -13884086.59845  21655237.3754                   21655233.9774
 11  8 13 19 29 30.0000000  0  8G17G26G24G28G08G07G19G11
 -20368760.24248 -15855889.88345  22283253.1804                   22283251.3914
 -15467487.52347 -12039774.80544  22925803.9694                   22925802.6024
 -18054771.37947 -14059092.53945  22085849.2814                   22085848.4924
 -15653401.55947 -12189841.64145  21935844.4454                   21935840.7424
 -23650817.06248 -18421936.71546  20132082.0084                   20132079.3914
 -12601805.31648  -9815470.27046  20648189.2664                   20648185.8984
  10141573.77046   7912414.21543  24763054.1094                   24763050.9574
 -17801091.05147 -13853225.82845  21662773.6644                   21662770.1914
 11  8 13 19 30  0.0000000  0  8G17G26G24G28G08G07G19G11
 -20423985.53948 -15898922.52045  22272744.5004                   22272742.2934
 -15478903.61347 -12048670.46144  22923631.6414                   22923629.7114
 -18062310.24647 -14064966.96545  22084414.6484                   22084413.8754
 -15658404.43848 -12193739.98445  21934892.4454                   21934888.6884
 -23653419.48448 -18423964.57846  20131586.6804                   20131583.8834
 -12543624.37948  -9770134.50846  20659260.5864                   20659257.6414
  10266403.65246   8009684.19543  24786808.4844                   24786805.0314
 -17761014.86748 -13821997.65245  21670399.9694                   21670396.5004
 11  8 13 19 30 30.0000000  0  8G17G26G24G28G08G07G19G11
 -20478968.42248 -15941766.25845  22262281.5084                   22262279.5474
 -15489807.08247 -12057166.66844  22921556.5864                   22921555.2424
 -18069432.68747 -14070516.87945  22083059.8674                   22083058.3954
 -15663455.22347 -12197675.64846  21933931.2974                   21933927.7274
 -23655627.47748 -18425685.10246  20131166.6254                   20131163.4734
 -12485045.11748  -9724488.36746  20670407.7344                   20670404.6684
  10391159.17646   8106896.22343  24810549.1564                   24810545.3444
 -17720447.75048 -13790386.91045  21678119.4454                   21678115.8634
 11  8 13 19 31  0.0000000  0  8G17G26G24G28G08G07G19G11
 -20533703.20348 -15984416.68045  22251865.8674                   22251863.5984
 -15500192.97347 -12065259.56344  22919580.5554                   22919578.9614
 -18076132.43747 -14075737.42645  22081784.7734                   22081783.3594
 -15668549.80148 -12201645.44945  21932961.7894                   21932958.0234
 -23657434.48848 -18427093.16846  20130822.9454                   20130820.1414
 -12426063.19148  -9678528.45346  20681632.0004                   20681628.7544
  10515842.59046   8204052.05943  24834275.8284                   24834271.4574
 -17679385.88048 -13758390.64745  21685933.4064                   21685929.8794
 11  8 13 19 31 30.0000000  0  8G17G26G24G28G08G07G19G11
 -20588179.77348 -16026865.89845  22241499.3914                   22241497.0314
 -15510051.22347 -12072941.30144  22917704.5944                   22917702.4454
 -18082398.56248 -14080620.09845  22080592.5084                   22080590.8364
 -15673679.01648 -12205642.23045  21931986.1024                   21931982.2934
 -23658829.46948 -18428180.18046  20130557.3834                   20130554.9734
 -12366669.48048  -9632247.67646  20692934.2424                   20692931.1334
  10640461.25046   8301157.44943  24857989.3674                   24857985.7194
 -17637820.41448 -13726001.97745  21693843.3834                   21693840.1604
 11  8 13 19 32  0.0000000  0  7G17G26G24G28G08G07G11
 -20642390.66848 -16069108.09045  22231182.9924                   22231180.7974
 -15519375.10247 -12080206.65644  22915930.1954                   22915928.4144
 -18088223.08247 -14085158.64845  22079483.8524                   22079482.7384
 -15678836.69548 -12209661.19146  21931004.1564                   21931000.6414
 -23659804.08648 -18428939.62546  20130372.1094                   20130368.4774
 -12306858.18448  -9585641.51646  20704315.9924                   20704312.1524
 -17595745.52048 -13693216.33645  21701849.4384                   21701845.9534
 11  8 13 19 32 30.0000000  0  7G17G26G24G28G08G07G11
 -20696321.51248 -16111132.06345  22220920.2034                   22220917.9844
 -15528150.42647 -12087044.55544  22914260.3834                   22914258.5744
 -18093590.61747 -14089341.11745  22078462.8984                   22078460.8754
 -15684009.84848 -12213692.21946  21930020.6414                   21930016.6294
 -23660342.49648 -18429359.16846  20130270.0004                   20130266.6294
 -12246615.80948  -9538699.43846  20715779.3204                   20715776.3554
 -17553148.00848 -13660023.46145  21709955.3444                   21709952.6764
 11  8 13 19 33  0.0000000  0  7G17G26G24G28G08G07G11
 -20749949.17448 -16152919.79945  22210715.2894                   22210713.1024
 -15536354.45847 -12093437.30444  22912698.8134                   22912696.9924
 -18098477.54748 -14093149.07945  22077532.6724                   22077531.0314
 -15689176.46648 -12217718.14445  21929036.9924                   21929033.2974
 -23660420.71548 -18429420.12146  20130254.8284                   20130251.4654
 -12185920.16448  -9491404.16046  20727329.5474                   20727326.1374
 -17510006.48847 -13626406.68945  21718165.3834                   21718161.6134
